[[{"header":{"parameterUnit":"m.s-1","parameterCategory":1,"la1":31.0,"la2":29.5877,"lo1":-88.7671,"lo2":-86.6584,"dy":0.0162,"dx":0.0185,"nx":115,"ny":88,"refTime":"2023-10-16T00:00:00:Z","depth":0,"parameterNumber":2,"parameterNumberName":"U-component_of_WINDS"},"data":[0.0,0.0,0.0,0.0,0.0,0.0,0.0,0.0,0.0,0.0,0.0,0.0,0.0,0.0,0.0,0.0,0.0,0.0,0.0,0.0,0.0,0.0,0.0,0.0,0.0,0.0,0.0,0.0,0.0,0.0,0.0,0.0,0.0,0.0,0.0,0.0,0.0,0.0,0.0,0.0,0.0,0.0,0.0,0.0,0.0,0.0,0.0,0.0,0.0,0.0,0.0,0.0,0.0,0.0,0.0,0.0,0.0,0.0,0.0,0.0,0.0,0.0,0.0,0.0,0.0,0.0,0.0,0.0,0.0,0.0,0.0,0.0,0.0,0.0,0.0,0.0,0.0,0.0,0.0,0.0,0.0,0.0,0.0,0.0,0.0,0.0,0.0,0.0,0.0,0.0,0.0,0.0,0.0,0.0,0.0,0.0,0.0,0.0,0.0,0.0,0.0,0.0,0.0,0.0,0.0,0.0,0.0,0.0,0.0,0.0,0.0,0.0,0.0,0.0,0.0,0.0,0.0,0.0,0.0,0.0,0.0,0.0,0.0,0.0,0.0,0.0,0.0,0.0,0.0,0.0,0.0,0.0,0.0,0.0,0.0,0.0,0.0,0.0,0.0,0.0,0.0,0.0,0.0,0.0,0.0,0.0,0.0,0.0,0.0,0.0,0.0,0.0,0.0,0.0,0.0,0.0,0.0,0.0,0.0,0.0,0.0,0.0,0.0,0.0,0.0,0.0,0.0,0.0,0.0,0.0,0.0,0.0,0.0,0.0,0.0,0.0,0.0,0.0,0.0,0.0,0.0,0.0,0.0,0.0,0.0,0.0,0.0,0.0,0.0,0.0,0.0,0.0,0.0,0.0,0.0,0.0,0.0,0.0,0.0,0.0,0.0,0.0,0.0,0.0,0.0,0.0,0.0,0.0,0.0,0.0,0.0,0.0,0.0,0.0,0.0,0.0,0.0,0.0,0.0,0.0,0.0,0.0,0.0,0.0,0.0,0.0,0.0,0.0,0.0,0.0,0.0,0.0,0.0,0.0,0.0,0.0,0.0,0.0,0.0,0.0,0.0,0.0,0.0,0.0,0.0,0.0,0.0,0.0,0.0,0.0,0.0,0.0,0.0,0.0,0.0,0.0,0.0,0.0,0.0,0.0,0.0,0.0,0.0,0.0,0.0,0.0,0.0,0.0,0.0,0.0,0.0,0.0,0.0,0.0,0.0,0.0,0.0,0.0,0.0,0.0,0.0,0.0,0.0,0.0,0.0,0.0,0.0,0.0,0.0,0.0,0.0,0.0,0.0,0.0,0.0,0.0,0.0,0.0,0.0,0.0,0.0,0.0,0.0,0.0,0.0,0.0,0.0,0.0,0.0,0.0,0.0,0.0,0.0,0.0,0.0,0.0,0.0,0.0,0.0,0.0,0.0,0.0,0.0,0.0,0.0,0.0,0.0,0.0,0.0,0.0,0.0,0.0,0.0,0.0,0.0,0.0,0.0,0.0,0.0,0.0,0.0,0.0,0.0,0.0,0.0,0.0,0.0,0.0,0.0,0.0,0.0,0.0,0.0,0.0,0.0,0.0,0.0,0.0,0.0,0.0,0.0,0.0,0.0,0.0,0.0,0.0,0.0,0.0,0.0,0.0,0.0,0.0,0.0,0.0,0.0,0.0,0.0,0.0,0.0,0.0,0.0,0.0,0.0,0.0,0.0,0.0,0.0,0.0,0.0,0.0,0.0,0.0,0.0,0.0,0.0,0.0,0.0,0.0,0.0,0.0,0.0,0.0,0.0,0.0,0.0,0.0,0.0,0.0,0.0,0.0,0.0,0.0,0.0,0.0,0.0,0.0,0.0,0.0,0.0,0.0,0.0,0.0,0.0,0.0,0.0,0.0,0.0,0.0,0.0,0.0,0.0,0.0,0.0,0.0,0.0,0.0,0.0,0.0,0.0,0.0,0.0,0.0,0.0,0.0,0.0,0.0,0.0,0.0,0.0,0.0,0.0,0.0,0.0,0.0,0.0,0.0,0.0,0.0,0.0,0.0,0.0,0.0,0.0,0.0,0.0,0.0,0.0,0.0,0.0,0.0,0.0,0.0,0.0,0.0,0.0,0.0,0.0,0.0,0.0,0.0,0.0,0.0,0.0,0.0,0.0,0.0,0.0,0.0,0.0,0.0,0.0,0.0,0.0,0.0,0.0,0.0,0.0,0.0,0.0,0.0,0.0,0.0,0.0,0.0,0.0,0.0,0.0,0.0,0.0,0.0,0.0,0.0,0.0,0.0,0.0,0.0,0.0,0.0,0.0,0.0,0.0,0.0,0.0,0.0,0.0,0.0,0.0,0.0,0.0,0.0,0.0,0.0,0.0,0.0,0.0,0.0,0.0,0.0,0.0,0.0,0.0,0.0,0.0,0.0,0.0,0.0,0.0,0.0,0.0,0.0,0.0,0.0,0.0,0.0,0.0,0.0,0.0,0.0,0.0,0.0,0.0,0.0,0.0,0.0,0.0,0.0,0.0,0.0,0.0,0.0,0.0,0.0,0.0,0.0,0.0,0.0,0.0,0.0,0.0,0.0,0.0,0.0,0.0,0.0,0.0,0.0,0.0,0.0,0.0,0.0,0.0,0.0,0.0,0.0,0.0,0.0,0.0,0.0,0.0,0.0,0.0,0.0,0.0,0.0,0.0,0.0,0.0,0.0,0.0,0.0,0.0,0.0,0.0,0.0,0.0,0.0,0.0,0.0,0.0,0.0,0.0,0.0,0.0,0.0,0.0,0.0,0.0,0.0,0.0,0.0,0.0,0.0,0.0,0.0,0.0,0.0,0.0,0.0,0.0,0.0,0.0,0.0,0.0,0.0,0.0,0.0,0.0,0.0,0.0,0.0,0.0,0.0,0.0,0.0,0.0,0.0,0.0,0.0,0.0,0.0,0.0,0.0,0.0,0.0,0.0,0.0,0.0,0.0,0.0,0.0,0.0,0.0,0.0,0.0,0.0,0.0,0.0,0.0,0.0,0.0,0.0,0.0,0.0,0.0,0.0,0.0,0.0,0.0,0.0,0.0,0.0,0.0,0.0,0.0,0.0,0.0,0.0,0.0,0.0,0.0,0.0,0.0,0.0,0.0,0.0,0.0,0.0,0.0,0.0,0.0,0.0,0.0,0.0,0.0,0.0,0.0,0.0,0.0,0.0,0.0,0.0,0.0,0.0,0.0,0.0,0.0,0.0,0.0,0.0,0.0,0.0,0.0,0.0,0.0,0.0,0.0,0.0,0.0,0.0,0.0,0.0,0.0,0.0,0.0,0.0,0.0,0.0,0.0,0.0,0.0,0.0,0.0,0.0,0.0,0.0,0.0,0.0,0.0,0.0,0.0,0.0,0.0,0.0,0.0,0.0,0.0,0.0,0.0,0.0,0.0,0.0,0.0,0.0,0.0,0.0,0.0,0.0,0.0,0.0,0.0,0.0,0.0,0.0,0.0,0.0,0.0,0.0,0.0,0.0,0.0,0.0,0.0,0.0,0.0,0.0,0.0,0.0,0.0,0.0,0.0,0.0,0.0,0.0,0.0,0.0,0.0,0.0,0.0,0.0,0.0,0.0,0.0,0.0,0.0,0.0,0.0,0.0,0.0,0.0,0.0,0.0,0.0,0.0,0.0,0.0,0.0,0.0,0.0,0.0,0.0,0.0,0.0,0.0,0.0,0.0,0.0,0.0,0.0,0.0,0.0,0.0,0.0,0.0,0.0,0.0,0.0,0.0,0.0,0.0,0.0,0.0,0.0,0.0,0.0,0.0,0.0,0.0,0.0,0.0,0.0,0.0,0.0,0.0,0.0,0.0,0.0,0.0,0.0,0.0,0.0,0.0,0.0,0.0,0.0,0.0,0.0,0.0,0.0,0.0,0.0,0.0,0.0,0.0,0.0,0.0,0.0,0.0,0.0,0.0,0.0,0.0,0.0,0.0,0.0,0.0,0.0,0.0,0.0,0.0,0.0,0.0,0.0,0.0,0.0,0.0,0.0,0.0,0.0,0.0,0.0,0.0,0.0,0.0,0.0,0.0,0.0,0.0,0.0,0.0,0.0,0.0,0.0,0.0,0.0,0.0,0.0,0.0,0.0,0.0,0.0,0.0,0.0,0.0,0.0,0.0,0.0,0.0,0.0,0.0,0.0,0.0,0.0,0.0,0.0,0.0,0.0,0.0,0.0,0.0,0.0,0.0,0.0,0.0,0.0,0.0,0.0,0.0,0.0,0.0,0.0,0.0,0.0,0.0,0.0,0.0,0.0,5.1741,0.0,0.0,0.0,0.0,0.0,0.0,0.0,0.0,0.0,0.0,0.0,0.0,0.0,0.0,0.0,0.0,0.0,0.0,0.0,0.0,0.0,0.0,0.0,0.0,0.0,0.0,0.0,0.0,0.0,0.0,0.0,0.0,0.0,0.0,0.0,0.0,0.0,0.0,0.0,0.0,0.0,0.0,0.0,0.0,0.0,0.0,0.0,0.0,0.0,0.0,0.0,0.0,0.0,0.0,0.0,0.0,0.0,0.0,0.0,0.0,0.0,0.0,0.0,0.0,0.0,0.0,0.0,0.0,0.0,0.0,0.0,0.0,0.0,0.0,0.0,0.0,0.0,0.0,0.0,0.0,0.0,0.0,0.0,0.0,0.0,0.0,0.0,0.0,0.0,0.0,0.0,0.0,0.0,0.0,0.0,0.0,0.0,0.0,0.0,0.0,0.0,0.0,0.0,0.0,0.0,0.0,0.0,0.0,0.0,0.0,5.4934,5.4511,5.3741,5.2895,5.1933,0.0,0.0,0.0,0.0,0.0,0.0,0.0,0.0,0.0,0.0,0.0,0.0,0.0,0.0,0.0,0.0,0.0,0.0,0.0,0.0,0.0,0.0,0.0,0.0,0.0,0.0,0.0,0.0,0.0,0.0,0.0,0.0,0.0,0.0,0.0,0.0,0.0,0.0,0.0,0.0,0.0,0.0,0.0,0.0,0.0,0.0,0.0,0.0,0.0,0.0,0.0,0.0,0.0,0.0,0.0,0.0,0.0,0.0,0.0,0.0,0.0,0.0,0.0,0.0,0.0,0.0,0.0,0.0,0.0,0.0,0.0,0.0,0.0,0.0,0.0,0.0,0.0,0.0,0.0,0.0,0.0,0.0,0.0,0.0,0.0,0.0,0.0,0.0,0.0,0.0,0.0,0.0,0.0,0.0,0.0,0.0,0.0,0.0,0.0,0.0,0.0,0.0,0.0,0.0,0.0,0.0,0.0,0.0,0.0,0.0,0.0,0.0,5.4587,5.3664,5.1972,0.0,0.0,0.0,0.0,0.0,0.0,0.0,0.0,0.0,0.0,0.0,0.0,0.0,0.0,0.0,0.0,0.0,0.0,0.0,0.0,0.0,0.0,0.0,0.0,0.0,0.0,0.0,0.0,0.0,0.0,0.0,0.0,0.0,0.0,0.0,0.0,0.0,0.0,0.0,0.0,0.0,0.0,0.0,0.0,0.0,0.0,0.0,0.0,0.0,0.0,0.0,0.0,0.0,0.0,0.0,0.0,0.0,0.0,0.0,0.0,0.0,0.0,0.0,0.0,0.0,0.0,0.0,0.0,0.0,0.0,0.0,0.0,0.0,0.0,0.0,0.0,0.0,0.0,0.0,0.0,0.0,0.0,0.0,0.0,0.0,0.0,0.0,0.0,0.0,0.0,0.0,0.0,0.0,0.0,0.0,0.0,0.0,0.0,0.0,0.0,0.0,0.0,0.0,0.0,0.0,0.0,0.0,0.0,0.0,0.0,5.5665,5.5588,5.4895,0.0,5.201,0.0,0.0,0.0,0.0,0.0,0.0,0.0,0.0,0.0,0.0,0.0,0.0,0.0,0.0,0.0,0.0,0.0,0.0,0.0,0.0,0.0,0.0,0.0,0.0,0.0,0.0,0.0,0.0,0.0,0.0,0.0,0.0,0.0,0.0,0.0,0.0,0.0,0.0,0.0,0.0,0.0,0.0,0.0,0.0,0.0,0.0,0.0,0.0,0.0,0.0,0.0,0.0,0.0,0.0,0.0,0.0,0.0,0.0,0.0,0.0,0.0,0.0,0.0,0.0,0.0,0.0,0.0,0.0,0.0,0.0,0.0,0.0,0.0,0.0,0.0,0.0,0.0,0.0,0.0,0.0,0.0,0.0,0.0,0.0,0.0,0.0,0.0,0.0,0.0,0.0,0.0,0.0,0.0,0.0,0.0,0.0,0.0,0.0,0.0,0.0,0.0,0.0,0.0,0.0,0.0,0.0,0.0,0.0,0.0,0.0,5.5703,5.5703,5.4934,5.3933,0.0,0.0,0.0,0.0,0.0,0.0,0.0,0.0,0.0,0.0,0.0,0.0,0.0,0.0,0.0,0.0,0.0,0.0,0.0,0.0,0.0,0.0,0.0,0.0,0.0,0.0,0.0,0.0,0.0,0.0,0.0,0.0,0.0,0.0,0.0,0.0,0.0,0.0,0.0,0.0,0.0,0.0,0.0,0.0,0.0,0.0,0.0,0.0,0.0,0.0,0.0,0.0,0.0,0.0,0.0,0.0,0.0,0.0,0.0,0.0,0.0,0.0,0.0,0.0,0.0,0.0,0.0,0.0,0.0,0.0,0.0,0.0,0.0,0.0,0.0,0.0,0.0,0.0,0.0,0.0,0.0,0.0,0.0,0.0,0.0,0.0,0.0,0.0,0.0,0.0,0.0,0.0,0.0,0.0,0.0,0.0,0.0,0.0,0.0,0.0,0.0,0.0,0.0,0.0,0.0,0.0,0.0,0.0,0.0,0.0,5.5703,5.5703,5.5665,5.4895,5.4087,5.3241,0.0,0.0,0.0,0.0,0.0,0.0,0.0,0.0,0.0,0.0,0.0,0.0,0.0,0.0,0.0,0.0,0.0,0.0,0.0,0.0,0.0,0.0,0.0,0.0,0.0,0.0,0.0,0.0,0.0,0.0,0.0,0.0,0.0,0.0,0.0,0.0,0.0,0.0,0.0,0.0,0.0,0.0,0.0,0.0,0.0,0.0,0.0,0.0,0.0,0.0,0.0,0.0,0.0,0.0,0.0,0.0,0.0,0.0,0.0,0.0,0.0,0.0,0.0,0.0,0.0,0.0,0.0,0.0,0.0,0.0,0.0,0.0,0.0,0.0,0.0,0.0,0.0,0.0,0.0,0.0,0.0,0.0,0.0,0.0,0.0,0.0,0.0,0.0,0.0,0.0,0.0,0.0,0.0,0.0,0.0,0.0,0.0,0.0,0.0,0.0,0.0,0.0,0.0,0.0,0.0,0.0,0.0,0.0,5.5703,5.5703,5.5703,5.5703,5.4934,5.4087,0.0,0.0,0.0,0.0,0.0,0.0,0.0,0.0,0.0,0.0,0.0,0.0,0.0,0.0,0.0,0.0,0.0,0.0,0.0,0.0,0.0,0.0,0.0,0.0,0.0,0.0,0.0,0.0,0.0,0.0,0.0,0.0,0.0,0.0,0.0,0.0,0.0,0.0,0.0,0.0,0.0,0.0,0.0,0.0,0.0,0.0,0.0,0.0,0.0,0.0,0.0,0.0,0.0,0.0,0.0,0.0,0.0,0.0,0.0,0.0,0.0,0.0,0.0,0.0,0.0,0.0,0.0,0.0,0.0,0.0,0.0,0.0,0.0,0.0,0.0,0.0,0.0,0.0,0.0,0.0,0.0,0.0,0.0,0.0,0.0,0.0,0.0,0.0,0.0,0.0,0.0,0.0,0.0,0.0,0.0,0.0,0.0,0.0,0.0,0.0,0.0,0.0,0.0,0.0,0.0,0.0,0.0,0.0,0.0,5.5703,5.5703,5.5703,5.5703,5.5434,5.4626,0.0,0.0,0.0,0.0,0.0,0.0,0.0,0.0,0.0,0.0,0.0,0.0,0.0,0.0,0.0,0.0,0.0,0.0,0.0,0.0,0.0,0.0,0.0,0.0,0.0,0.0,0.0,0.0,0.0,0.0,0.0,0.0,0.0,0.0,0.0,0.0,0.0,0.0,0.0,0.0,0.0,0.0,0.0,0.0,0.0,0.0,0.0,0.0,0.0,0.0,0.0,0.0,0.0,0.0,0.0,0.0,0.0,0.0,0.0,0.0,0.0,0.0,0.0,0.0,0.0,0.0,0.0,0.0,0.0,0.0,0.0,0.0,0.0,0.0,0.0,0.0,0.0,0.0,0.0,0.0,0.0,0.0,0.0,0.0,0.0,0.0,0.0,0.0,0.0,0.0,0.0,0.0,0.0,0.0,0.0,0.0,0.0,0.0,0.0,0.0,0.0,0.0,0.0,0.0,0.0,0.0,0.0,0.0,0.0,5.5703,0.0,5.5703,5.5703,5.5703,5.5049,0.0,0.0,0.0,0.0,0.0,0.0,0.0,0.0,0.0,0.0,0.0,0.0,0.0,0.0,0.0,0.0,0.0,0.0,0.0,0.0,0.0,0.0,0.0,0.0,0.0,0.0,0.0,0.0,0.0,0.0,0.0,0.0,0.0,0.0,0.0,0.0,0.0,0.0,0.0,0.0,0.0,0.0,0.0,0.0,0.0,0.0,0.0,0.0,0.0,0.0,0.0,0.0,0.0,0.0,0.0,0.0,0.0,0.0,0.0,0.0,0.0,0.0,0.0,0.0,0.0,0.0,0.0,0.0,0.0,0.0,0.0,0.0,0.0,0.0,0.0,0.0,0.0,0.0,0.0,0.0,0.0,0.0,0.0,0.0,0.0,0.0,0.0,0.0,0.0,0.0,0.0,0.0,0.0,0.0,0.0,0.0,0.0,0.0,0.0,0.0,0.0,0.0,0.0,0.0,0.0,0.0,0.0,0.0,5.5703,5.5703,5.578,5.5818,5.5742,5.578,5.5357,0.0,0.0,0.0,0.0,0.0,0.0,0.0,0.0,0.0,0.0,0.0,0.0,0.0,0.0,0.0,0.0,0.0,0.0,0.0,0.0,0.0,0.0,0.0,0.0,0.0,0.0,0.0,0.0,0.0,0.0,0.0,0.0,0.0,0.0,0.0,0.0,0.0,0.0,0.0,0.0,0.0,0.0,0.0,0.0,0.0,0.0,0.0,0.0,0.0,0.0,0.0,0.0,0.0,0.0,0.0,0.0,0.0,0.0,0.0,0.0,0.0,0.0,0.0,0.0,0.0,0.0,0.0,0.0,0.0,0.0,0.0,0.0,0.0,0.0,0.0,0.0,0.0,0.0,0.0,0.0,0.0,0.0,0.0,0.0,0.0,0.0,0.0,0.0,0.0,0.0,0.0,0.0,0.0,0.0,0.0,0.0,0.0,0.0,0.0,0.0,0.0,0.0,0.0,0.0,0.0,0.0,0.0,0.0,0.0,5.6626,5.7203,5.7511,5.7473,5.6896,5.6203,0.0,0.0,0.0,0.0,0.0,0.0,0.0,0.0,0.0,0.0,0.0,0.0,0.0,0.0,0.0,0.0,0.0,0.0,0.0,0.0,0.0,0.0,0.0,0.0,0.0,0.0,0.0,0.0,0.0,0.0,0.0,0.0,0.0,0.0,0.0,0.0,0.0,0.0,0.0,0.0,0.0,0.0,0.0,0.0,0.0,0.0,0.0,0.0,0.0,0.0,0.0,0.0,0.0,0.0,0.0,0.0,0.0,0.0,0.0,0.0,0.0,0.0,0.0,0.0,0.0,0.0,0.0,0.0,0.0,0.0,0.0,0.0,0.0,0.0,0.0,0.0,0.0,0.0,0.0,0.0,0.0,0.0,0.0,0.0,0.0,0.0,0.0,0.0,0.0,0.0,0.0,0.0,0.0,0.0,0.0,0.0,0.0,0.0,0.0,0.0,0.0,0.0,0.0,0.0,0.0,0.0,0.0,0.0,0.0,5.8858,5.8781,5.8742,5.8742,5.8204,5.7357,5.6203,0.0,0.0,0.0,0.0,0.0,0.0,0.0,0.0,0.0,0.0,0.0,0.0,0.0,0.0,0.0,0.0,0.0,0.0,0.0,0.0,0.0,0.0,0.0,0.0,0.0,0.0,0.0,0.0,0.0,0.0,0.0,0.0,0.0,0.0,0.0,0.0,0.0,0.0,0.0,0.0,0.0,0.0,0.0,0.0,0.0,0.0,0.0,0.0,0.0,0.0,0.0,0.0,0.0,0.0,0.0,0.0,0.0,0.0,0.0,0.0,0.0,0.0,0.0,0.0,0.0,0.0,0.0,0.0,0.0,0.0,0.0,0.0,0.0,0.0,0.0,0.0,0.0,0.0,0.0,0.0,0.0,0.0,0.0,0.0,0.0,0.0,0.0,0.0,0.0,0.0,0.0,0.0,0.0,0.0,0.0,0.0,0.0,0.0,0.0,0.0,0.0,0.0,0.0,0.0,0.0,0.0,0.0,0.0,6.2204,6.0704,5.9896,5.9819,5.9704,5.8858,0.0,0.0,0.0,0.0,0.0,0.0,0.0,0.0,0.0,0.0,0.0,0.0,0.0,0.0,0.0,0.0,0.0,0.0,0.0,0.0,0.0,0.0,0.0,0.0,0.0,0.0,0.0,0.0,0.0,0.0,0.0,0.0,0.0,0.0,0.0,0.0,0.0,0.0,0.0,0.0,0.0,0.0,0.0,0.0,0.0,0.0,0.0,0.0,0.0,0.0,0.0,0.0,0.0,0.0,0.0,0.0,0.0,0.0,0.0,0.0,0.0,0.0,0.0,0.0,0.0,0.0,0.0,0.0,0.0,0.0,0.0,0.0,0.0,0.0,0.0,0.0,0.0,0.0,0.0,0.0,0.0,0.0,0.0,0.0,0.0,0.0,0.0,0.0,0.0,0.0,0.0,0.0,0.0,0.0,0.0,0.0,0.0,0.0,0.0,0.0,0.0,0.0,0.0,0.0,0.0,0.0,0.0,0.0,0.0,6.3834,6.4128,6.3897,6.3281,6.205,6.0627,0.0,0.0,0.0,0.0,0.0,0.0,0.0,0.0,0.0,0.0,0.0,0.0,0.0,0.0,0.0,0.0,0.0,0.0,0.0,0.0,0.0,0.0,0.0,0.0,0.0,0.0,0.0,0.0,0.0,0.0,0.0,0.0,0.0,0.0,0.0,0.0,0.0,0.0,0.0,0.0,0.0,0.0,0.0,0.0,0.0,0.0,0.0,0.0,0.0,0.0,0.0,0.0,0.0,0.0,0.0,0.0,0.0,0.0,0.0,0.0,0.0,0.0,0.0,0.0,0.0,0.0,0.0,0.0,0.0,0.0,0.0,0.0,0.0,0.0,0.0,0.0,0.0,0.0,0.0,0.0,0.0,0.0,0.0,0.0,0.0,0.0,0.0,0.0,0.0,0.0,0.0,0.0,0.0,0.0,0.0,0.0,0.0,0.0,0.0,0.0,0.0,0.0,0.0,0.0,0.0,0.0,0.0,0.0,6.2589,6.5103,6.6359,6.6705,6.6205,6.4205,6.2166,0.0,0.0,0.0,0.0,0.0,0.0,0.0,0.0,0.0,0.0,0.0,0.0,0.0,0.0,0.0,0.0,0.0,0.0,0.0,0.0,0.0,0.0,0.0,0.0,0.0,0.0,0.0,0.0,0.0,0.0,0.0,0.0,0.0,0.0,0.0,0.0,0.0,0.0,0.0,0.0,0.0,0.0,0.0,0.0,0.0,0.0,0.0,0.0,0.0,0.0,0.0,0.0,0.0,0.0,0.0,0.0,0.0,0.0,0.0,0.0,0.0,0.0,0.0,0.0,0.0,0.0,0.0,0.0,0.0,0.0,0.0,0.0,0.0,0.0,0.0,0.0,0.0,0.0,0.0,0.0,0.0,0.0,0.0,0.0,0.0,0.0,0.0,0.0,0.0,0.0,0.0,0.0,0.0,0.0,0.0,0.0,0.0,0.0,0.0,0.0,0.0,0.0,0.0,0.0,0.0,0.0,0.0,0.0,6.3589,6.6128,6.7705,6.859,6.859,6.6128,6.3551,0.0,0.0,0.0,0.0,0.0,0.0,0.0,0.0,0.0,0.0,0.0,0.0,0.0,0.0,0.0,0.0,0.0,0.0,0.0,0.0,0.0,0.0,0.0,0.0,0.0,0.0,0.0,0.0,0.0,0.0,0.0,0.0,0.0,0.0,0.0,0.0,0.0,0.0,0.0,0.0,0.0,0.0,0.0,0.0,0.0,0.0,0.0,0.0,0.0,0.0,0.0,0.0,0.0,0.0,0.0,0.0,0.0,0.0,0.0,0.0,0.0,0.0,0.0,0.0,0.0,0.0,0.0,0.0,0.0,0.0,0.0,0.0,0.0,0.0,0.0,0.0,0.0,0.0,0.0,0.0,0.0,0.0,0.0,0.0,0.0,0.0,0.0,0.0,0.0,0.0,0.0,0.0,0.0,0.0,0.0,0.0,0.0,0.0,0.0,0.0,0.0,0.0,0.0,0.0,0.0,0.0,0.0,0.0,6.5295,6.7806,6.8871,6.9744,7.036,6.7282,6.4436,0.0,0.0,0.0,0.0,0.0,0.0,0.0,0.0,0.0,0.0,0.0,0.0,0.0,0.0,0.0,0.0,0.0,0.0,0.0,0.0,0.0,0.0,0.0,0.0,0.0,0.0,0.0,0.0,0.0,0.0,0.0,0.0,0.0,0.0,0.0,0.0,0.0,0.0,0.0,0.0,0.0,0.0,0.0,0.0,0.0,0.0,0.0,0.0,5.5792,0.0,0.0,0.0,0.0,0.0,0.0,0.0,0.0,0.0,0.0,0.0,0.0,0.0,0.0,0.0,0.0,0.0,0.0,0.0,0.0,0.0,0.0,0.0,0.0,0.0,0.0,0.0,0.0,0.0,0.0,0.0,0.0,0.0,0.0,0.0,0.0,0.0,0.0,0.0,0.0,0.0,0.0,0.0,0.0,0.0,0.0,0.0,0.0,0.0,0.0,0.0,0.0,0.0,0.0,0.0,0.0,0.0,0.0,0.0,6.6026,6.8905,6.9833,7.0475,7.0783,6.8398,6.5859,0.0,0.0,0.0,0.0,0.0,0.0,0.0,0.0,0.0,0.0,0.0,0.0,0.0,0.0,0.0,0.0,0.0,0.0,0.0,0.0,0.0,0.0,0.0,0.0,0.0,0.0,0.0,0.0,0.0,0.0,0.0,0.0,0.0,0.0,0.0,0.0,0.0,0.0,0.0,0.0,0.0,0.0,0.0,0.0,0.0,0.0,0.0,0.0,0.0,0.0,0.0,0.0,0.0,0.0,0.0,0.0,0.0,0.0,0.0,0.0,0.0,0.0,0.0,0.0,0.0,0.0,0.0,0.0,0.0,0.0,0.0,0.0,0.0,0.0,0.0,0.0,0.0,0.0,0.0,0.0,0.0,0.0,0.0,0.0,0.0,0.0,0.0,0.0,0.0,0.0,0.0,0.0,0.0,0.0,0.0,0.0,0.0,0.0,0.0,0.0,0.0,0.0,0.0,0.0,0.0,0.0,0.0,6.4268,6.6795,6.9942,7.0871,7.1321,7.1283,6.9552,6.7398,6.4859,0.0,0.0,0.0,0.0,0.0,0.0,0.0,0.0,0.0,0.0,0.0,0.0,0.0,0.0,0.0,0.0,0.0,0.0,0.0,0.0,0.0,0.0,0.0,0.0,0.0,0.0,0.0,0.0,0.0,0.0,0.0,0.0,0.0,0.0,0.0,0.0,0.0,0.0,5.4754,5.5743,0.0,0.0,0.0,0.0,0.0,0.0,0.0,0.0,5.7901,0.0,0.0,0.0,0.0,0.0,0.0,0.0,0.0,0.0,0.0,0.0,0.0,0.0,0.0,0.0,0.0,0.0,0.0,0.0,0.0,0.0,0.0,0.0,0.0,0.0,0.0,0.0,0.0,0.0,0.0,0.0,0.0,0.0,0.0,0.0,0.0,0.0,0.0,0.0,0.0,0.0,0.0,0.0,0.0,0.0,0.0,0.0,0.0,0.0,0.0,0.0,0.0,0.0,0.0,0.0,0.0,6.417,6.6538,6.9064,7.1727,7.264,7.3091,7.3014,7.0744,6.8282,6.5743,0.0,0.0,0.0,0.0,0.0,0.0,0.0,0.0,0.0,0.0,0.0,0.0,0.0,0.0,0.0,0.0,0.0,0.0,0.0,0.0,0.0,0.0,0.0,0.0,0.0,0.0,0.0,0.0,0.0,0.0,0.0,0.0,0.0,0.0,0.0,0.0,0.0,0.0,0.0,5.6749,5.7211,0.0,0.0,0.0,0.0,0.0,0.0,0.0,0.0,5.873,0.0,0.0,0.0,0.0,0.0,0.0,0.0,0.0,0.0,0.0,0.0,0.0,0.0,0.0,0.0,0.0,0.0,0.0,0.0,0.0,0.0,0.0,0.0,0.0,0.0,0.0,0.0,0.0,0.0,0.0,0.0,0.0,0.0,0.0,0.0,0.0,0.0,0.0,0.0,0.0,0.0,0.0,0.0,0.0,0.0,0.0,0.0,0.0,0.0,0.0,0.0,0.0,0.0,0.0,0.0,6.5177,6.7346,6.9833,7.2794,7.3678,7.3937,7.3476,7.1437,6.8936,0.0,0.0,0.0,0.0,0.0,0.0,0.0,0.0,0.0,0.0,0.0,0.0,0.0,0.0,0.0,0.0,0.0,0.0,0.0,0.0,0.0,0.0,0.0,0.0,0.0,0.0,0.0,0.0,0.0,0.0,0.0,0.0,0.0,0.0,0.0,0.0,0.0,0.0,0.0,0.0,5.7655,5.8305,5.8486,0.0,0.0,0.0,0.0,0.0,0.0,6.0531,6.0436,0.0,0.0,0.0,0.0,0.0,0.0,0.0,0.0,0.0,0.0,0.0,0.0,0.0,0.0,0.0,0.0,0.0,0.0,0.0,0.0,0.0,0.0,0.0,0.0,0.0,0.0,0.0,0.0,0.0,0.0,0.0,0.0,0.0,0.0,0.0,0.0,0.0,0.0,0.0,0.0,0.0,0.0,0.0,0.0,0.0,0.0,0.0,0.0,0.0,0.0,0.0,0.0,0.0,0.0,0.0,6.5846,6.8052,7.0514,7.314,7.4361,7.4399,7.3283,7.1745,6.9321,0.0,0.0,0.0,0.0,0.0,0.0,0.0,0.0,0.0,0.0,0.0,0.0,0.0,0.0,0.0,0.0,0.0,0.0,0.0,0.0,0.0,0.0,0.0,0.0,0.0,0.0,0.0,0.0,0.0,0.0,0.0,0.0,0.0,0.0,0.0,0.0,0.0,0.0,0.0,0.0,0.0,5.9246,5.905,5.9678,0.0,0.0,0.0,0.0,6.2406,6.2468,0.0,0.0,0.0,0.0,0.0,0.0,0.0,0.0,0.0,0.0,0.0,0.0,0.0,0.0,0.0,0.0,0.0,0.0,0.0,0.0,0.0,0.0,0.0,0.0,0.0,0.0,0.0,0.0,0.0,0.0,0.0,0.0,0.0,0.0,0.0,0.0,0.0,0.0,0.0,0.0,0.0,0.0,0.0,0.0,0.0,0.0,0.0,0.0,0.0,0.0,0.0,0.0,0.0,0.0,0.0,0.0,6.5947,6.9771,7.1975,7.2447,7.4639,7.4707,7.2437,7.1398,6.9321,0.0,0.0,0.0,0.0,0.0,0.0,0.0,0.0,0.0,0.0,0.0,0.0,0.0,0.0,0.0,0.0,0.0,0.0,0.0,0.0,0.0,0.0,0.0,0.0,0.0,0.0,0.0,0.0,0.0,0.0,0.0,0.0,0.0,0.0,0.0,0.0,0.0,0.0,0.0,0.0,0.0,5.9769,6.1198,6.1098,6.0958,0.0,0.0,0.0,6.2144,6.3441,0.0,0.0,0.0,0.0,0.0,0.0,0.0,0.0,0.0,0.0,0.0,0.0,0.0,0.0,0.0,0.0,0.0,0.0,0.0,0.0,0.0,0.0,0.0,0.0,0.0,0.0,0.0,0.0,0.0,0.0,0.0,0.0,0.0,0.0,0.0,0.0,0.0,0.0,0.0,0.0,0.0,0.0,0.0,0.0,0.0,0.0,0.0,0.0,0.0,0.0,0.0,0.0,0.0,0.0,0.0,6.5128,6.7346,7.0552,7.2668,7.3601,7.5168,7.5245,7.363,7.186,6.9783,0.0,0.0,0.0,0.0,0.0,0.0,0.0,0.0,0.0,0.0,0.0,0.0,0.0,0.0,0.0,0.0,0.0,0.0,0.0,0.0,0.0,0.0,0.0,0.0,0.0,0.0,0.0,0.0,0.0,0.0,0.0,0.0,0.0,0.0,0.0,0.0,0.0,0.0,0.0,0.0,0.0,0.0,6.1066,6.1698,0.0,0.0,0.0,6.4397,6.4935,0.0,0.0,0.0,0.0,0.0,0.0,0.0,0.0,0.0,0.0,0.0,0.0,0.0,0.0,0.0,0.0,0.0,0.0,0.0,0.0,0.0,0.0,0.0,0.0,0.0,0.0,0.0,0.0,0.0,0.0,0.0,0.0,0.0,0.0,0.0,0.0,0.0,0.0,0.0,0.0,0.0,0.0,0.0,0.0,0.0,0.0,0.0,0.0,0.0,0.0,0.0,0.0,0.0,0.0,0.0,0.0,0.0,6.8398,7.1321,7.3437,7.4707,7.5976,7.6015,7.4745,7.2629,0.0,0.0,0.0,0.0,0.0,0.0,0.0,0.0,0.0,0.0,0.0,0.0,0.0,0.0,0.0,0.0,0.0,0.0,0.0,0.0,0.0,0.0,0.0,0.0,0.0,0.0,0.0,0.0,0.0,0.0,0.0,0.0,0.0,0.0,0.0,0.0,0.0,0.0,0.0,0.0,0.0,0.0,6.2842,6.2034,6.3198,6.4224,0.0,0.0,6.6036,6.7127,6.6786,6.6144,0.0,0.0,0.0,0.0,0.0,0.0,0.0,0.0,0.0,0.0,0.0,0.0,0.0,0.0,0.0,0.0,0.0,0.0,0.0,0.0,0.0,0.0,0.0,0.0,0.0,0.0,0.0,0.0,0.0,0.0,0.0,0.0,0.0,0.0,0.0,0.0,0.0,0.0,0.0,0.0,0.0,0.0,0.0,0.0,0.0,0.0,0.0,0.0,0.0,0.0,0.0,0.0,0.0,0.0,0.0,6.8448,7.2437,7.4562,7.4793,7.7092,7.7169,7.4784,7.3822,7.1783,0.0,0.0,0.0,0.0,0.0,0.0,0.0,0.0,0.0,0.0,0.0,0.0,0.0,0.0,0.0,0.0,0.0,0.0,0.0,0.0,0.0,0.0,0.0,0.0,0.0,0.0,0.0,0.0,0.0,0.0,0.0,0.0,0.0,0.0,0.0,0.0,0.0,0.0,0.0,0.0,0.0,6.453,6.5888,6.6468,6.6861,0.0,0.0,6.6955,6.7165,6.8223,6.8071,6.5407,0.0,0.0,0.0,0.0,0.0,0.0,0.0,0.0,0.0,0.0,0.0,0.0,0.0,0.0,0.0,0.0,0.0,0.0,0.0,0.0,0.0,0.0,0.0,0.0,0.0,0.0,0.0,0.0,0.0,0.0,0.0,0.0,0.0,0.0,0.0,0.0,0.0,0.0,0.0,0.0,0.0,0.0,0.0,0.0,0.0,0.0,0.0,0.0,0.0,0.0,0.0,0.0,0.0,6.7244,6.9925,7.3053,7.5216,7.6301,7.7746,7.7784,7.6322,7.4976,7.2899,0.0,0.0,0.0,0.0,0.0,0.0,0.0,0.0,0.0,0.0,0.0,0.0,0.0,0.0,0.0,0.0,0.0,0.0,0.0,0.0,0.0,0.0,0.0,0.0,0.0,0.0,0.0,0.0,5.425,5.4332,5.4322,0.0,0.0,0.0,0.0,0.0,0.0,0.0,0.0,0.0,0.0,6.6549,6.7136,6.7704,0.0,0.0,6.8435,6.8662,6.8975,6.9209,6.8754,6.7184,6.6254,0.0,0.0,0.0,0.0,0.0,0.0,0.0,0.0,0.0,0.0,0.0,0.0,0.0,0.0,0.0,0.0,0.0,0.0,0.0,0.0,0.0,0.0,0.0,0.0,0.0,0.0,0.0,0.0,0.0,0.0,0.0,0.0,0.0,0.0,0.0,0.0,0.0,0.0,0.0,0.0,0.0,0.0,0.0,0.0,0.0,0.0,0.0,0.0,0.0,0.0,0.0,0.0,6.8193,7.126,7.4081,7.6322,7.8023,7.8861,7.8861,7.8054,7.6361,7.4284,0.0,0.0,0.0,0.0,0.0,0.0,0.0,0.0,0.0,0.0,0.0,0.0,0.0,0.0,0.0,0.0,0.0,0.0,0.0,0.0,0.0,0.0,0.0,0.0,0.0,0.0,0.0,0.0,5.5691,5.5565,5.5201,0.0,0.0,0.0,0.0,0.0,0.0,0.0,0.0,0.0,0.0,6.8439,6.8492,6.9088,6.9415,6.9378,6.9457,6.974,7.0342,6.9921,6.9319,6.8693,0.0,0.0,0.0,0.0,0.0,0.0,0.0,0.0,0.0,0.0,0.0,0.0,0.0,0.0,0.0,0.0,0.0,0.0,0.0,0.0,0.0,0.0,0.0,0.0,0.0,0.0,0.0,0.0,0.0,0.0,0.0,0.0,0.0,0.0,0.0,0.0,0.0,0.0,0.0,0.0,0.0,0.0,0.0,0.0,0.0,0.0,0.0,0.0,0.0,0.0,0.0,0.0,0.0,0.0,7.2172,7.5466,7.8015,7.9669,8.0592,8.0592,7.9708,7.813,7.6053,7.3476,0.0,0.0,0.0,0.0,0.0,0.0,0.0,0.0,0.0,0.0,0.0,0.0,0.0,0.0,0.0,0.0,0.0,0.0,0.0,0.0,0.0,0.0,0.0,0.0,0.0,0.0,5.5692,5.5908,5.6027,0.0,0.0,0.0,0.0,0.0,0.0,0.0,0.0,0.0,0.0,6.8054,7.0147,7.0417,7.0859,7.1058,7.0871,7.0154,6.9927,7.0825,7.047,6.9928,0.0,0.0,0.0,0.0,0.0,0.0,0.0,0.0,0.0,0.0,0.0,0.0,0.0,0.0,0.0,0.0,0.0,0.0,0.0,0.0,0.0,0.0,0.0,0.0,0.0,0.0,0.0,0.0,0.0,0.0,0.0,0.0,0.0,0.0,0.0,0.0,0.0,0.0,0.0,0.0,6.4628,6.4908,0.0,0.0,0.0,0.0,0.0,0.0,0.0,0.0,0.0,0.0,0.0,0.0,6.9925,7.302,7.5851,7.813,7.9754,8.0669,8.0669,7.9823,7.9246,7.7246,7.3591,0.0,0.0,0.0,0.0,0.0,0.0,0.0,0.0,0.0,0.0,0.0,0.0,0.0,0.0,0.0,0.0,0.0,0.0,0.0,0.0,0.0,0.0,0.0,0.0,0.0,5.7559,0.0,0.0,0.0,0.0,0.0,0.0,0.0,0.0,0.0,0.0,0.0,6.6099,6.8446,7.0233,7.1574,7.2392,7.2548,7.2633,0.0,0.0,0.0,0.0,0.0,0.0,0.0,0.0,0.0,0.0,0.0,0.0,0.0,0.0,6.8013,6.6898,6.6705,6.7128,6.8513,0.0,0.0,0.0,0.0,0.0,0.0,0.0,0.0,0.0,0.0,0.0,0.0,0.0,0.0,0.0,0.0,6.3435,0.0,0.0,0.0,0.0,0.0,0.0,0.0,0.0,6.5782,6.6359,6.7205,6.7218,6.7346,0.0,6.7628,6.6936,0.0,0.0,0.0,0.0,0.0,0.0,0.0,0.0,7.1118,7.3878,7.6429,7.8554,8.0177,8.0823,8.0823,8.0246,7.9669,7.763,7.4014,7.0975,6.8129,0.0,0.0,0.0,0.0,0.0,0.0,0.0,0.0,0.0,0.0,0.0,0.0,0.0,0.0,0.0,0.0,0.0,0.0,0.0,0.0,0.0,0.0,0.0,5.9773,0.0,0.0,0.0,0.0,0.0,0.0,0.0,0.0,0.0,6.377,6.5866,6.8195,7.0317,7.171,7.2758,7.3266,0.0,0.0,0.0,0.0,0.0,0.0,0.0,7.3678,7.3111,7.3293,7.3322,7.2783,7.2668,7.2668,7.2668,0.0,0.0,6.9706,6.9283,6.9706,7.1091,7.0937,7.0821,7.1629,7.1783,7.1783,0.0,0.0,0.0,0.0,0.0,0.0,0.0,0.0,6.6128,6.6128,0.0,6.609,0.0,0.0,0.0,0.0,0.0,0.0,0.0,0.0,6.8205,6.9013,6.9821,6.9925,7.031,7.1014,7.1052,7.0667,6.9744,6.6602,0.0,0.0,0.0,0.0,0.0,0.0,7.3091,7.4812,7.7246,7.9361,8.1016,8.1093,8.1093,8.1054,7.9438,7.74,7.4976,7.3937,7.1552,6.7475,6.6397,0.0,0.0,0.0,0.0,0.0,0.0,0.0,0.0,0.0,0.0,0.0,0.0,0.0,0.0,0.0,0.0,0.0,0.0,0.0,0.0,6.1089,0.0,0.0,0.0,0.0,0.0,0.0,0.0,0.0,0.0,0.0,6.5274,6.8284,7.0717,7.0842,0.0,0.0,0.0,0.0,7.3646,7.3212,7.3322,7.3581,7.3678,7.4361,7.4822,7.4861,0.0,0.0,7.6053,7.6053,7.6015,7.6053,7.6053,7.5091,7.1898,7.1206,7.1398,7.2322,7.2437,7.2591,7.3399,7.3707,7.3668,7.2272,0.0,0.0,0.0,0.0,6.9448,6.9821,7.0398,7.0398,7.0398,7.036,6.9744,0.0,0.0,0.0,0.0,0.0,0.0,7.0151,7.0783,7.1668,7.2476,7.3283,7.3889,7.4312,7.4514,7.4553,7.4437,7.413,7.2601,7.0409,6.7744,0.0,0.0,0.0,0.0,7.4822,7.6544,7.8438,7.9977,8.1054,8.1093,8.1093,8.1093,8.0015,7.8784,7.7438,7.5438,7.3245,7.0821,6.8193,0.0,0.0,0.0,0.0,0.0,0.0,0.0,0.0,0.0,0.0,0.0,0.0,0.0,0.0,0.0,0.0,0.0,0.0,0.0,6.1204,6.232,6.318,0.0,0.0,0.0,0.0,0.0,0.0,0.0,0.0,0.0,7.096,7.1058,7.1733,0.0,0.0,7.5329,7.5431,7.6161,7.6685,7.6667,0.0,0.0,0.0,7.7246,7.74,7.74,7.7592,7.7784,7.7784,7.7784,7.7784,7.7784,7.8284,7.8361,7.7438,7.5245,7.4476,7.6015,7.5284,7.4553,7.5861,7.6207,7.6207,7.5592,7.338,7.2688,7.2582,7.2851,7.2563,7.2899,7.3707,7.3707,7.3707,7.3668,7.3157,7.2734,7.236,7.1541,0.0,0.0,0.0,7.288,7.3707,7.4245,7.4938,7.5745,7.6236,7.6659,7.6976,7.6985,7.6793,7.6506,7.6015,7.4293,7.1486,0.0,0.0,7.2476,7.4938,7.6899,7.8276,7.9631,8.0708,8.1554,8.1285,8.1093,8.1093,8.0592,7.99,7.9015,7.7207,7.513,7.2783,7.0437,6.7667,0.0,0.0,0.0,0.0,0.0,0.0,0.0,0.0,0.0,0.0,0.0,5.7088,0.0,0.0,0.0,0.0,6.1166,6.2474,6.3512,6.4936,0.0,0.0,0.0,0.0,0.0,0.0,0.0,7.1532,7.4216,7.597,7.5703,7.5311,7.5183,7.548,7.6224,7.6998,7.7531,0.0,7.8688,7.8755,7.8891,7.8954,7.9015,7.9285,7.9746,8.04,8.0516,8.0516,8.0516,8.0516,8.0516,8.0554,8.0669,8.09,8.1246,7.9054,7.7515,7.8707,7.7515,7.6669,7.7592,7.7746,7.7784,7.8207,7.7354,7.5763,7.5533,7.6109,7.5332,7.5438,7.6169,7.6207,7.6207,7.6207,7.6121,7.5659,7.4889,7.4225,0.0,0.0,7.4666,7.5456,7.6207,7.6284,7.6707,7.7476,7.7583,7.8006,7.8707,7.8685,7.8331,7.7622,7.7515,7.71,7.6263,7.5562,7.513,7.5053,7.7438,7.9092,7.99,8.0823,8.1631,8.2247,8.1516,8.1093,8.1093,8.1016,8.0631,7.9823,7.89,7.6899,7.3783,7.264,7.0256,6.6244,0.0,0.0,0.0,0.0,0.0,0.0,0.0,0.0,0.0,0.0,0.0,0.0,0.0,0.0,0.0,6.4589,0.0,6.6359,6.859,0.0,0.0,0.0,7.2467,7.2582,7.3906,7.5079,7.5742,0.0,0.0,0.0,0.0,8.001,7.814,7.8177,7.8696,7.9501,7.9934,8.0061,8.0114,8.01,8.0131,8.0285,8.0823,8.1747,8.3016,8.3593,8.3439,8.3516,8.3555,8.3632,8.367,8.3131,8.2824,8.3632,8.2362,8.117,8.0439,7.9361,7.8554,7.8592,7.8592,7.8592,7.9999,7.9146,7.8746,7.8323,7.79,7.7707,7.7707,7.79,7.79,7.79,7.7861,7.7237,7.6871,7.6696,7.7102,7.7314,7.7331,7.7531,7.7685,7.7938,7.8592,7.9015,7.9246,7.9862,8.0285,8.0477,8.0516,8.04,8.0169,7.9546,7.9092,7.8946,7.9361,7.8592,7.6861,7.9208,8.0592,8.0785,8.2247,8.2785,8.2285,8.1516,8.1093,8.1093,8.0477,8.0015,7.9785,7.8361,7.6592,7.4514,7.2342,6.9882,6.6936,6.5205,0.0,0.0,0.0,0.0,0.0,0.0,0.0,0.0,0.0,6.0589,6.1396,0.0,6.3551,0.0,6.632,6.859,7.0514,7.186,0.0,0.0,7.4861,7.5562,7.6831,7.7331,7.7578,7.7745,7.9786,8.1052,8.0591,8.1858,8.2625,8.2165,8.1517,8.1176,8.1512,8.2221,8.267,8.2638,8.2631,8.2708,8.267,8.2824,8.3208,8.3516,8.3632,8.3824,8.4478,8.4593,8.4786,8.5363,8.5363,8.5324,8.5478,8.467,8.4016,8.3555,8.1477,7.9477,7.9477,7.9515,7.9477,8.0931,7.9883,8.0592,8.0392,7.9546,7.8468,7.84,7.9054,7.9092,7.9285,7.9592,7.8784,7.8391,7.8412,7.8468,7.8707,7.9062,7.9069,7.9292,7.9669,8.0169,8.0362,8.04,8.0862,8.1093,8.1093,8.1093,8.1093,8.1054,8.0623,8.0392,8.0431,8.1208,8.0939,7.9669,8.1708,8.2785,8.2785,8.3708,8.3555,8.2324,8.1516,8.1093,8.1054,7.99,7.94,7.9785,7.8207,7.6476,7.4784,7.3024,7.0909,6.8398,6.7025,6.5872,0.0,0.0,0.0,0.0,0.0,0.0,0.0,0.0,0.0,0.0,0.0,6.6782,0.0,0.0,0.0,7.3707,7.4976,7.6245,7.7553,7.8361,7.9169,8.0092,8.0516,8.09,8.126,8.2529,8.3336,8.3259,8.4066,8.4835,8.5209,8.4796,8.4148,8.3605,8.4138,8.4593,8.4247,8.417,8.4324,8.4632,8.5363,8.5863,8.5863,8.5863,8.6055,8.6517,8.6594,8.6748,8.7171,8.7248,8.7248,8.7209,8.6555,8.594,8.5247,8.367,8.2093,8.1593,8.117,8.0939,8.16,8.0433,8.1715,8.1847,8.0923,7.8468,7.8477,8.0131,8.0015,8.04,8.1054,8.0292,7.9984,7.9908,7.9069,7.9069,7.9792,7.9677,8.0023,8.0746,8.09,8.0939,8.0939,8.1054,8.1093,8.1093,8.1093,8.1093,8.1093,8.0977,8.1047,8.127,8.197,8.2401,8.267,8.4247,8.5055,8.5055,8.4939,8.4093,8.2516,8.167,8.1208,8.1054,7.9515,7.8977,7.9554,7.813,7.6476,7.4822,7.3937,7.2437,7.0167,6.9206,6.8398,0.0,6.6898,0.0,0.0,0.0,0.0,0.0,0.0,0.0,0.0,6.8936,7.0129,7.2629,7.3553,7.4707,7.6476,7.8054,7.94,8.0362,8.1747,8.2631,8.267,8.3208,8.3901,8.467,8.4824,8.517,8.567,8.6017,8.6401,8.7055,8.7325,8.6863,8.5786,8.6017,8.6209,8.5478,8.5401,8.5824,8.6401,8.7632,8.8479,8.8556,8.844,8.8671,8.8517,8.8671,8.8825,8.8825,8.8786,8.8825,8.8825,8.8132,8.7286,8.644,8.5478,8.4555,8.3632,8.2862,8.2516,8.317,8.2842,8.2439,8.1816,8.0939,7.9054,7.9631,8.1785,8.1131,8.0939,8.1093,8.0939,8.0862,8.0785,7.9946,7.9638,7.9777,7.9054,7.8823,7.9015,7.9708,8.0054,8.0092,8.0785,8.1093,8.1093,8.1093,8.1093,8.1093,8.0362,8.0746,8.2054,8.2247,8.3016,0.0,0.0,0.0,0.0,8.5247,8.4401,8.3362,8.2516,8.1747,8.1131,8.0092,0.0,7.8746,7.7823,7.6515,7.4784,7.3937,0.0,0.0,0.0,0.0,0.0,0.0,0.0,0.0,0.0,0.0,0.0,7.2168,7.1437,7.0552,7.1706,7.3591,7.6053,7.6476,7.7553,7.99,8.1016,8.2208,8.3747,8.4209,8.4401,8.4401,8.3939,8.367,8.3824,8.4478,8.4978,8.517,8.5709,8.644,8.7325,8.8017,8.8286,8.8055,8.8055,8.8094,8.7979,8.7786,8.7979,8.8171,8.8517,8.8825,8.8671,8.8671,8.8709,8.8786,8.9286,8.9671,8.9671,8.9671,8.9671,8.9671,8.9017,8.8171,8.7325,8.6478,8.5401,8.3939,8.3478,8.3362,8.4324,0.0,8.4016,8.3478,0.0,8.1362,8.1977,8.3478,8.1823,8.1323,8.1701,8.167,8.1477,8.1093,8.0638,8.0439,8.0423,7.9999,7.9777,7.9823,8.0246,8.0439,8.0477,8.09,8.1093,8.1093,8.1516,8.1708,8.1708,8.167,8.2131,8.2945,8.3785,8.4401,8.4901,8.5709,8.6094,8.6094,8.5324,8.4478,8.3593,8.2362,8.1516,8.1093,0.0,0.0,0.0,0.0,0.0,0.0,0.0,0.0,0.0,0.0,0.0,7.3437,7.3399,7.363,7.4014,7.4053,7.4591,7.5861,7.5976,7.5438,7.413,7.563,7.7323,7.8977,7.9169,8.0208,8.267,8.2978,8.3632,8.5247,8.5517,8.5478,8.5478,8.5093,8.4824,8.4863,8.5247,8.5517,8.5478,8.5824,8.6632,8.7825,8.8402,8.9017,8.971,8.9556,8.9171,8.8786,8.9094,8.9286,8.9325,8.971,8.9902,8.9902,8.9556,8.9325,8.9286,8.9633,8.9902,8.994,9.0248,9.0556,9.0479,8.9863,8.9056,8.8209,8.7363,8.6363,8.5093,8.4516,8.4247,8.5318,8.4181,8.5522,8.5209,8.3824,8.3632,8.417,8.4978,0.0,0.0,0.0,8.2401,8.1939,8.1285,8.117,8.1085,8.1077,8.1077,8.1085,8.1093,8.1093,8.117,8.1323,8.1323,8.14,8.1554,8.2208,8.2522,8.2561,8.3247,8.3747,8.4138,8.544,8.5863,8.5401,8.6017,8.6247,8.6094,8.544,8.467,8.3824,8.2477,8.1708,8.1554,8.0169,7.9669,8.0208,7.9554,7.8784,7.8015,7.7852,7.7506,7.6938,7.6754,7.6677,7.6669,7.6669,7.6899,7.7476,7.7515,7.7938,7.89,7.9092,7.8784,7.7823,7.9131,8.04,8.1246,8.1439,8.2477,8.467,8.4401,8.4593,8.5978,8.6247,8.6286,8.6132,8.6094,8.6017,8.6094,8.6055,8.6094,8.6094,8.6247,8.6863,8.8325,8.8825,8.944,9.071,9.0556,8.994,8.9479,8.9825,9.0133,9.021,9.0633,9.1171,9.1018,9.0556,9.0133,8.9979,9.0017,9.0056,8.994,9.0633,9.1056,9.1133,9.0594,8.9863,8.9056,8.8209,8.7363,8.6517,8.567,8.5132,8.5973,8.5757,8.5983,8.5593,8.4676,8.3907,8.4478,8.5824,8.4824,8.4401,8.4433,8.2939,8.2247,8.2086,8.14,8.1061,8.11,8.1068,8.11,0.0,8.1093,8.1477,8.2131,8.2163,8.2547,8.3208,8.3362,8.3439,8.3407,8.3555,8.4324,8.5599,8.5983,8.644,8.7017,8.7171,8.6824,8.6132,8.5978,8.5555,8.4747,8.4478,8.4016,8.3285,8.2978,8.2554,8.1977,8.1785,8.14,8.0592,7.9823,7.9708,8.0323,7.9677,7.9254,7.9285,7.9285,7.8977,7.84,7.8323,7.9015,8.0592,8.1362,8.1131,7.9631,8.0362,8.1246,8.2054,8.2785,8.367,8.4786,8.5401,8.5786,8.617,8.6786,8.694,8.6286,8.617,8.617,8.6247,8.6094,8.617,8.6324,8.6786,8.7555,8.8556,8.9363,9.0094,9.0902,9.1095,9.0979,9.0864,9.0941,9.1018,9.0941,9.1056,9.121,9.121,9.1056,9.0594,9.0017,9.0402,9.0594,9.0056,9.071,9.1171,9.1248,9.1133,9.0633,8.9863,8.9017,8.8248,8.7401,8.6555,8.6017,8.6517,8.618,8.6632,8.6324,8.5483,8.5132,8.567,8.6748,8.644,8.5978,8.5478,8.467,8.3856,8.3002,8.2586,8.217,8.176,8.2221,8.2484,8.2477,8.2939,8.3362,8.367,8.3702,8.3702,8.367,8.4093,8.4291,8.433,8.4747,8.5363,8.6099,8.6594,8.7478,8.8632,8.8325,8.7671,8.6824,8.5901,8.5286,8.4907,8.4439,8.3978,8.3593,8.3593,8.3439,8.3016,8.3016,8.2824,8.2477,8.2093,8.2054,8.2401,8.2061,8.183,8.1862,8.1862,8.1708,8.1285,8.1246,8.1593,8.2362,8.2785,8.2708,8.1939,8.267,8.3324,8.367,8.4093,8.4863,8.6094,8.617,8.6478,8.744,8.7478,8.744,8.7478,8.7055,8.6978,8.7401,8.7517,8.7517,8.7517,8.7863,8.8402,8.9248,9.0094,9.0748,9.1133,9.121,9.121,9.121,9.121,9.121,9.121,9.121,9.121,9.121,9.0787,9.0364,8.9979,9.0325,9.0517,9.0671,9.1325,9.1825,9.1902,9.1902,9.1325,9.0171,8.9671,8.9017,8.8286,8.7748,8.7401,8.7473,8.6791,8.7594,8.7478,8.6709,8.6671,8.7171,8.794,8.794,8.7594,8.6978,8.6401,8.5395,8.4234,8.3965,8.3548,8.3061,8.3984,8.4445,8.4516,8.517,8.5555,8.567,8.5395,8.4933,8.4522,8.4945,8.5176,8.5253,8.5824,8.6324,8.6709,8.7555,8.8632,8.9863,8.9286,8.844,8.7406,8.6324,8.5555,8.5176,8.4516,8.4247,8.4439,8.4478,8.4439,8.4439,8.4632,8.4555,8.4209,8.417,8.417,8.417,8.417,8.4093,8.3939,8.4055,8.3978,8.3632,8.3785,8.3978,8.4132,8.417,8.4247,8.4478,8.4863,8.5093,8.4978,8.5016,8.5709,8.6748,8.694,8.7171,8.8248,8.8171,8.8209,8.8517,8.8094,8.7902,8.8556,8.8671,8.8632,8.8709,8.8863,8.9325,9.0094,9.0787,9.1171,9.121,9.121,9.121,9.121,9.121,9.121,9.121,9.121,9.121,9.121,9.071,9.0402,9.0325,9.0364,9.071,9.1441,9.2172,9.2672,9.2749,9.2556,9.1979,9.0864,9.0248,8.9594,8.8825,8.8825,8.8748,8.9195,8.8623,8.9248,8.9213,8.8406,8.8402,8.8825,8.9556,8.9671,8.9636,8.9213,8.7132,8.6094,8.5786,8.5126,8.478,8.4791,8.6324,8.6978,8.6978,8.7132,8.7594,8.8094,8.6775,8.6357,8.6786,8.6286,8.5901,8.594,8.6055,8.6901,8.8363,8.9286,8.971,8.9902,8.9825,8.9017,8.7445,8.8055,8.7594,8.6094,8.5901,8.6247,8.7055,8.7017,8.7055,8.694,8.7825,8.7478,8.6055,8.5863,8.5863,8.5863,8.5863,8.5555,8.4939,8.5478,8.5247,8.3901,8.4324,8.5132,8.5786,8.5824,8.6132,8.6786,8.6324,8.567,8.5209,8.5593,8.6055,8.6324,8.7478,8.8132,8.7902,8.8786,8.944,8.8863,8.8632,8.8632,8.8671,8.8825,8.8709,8.894,8.9402,9.0133,9.0825,9.1056,9.121,9.121,9.121,9.121,9.121,9.121,9.1248,9.1287,9.121,9.1248,9.1248,9.1171,9.0979,9.1018,9.1556,9.2287,9.2095,9.2941,9.3441,9.3249,9.3056,9.2441,9.1748,9.0825,8.9748,8.9056,8.9325,8.9633,8.9013,8.8743,8.906,8.9021,8.8714,8.8671,8.8863,8.921,8.971,8.9902,8.9787,8.8786,8.8055,8.7589,8.6742,8.6363,8.6445,8.7598,8.8137,8.8286,8.9171,8.9594,8.9286,8.8209,8.7594,8.7325,8.6517,8.6094,8.617,8.6632,8.7517,8.8671,8.9517,9.0133,9.0633,9.0671,9.0094,8.8944,8.9248,8.8863,8.7752,8.7137,8.7017,8.7363,8.7401,8.7671,8.8055,8.8055,8.7594,8.694,8.6863,8.6863,8.6863,8.7325,8.7517,8.7171,8.744,8.7363,8.6671,8.694,8.7286,8.7632,8.7171,8.7055,8.7286,8.617,8.5401,8.567,8.5901,8.6094,8.6247,8.7671,8.8709,8.8825,8.9133,8.9248,8.944,8.8979,8.8863,8.9325,8.9863,9.0171,9.021,9.0441,9.0825,9.1133,9.121,9.121,9.121,9.121,9.121,9.1287,9.1595,9.1941,9.1902,9.1479,9.1518,9.1748,9.1518,9.121,9.1325,9.1941,9.2479,9.2518,9.3172,9.3441,9.2979,9.2787,9.2402,9.1902,9.1518,9.0556,9.0248,9.0441,9.0633,8.9363,8.9402,8.9406,8.9406,8.9367,8.9402,8.9402,8.944,9.0017,9.0248,9.0283,9.0248,8.994,8.9244,8.8012,8.7517,8.7829,8.841,8.8867,8.9171,9.0517,9.0864,9.021,8.9444,8.8598,8.7748,8.6863,8.644,8.6555,8.7325,8.8171,8.9017,8.9633,9.0325,9.1095,9.121,9.0867,9.0367,9.0444,9.0098,8.9102,8.8637,8.8325,8.8094,8.8094,8.8402,8.8979,8.8671,8.8209,8.7786,8.794,8.7979,8.7825,8.8556,8.9017,8.9017,8.8786,8.8671,8.8671,8.8902,8.9017,8.8979,8.8402,8.8094,8.7825,8.6555,8.5786,8.5978,8.6094,8.617,8.6594,8.7594,8.8709,8.9671,8.9325,8.9363,9.0094,8.971,8.9671,9.021,9.071,9.121,9.1171,9.1171,9.1171,9.1171,9.121,9.121,9.1248,9.1402,9.1595,9.1595,9.2287,9.2672,9.2556,9.2326,9.2172,9.2095,9.1941,9.1556,9.1364,9.1979,9.2479,9.2556,9.3249,9.3518,9.321,9.2864,9.221,9.1518,9.121,9.121,9.0979,9.1171,9.1171,9.1095,9.1056,9.1056,9.1018,9.1056,9.1018,9.1056,9.0941,9.1095,9.1095,9.1056,9.1095,9.1095,9.0825,8.8594,8.7902,8.8594,8.879,8.9252,8.9902,9.0825,9.121,9.1095,9.0252,8.9406,8.8594,8.7781,8.7358,8.7401,8.8209,8.9056,8.9787,8.994,9.0364,9.1095,9.121,9.1175,9.1213,9.1864,9.1595,9.0252,9.0636,9.0594,8.994,8.9787,8.9787,8.9902,9.0594,9.0248,8.8671,8.9286,8.9402,8.8825,8.9402,8.9863,8.9787,8.9171,8.8748,8.8902,8.9479,8.9863,8.9825,8.9633,8.971,8.944,8.794,8.6786,8.6247,8.6247,8.6478,8.7286,8.7632,8.8325,8.9671,8.9863,9.021,9.0941,9.0787,9.1056,9.1018,9.1095,9.1171,9.121,9.121,9.121,9.121,9.121,9.121,9.1325,9.1864,9.2287,9.2518,9.2979,9.3403,9.2787,9.2826,9.2979,9.2941,9.2672,9.2133,9.1902,9.1825,9.221,9.2595,9.3095,9.3364,9.3403,9.2979,9.2133,9.1595,9.1441,9.1364,9.1518,9.1287,9.1325,9.213,9.2168,9.1479,9.1364,9.1595,9.1325,9.1287,9.1364,9.1248,9.121,9.121,9.121,9.121,9.1133,8.9675,8.9479,9.0244,9.0325,9.0444,9.0825,9.1633,9.1748,9.1133,9.029,8.979,8.9402,8.8632,8.8248,8.8325,8.9094,8.9598,8.9979,9.0479,9.0941,9.1171,9.121,9.1441,9.2018,9.2364,9.2405,9.233,9.2636,9.2633,9.2287,9.1287,9.0748,9.0748,9.1056,9.0671,8.9517,8.9748,8.9787,8.9594,9.0287,9.0748,9.071,9.0441,9.0287,9.0325,9.0556,9.0748,9.0671,8.971,8.944,8.9402,8.7979,8.6863,8.744,8.7209,8.7517,8.8556,8.8556,8.8671,8.9633,8.994,9.0056,9.0287,9.0364,9.0364,9.0441,9.0787,9.121,9.121,9.121,9.121,9.121,9.121,9.1248,9.1364,9.1979,9.2595,9.2749,9.3595,9.4441,9.421,9.3749,9.3595,9.3672,9.3441,9.271,9.2249,9.2249,9.2595,9.2326,9.2749,9.2941,9.2903,9.2595,9.1825,9.1787,9.1633,9.1979,9.2018,9.2018,9.2018,9.2672,9.2734,9.2418,9.2296,9.2242,9.1887,9.1631,9.1514,9.1287,9.121,9.121,9.121,9.121,9.1133,9.0559,9.0787,9.1476,9.1056,9.0941,9.1248,9.1825,9.1748,9.121,9.0598,9.0329,9.0248,8.9787,8.9517,8.9633,9.0329,9.0829,9.121,9.1518,9.1633,9.1633,9.1633,9.2056,9.2746,9.3133,9.3633,9.4059,9.4134,9.3941,9.3633,9.2864,9.2133,9.1672,9.1364,9.1133,9.0748,9.0479,9.0325,9.0364,9.0864,9.121,9.121,9.1171,9.121,9.121,9.121,9.1171,9.1171,9.0248,8.9787,9.0094,8.8479,8.8132,8.8632,8.8363,8.844,8.9402,8.9402,8.944,9.0094,9.0094,9.0056,9.0287,9.0364,9.0364,9.0479,9.0864,9.1171,9.1248,9.1479,9.1633,9.1633,9.1787,9.2018,9.2095,9.271,9.3287,9.3441,9.4557,9.5288,9.5288,9.498,9.448,9.4441,9.4249,9.3441,9.2864,9.2864,9.271,9.2287,9.221,9.2364,9.2287,9.2056,9.1979,9.1979,9.2364,9.2864,9.2864,9.2864,9.2864,9.2787,9.3029,9.3993,9.3847,9.3273,9.2964,9.23,9.1698,9.1402,9.1325,9.121,9.121,9.121,9.1171,9.1095,9.1633,9.2021,9.0982,9.0675,9.1325,9.1402,9.1364,9.121,9.1248,9.1287,9.1325,9.1245,9.1206,9.1287,9.1979,9.271,9.3287,9.2749,9.2479,9.2479,9.2518,9.2903,9.3672,9.4403,9.4864,9.498,9.498,9.4672,9.4057,9.4403,9.4018,9.2633,9.1864,9.1825,9.2249,9.1633,9.1248,9.1095,9.1171,9.121,9.121,9.121,9.121,9.121,9.121,9.121,9.1171,9.1095,9.0864,9.0825,9.0133,8.9671,8.9748,8.9325,8.9171,8.9825,8.994,9.021,9.0941,9.0479,9.0402,9.0902,9.1133,9.1171,9.1133,9.1171,9.121,9.1402,9.1864,9.2287,9.2556,9.2979,9.3364,9.3364,9.4018,9.4749,9.498,9.5403,9.5903,9.6134,9.6211,9.5672,9.5249,9.4941,9.4403,9.3826,9.3595,9.3364,9.3018,9.2979,9.3133,9.3095,9.2903,9.3056,9.3133,9.3518,9.3672,9.371,9.3749,9.371,9.2781,9.405,9.3739,9.4005,9.4451,9.4168,9.3483,9.2661,9.2399,9.1864,9.1287,9.121,9.121,9.121,9.121,9.171,9.2405,9.1908,9.1831,9.2095,9.2095,9.1748,9.1402,9.1825,9.2402,9.2826,9.2938,9.2938,9.2941,9.321,9.3518,9.3595,9.348,9.3326,9.3326,9.3364,9.3749,9.4518,9.4864,9.5249,9.5826,9.5903,9.5749,9.548,9.5172,9.4711,9.421,9.3941,9.3633,9.3364,9.2556,9.1825,9.1364,9.121,9.121,9.121,9.121,9.121,9.121,9.121,9.121,9.1095,9.0671,9.0671,9.1018,9.0441,9.021,9.0671,9.0556,9.0556,9.0748,9.0787,9.0902,9.1171,9.0941,9.0825,9.1133,9.121,9.121,9.121,9.121,9.1441,9.1941,9.2479,9.2826,9.3249,9.3633,9.3787,9.3903,9.4557,9.4941,9.5057,9.5749,9.6288,9.6288,9.6288,9.6057,9.5672,9.5441,9.5249,9.4711,9.4326,9.4095,9.398,9.3941,9.3903,9.3864,9.3903,9.4057,9.4095,9.421,9.4403,9.4557,9.4595,9.4595,9.4017,9.5195,9.5,9.5156,9.5586,9.4922,9.4302,9.3775,9.3168,9.2707,9.2287,9.1941,9.1748,9.171,9.1672,9.2133,9.2903,9.3253,9.3407,9.3251,9.2672,9.221,9.1825,9.2518,9.3172,9.3672,9.4018,9.4172,9.4172,9.421,9.4364,9.4595,9.4364,9.4172,9.4172,9.421,9.448,9.4941,9.5326,9.5749,9.6172,9.6288,9.6288,9.6211,9.5749,9.5518,9.548,9.548,9.5057,9.4287,9.3672,9.2903,9.1864,9.171,9.1556,9.1248,9.121,9.121,9.121,9.121,9.121,9.1095,9.0671,9.0594,9.1018,9.0633,9.071,9.1095,9.1133,9.121,9.1171,9.1171,9.121,9.121,9.1171,9.121,9.1248,9.1518,9.1672,9.1787,9.1979,9.2364,9.2787,9.3326,9.3557,9.4095,9.4441,9.4672,9.4749,9.5172,9.5326,9.5518,9.5942,9.6249,9.6288,9.6288,9.6288,9.6095,9.5865,9.5749,9.548,9.5288,9.5057,9.5095,9.5095,9.5134,9.5095,9.498,9.5057,9.5018,9.5018,9.5249,9.548,9.548,9.548,9.6015,9.625,9.7148,9.7031,9.6445,9.5508,9.5039,9.4704,9.3914,9.3669,9.3764,9.3166,9.2707,9.2553,9.2515,9.2977,9.3708,9.4441,9.4866,9.452,9.3633,9.2826,9.2903,9.348,9.3864,9.4172,9.4751,9.502,9.5057,9.5057,9.548,9.5942,9.5365,9.5057,9.5057,9.5057,9.5095,9.5288,9.5865,9.6249,9.6288,9.6288,9.6288,9.6288,9.6249,9.6172,9.6172,9.6134,9.5826,9.5095,9.4788,9.4057,9.2864,9.2556,9.221,9.1595,9.1364,9.1364,9.1325,9.1248,9.121,9.1171,9.1133,9.121,9.1133,9.1095,9.1056,9.1171,9.121,9.121,9.121,9.121,9.121,9.121,9.121,9.121,9.1248,9.1864,9.2133,9.2441,9.3133,9.3672,9.3672,9.4403,9.4749,9.5134,9.5634,9.5865,9.598,9.598,9.6172,9.6249,9.6211,9.6249,9.6288,9.6288,9.6288,9.6249,9.6095,9.6057,9.6019,9.5903,9.5826,9.5903,9.5942,9.6095,9.6095,9.5826,9.5788,9.5788,9.5942,9.6249,9.6211,9.6057,9.6019,9.5625,9.6406,9.6719,9.7031,9.7344,9.7031,9.6445,9.5781,9.5469,9.4933,9.4496,9.4171,9.3585,9.2823,9.3435,9.3708,9.3943,9.4635,9.5405,9.5749,9.4864,9.4364,9.4326,9.4518,9.4941,9.5518,9.5711,9.598,9.5942,9.5865,9.6057,9.6288,9.6057,9.5903,9.598,9.5903,9.598,9.598,9.6134,9.6288,9.6288,9.6288,9.6288,9.6288,9.6288,9.6288,9.6288,9.6288,9.5903,9.5095,9.498,9.4518,9.3518,9.3364,9.321,9.2903,9.2441,9.2172,9.2056,9.1595,9.1287,9.121,9.1364,9.121,9.121,9.121,9.121,9.121,9.121,9.121,9.121,9.121,9.121,9.121,9.1325,9.1287,9.1248,9.1402,9.1748,9.2402,9.2787,9.3518,9.4403,9.4903,9.5288,9.5788,9.6095,9.6288,9.6288,9.6288,9.6288,9.6288,9.6288,9.6288,9.6288,9.6288,9.6288,9.6288,9.6249,9.6211,9.6211,9.6134,9.6134,9.6211,9.6134,9.6211,9.6249,9.6134,9.6249,9.6288,9.6288,9.6288,9.6288,9.6211,9.6172,9.6406,9.6992,9.6992,9.7265,9.7617,9.7344,9.7031,9.6758,9.6406,9.6121,9.5689,9.5296,9.4717,9.4128,9.4475,9.4554,9.452,9.5212,9.5826,9.6134,9.5749,9.5326,9.5057,9.498,9.5441,9.6211,9.6288,9.6288,9.6288,9.6288,9.6288,9.6288,9.6288,9.6288,9.6249,9.6288,9.6288,9.6288,9.6288,9.6288,9.6288,9.6288,9.6288,9.6288,9.6288,9.6288,9.6288,9.6288,9.6057,9.5634,9.5518,9.5134,9.4364,9.4249,9.4095,9.3749,9.3249,9.3018,9.2941,9.2518,9.2287,9.2287,9.2249,9.2249,9.221,9.1979,9.1748,9.1787,9.1441,9.121,9.1287,9.1518,9.171,9.1825,9.2018,9.1941,9.1364,9.1902,9.2402,9.2979,9.3672,9.4364,9.5441,9.5518,9.5788,9.6134,9.6211,9.6288,9.6288,9.6288,9.6288,9.6288,9.6288,9.6288,9.6288,9.6288,9.6288,9.6288,9.6288,9.6288,9.6288,9.6288,9.6288,9.6288,9.6288,9.6288,9.6288,9.6288,9.6288,9.6288,9.6288,9.6288,9.6288,9.6288,9.6288,9.7734,9.7851,9.7734,9.7695,9.7578,9.6953,9.7109,9.7461,9.6953,9.6914,9.707,9.6562,9.5976,9.5759,9.5798,9.5668,9.5405,9.6326,9.6634,9.6711,9.648,9.6095,9.5557,9.5363,9.5634,9.6211,9.6288,9.6288,9.6288,9.6288,9.6288,9.6288,9.6288,9.6288,9.6288,9.6288,9.6288,9.6288,9.6288,9.6288,9.6288,9.6288,9.6288,9.6288,9.6288,9.6288,9.6288,9.6288,9.6249,9.6288,9.6288,9.5826,9.5172,9.5135,9.4828,9.4249,9.4018,9.3826,9.3826,9.3787,9.3672,9.3557,9.3633,9.3749,9.3441,9.2903,9.2556,9.2326,9.1748,9.1441,9.1325,9.1941,9.2326,9.2441,9.3095,9.2864,9.2172,9.2787,9.371,9.3864,9.5249,9.598,9.6288,9.6288,9.6288,9.6211,9.6288,9.6288,9.6288,9.6288,9.6288,9.6288,9.6288,9.6288,9.6288,9.6288,9.6288,9.6288,9.6288,9.6288,9.6288,9.6288,9.6288,9.6288,9.6288,9.6288,9.6288,9.6288,9.6288,9.6288,9.6288,9.6288,9.6288,9.6288,9.6288,9.8086,9.8672,9.7969,9.7695,9.7656,9.75,9.7539,9.7656,9.75,9.7461,9.7578,9.7422,9.6836,9.6133,9.7212,9.7094,9.598,9.7442,9.8442,9.8173,9.7519,9.7211,9.6788,9.6326,9.6134,9.6288,9.6288,9.6288,9.6288,9.6288,9.6288,9.6288,9.6288,9.6288,9.6288,9.6288,9.6288,9.6288,9.6288,9.6288,9.6288,9.6288,9.6288,9.6288,9.6288,9.6288,9.6288,9.6288,9.6288,9.6288,9.6288,9.6134,9.598,9.5942,9.5826,9.5518,9.498,9.4711,9.4711,9.4672,9.4441,9.398,9.4364,9.4403,9.3749,9.3595,9.3133,9.2672,9.2287,9.1864,9.1479,9.2018,9.2556,9.2826,9.3364,9.371,9.3326,9.348,9.398,9.4595,9.5057,9.5557,9.6211,9.6288,9.6288,9.6288,9.6288,9.6288,9.6288,9.6288,9.6288,9.6288,9.6288,9.6288,9.6288,9.6326,9.6403,9.6403,9.6403,9.6288,9.6288,9.6288,9.6288,9.6288,9.6288,9.6288,9.6288,9.6288,9.6288,9.6288,9.6288,9.6288,9.6288,9.6288,9.6288,9.7969,9.832,9.789,9.7695,9.7695,9.7695,9.7695,9.7695,9.7695,9.7695,9.7812,9.8086,9.7734,9.7031,9.8382,9.8284,9.7398,9.8212,9.8942,9.8673,9.8288,9.8134,9.7942,9.725,9.6711,9.6403,9.6403,9.6403,9.6326,9.6365,9.6403,9.6288,9.6288,9.6288,9.6288,9.6288,9.6288,9.6288,9.6288,9.6288,9.6288,9.6288,9.6288,9.6288,9.6288,9.6288,9.6288,9.6288,9.6288,9.6288,9.6288,9.6288,9.6288,9.6288,9.6288,9.6172,9.5942,9.5595,9.5595,9.5557,9.5441,9.4941,9.5365,9.5288,9.4864,9.4595,9.4134,9.3595,9.3018,9.2287,9.1902,9.2556,9.3095,9.3787,9.4403,9.4864,9.4864,9.4557,9.4441,9.498,9.5403,9.5826,9.6134,9.6249,9.6288,9.6288,9.6365,9.6365,9.6288,9.6288,9.6288,9.6288,9.6288,9.6288,9.6288,9.6403,9.6596,9.6596,9.6596,9.6403,9.6288,9.6288,9.6288,9.6288,9.6288,9.6288,9.6288,9.6288,9.6288,9.6288,9.6288,9.6288,9.6288,9.6288,9.6288,9.7734,9.8086,9.7969,9.7969,9.8086,9.8164,9.8203,9.8164,9.7929,9.8008,9.7969,9.8594,9.8125,9.8086,9.9023,9.9179,9.9056,9.8981,9.9365,9.9635,9.925,9.9135,9.8827,9.798,9.7173,9.6596,9.6557,9.6556,9.6625,9.6556,9.6596,9.648,9.6326,9.6288,9.6288,9.6288,9.6288,9.6288,9.6288,9.6288,9.6288,9.6288,9.6288,9.6288,9.6288,9.6288,9.6288,9.6288,9.6288,9.6288,9.6288,9.6288,9.6288,9.6288,9.6442,9.6442,9.6365,9.6288,9.6442,9.6442,9.6442,9.6403,9.648,9.6365,9.6095,9.5557,9.5095,9.4441,9.371,9.2787,9.2749,9.3441,9.4172,9.4826,9.5711,9.6211,9.6172,9.5595,9.5326,9.5326,9.5711,9.6134,9.6211,9.6288,9.6288,9.6326,9.6403,9.6442,9.6442,9.6442,9.6519,9.6326,9.6288,9.6634,9.6711,9.6365,9.6557,9.6788,9.6788,9.648,9.6288,9.6288,9.6288,9.6288,9.6288,9.6288,9.6288,9.6288,9.6288,9.6288,9.6288,9.6288,9.6288,9.6288,9.6288,9.7929,9.9804,9.9101,9.9179,9.9804,9.9844,9.9726,9.9726,9.9023,9.8789,9.8711,9.8203,9.8047,9.8047,9.8672,9.9609,10.0272,10.0423,10.0745,10.1017,10.0595,10.0171,9.9865,9.8673,9.7788,9.7442,9.7164,9.7156,9.7264,9.6994,9.7017,9.7096,9.6673,9.6365,9.6403,9.6288,9.6288,9.6288,9.6288,9.6288,9.6288,9.6288,9.6288,9.6288,9.6288,9.6288,9.6288,9.6288,9.6288,9.6288,9.6288,9.6326,9.6365,9.6365,9.6673,9.6942,9.6711,9.6634,9.7057,9.7173,9.6903,9.6673,9.6788,9.6826,9.6442,9.6095,9.5634,9.4941,9.421,9.3518,9.3518,9.4057,9.4634,9.5134,9.5595,9.6134,9.6095,9.6057,9.5865,9.5749,9.6057,9.6288,9.6288,9.6326,9.6442,9.6596,9.6865,9.6903,9.6903,9.6903,9.698,9.6673,9.6288,9.6788,9.7211,9.6673,9.6519,9.6903,9.6903,9.6442,9.6288,9.6288,9.6288,9.6288,9.6288,9.6288,9.6288,9.6288,9.6288,9.6288,9.6288,9.6288,9.6288,9.6288,9.6288,9.8789,10.0195,9.9375,9.9492,10.0117,9.9804,9.9883,10.0195,9.9844,9.9648,9.9531,9.9219,9.875,9.8711,9.9297,10.0273,10.0937,10.1467,10.1712,10.1879,10.1507,10.1263,10.1172,9.975,9.9558,9.9309,9.8815,9.8037,9.7923,9.7654,9.7711,9.7865,9.7326,9.6942,9.6788,9.6519,9.6326,9.6288,9.6288,9.6288,9.6288,9.6288,9.6288,9.6288,9.6288,9.6288,9.6288,9.6288,9.6519,9.6826,9.6903,9.6903,9.6903,9.6942,9.7096,9.7365,9.7134,9.7057,9.7326,9.7173,9.6634,9.6442,9.6711,9.6711,9.6442,9.6211,9.5903,9.5211,9.4749,9.4172,9.3749,9.4172,9.4249,9.4441,9.5134,9.5403,9.5365,9.5865,9.598,9.5942,9.6095,9.6211,9.6288,9.6365,9.6557,9.6865,9.7288,9.7403,9.7442,9.7403,9.7442,9.6903,9.6519,9.6942,9.7288,9.6826,9.6634,9.7019,9.6903,9.648,9.6288,9.6288,9.6288,9.6288,9.6288,9.6288,9.6288,9.6288,9.6288,9.6288,9.6365,9.6403,9.6326,9.6288,9.6442,9.9375,10.0234,9.9375,9.9492,10.0117,9.957,9.9804,10.0429,10.0351,10.039,10.0547,10.0312,9.9726,9.9336,9.9687,10.0351,10.1015,10.164,10.2133,10.2543,10.225,10.2183,10.2155,10.1404,10.075,10.0624,10.0005,9.94,9.8841,9.856,9.875,9.8635,9.8096,9.7519,9.7326,9.6673,9.6403,9.6288,9.6288,9.6288,9.6288,9.6288,9.6288,9.6288,9.6288,9.6288,9.6288,9.6557,9.6903,9.7326,9.7596,9.775,9.775,9.7787,9.7749,9.7711,9.7634,9.7596,9.7596,9.7096,9.6673,9.6365,9.6288,9.6288,9.6288,9.6249,9.6095,9.5557,9.5288,9.4903,9.4287,9.421,9.421,9.4249,9.4788,9.5172,9.5172,9.548,9.5942,9.598,9.6095,9.6172,9.6288,9.6749,9.6942,9.748,9.7904,9.825,9.825,9.798,9.7788,9.7134,9.6865,9.7173,9.7211,9.6865,9.6865,9.725,9.6903,9.6365,9.6288,9.6288,9.6288,9.6288,9.6288,9.6288,9.6288,9.6288,9.6288,9.6326,9.6442,9.6596,9.6749,9.698,9.7211,9.8789,10.0234,9.9375,9.9492,10.0234,10.0117,10.0586,10.1211,10.0586,10.0742,10.1172,10.0547,9.9726,9.9179,9.9179,9.9726,10.0429,10.1484,10.2422,10.3125,10.2773,10.2773,10.3114,10.1564,10.1283,10.1302,10.0541,10.0228,10.008,9.9754,9.9634,9.9634,9.8634,9.7557,9.7673,9.6903,9.6326,9.6288,9.6288,9.6288,9.6288,9.6288,9.6288,9.6288,9.6365,9.6403,9.6557,9.698,9.7519,9.7711,9.8327,9.8596,9.8634,9.8634,9.8672,9.8404,9.8096,9.7827,9.8288,9.7711,9.7096,9.6711,9.6519,9.6326,9.6403,9.648,9.6596,9.7211,9.6519,9.5634,9.5018,9.5441,9.5403,9.5211,9.5211,9.5672,9.5749,9.5595,9.598,9.5942,9.6019,9.6172,9.6288,9.6903,9.7442,9.8019,9.8519,9.8788,9.8827,9.8404,9.798,9.7288,9.6788,9.7019,9.7211,9.6865,9.6826,9.725,9.6865,9.6288,9.6288,9.6288,9.6288,9.6288,9.6288,9.6288,9.6288,9.6288,9.6288,9.6519,9.6788,9.7096,9.7365,9.7634,9.7904,9.9609,10.0195,9.9336,9.9492,10.0195,9.9804,10.0078,10.0664,10.0508,10.0508,10.0625,9.9961,9.9062,9.8594,9.9179,9.9648,10.0039,10.1445,10.2344,10.289,10.2773,10.2929,10.3008,10.2464,10.2067,10.1933,10.1836,10.1719,10.1523,10.1021,10.0711,10.0904,9.9827,9.8942,9.8288,9.7442,9.6788,9.6442,9.6288,9.6288,9.6288,9.6288,9.6288,9.6326,9.6749,9.6903,9.7173,9.7788,9.8519,9.8865,9.9404,9.9481,9.9519,9.9481,9.9365,9.8788,9.8981,9.8942,9.8711,9.8019,9.7673,9.775,9.7634,9.7557,9.7173,9.698,9.6788,9.6749,9.6519,9.5903,9.5211,9.5326,9.4941,9.4864,9.5326,9.5249,9.5557,9.6134,9.6172,9.6057,9.598,9.6211,9.6403,9.6711,9.7211,9.7711,9.8096,9.8365,9.8404,9.8134,9.775,9.7288,9.6903,9.6673,9.6903,9.6865,9.6519,9.6711,9.6711,9.6288,9.6288,9.6288,9.6288,9.6288,9.6288,9.6288,9.6288,9.6326,9.6365,9.6788,9.725,9.7596,9.7942,9.8211,9.8404,10.0508,10.0195,9.914,9.9062,9.957,9.8945,9.9179,9.9922,9.9961,10.0078,10.0039,9.9453,9.8633,9.8398,9.9258,9.9687,9.957,10.1601,10.2344,10.25,10.2656,10.3008,10.3164,10.3047,10.28,10.289,10.2675,10.2617,10.2383,10.2023,10.1789,10.2058,10.0798,9.9965,9.9057,9.8057,9.7173,9.6365,9.6288,9.6288,9.6288,9.6288,9.6442,9.6711,9.7134,9.7596,9.7904,9.8673,9.9481,9.9827,10.0596,10.0827,10.0789,10.0558,10.025,9.9712,9.9635,9.9404,9.9135,9.875,9.8481,9.8596,9.875,9.8327,9.7904,9.7711,9.7365,9.6826,9.6442,9.5903,9.5326,9.5172,9.5057,9.4941,9.5018,9.4711,9.4749,9.5826,9.6442,9.6288,9.6249,9.6403,9.6557,9.6596,9.6942,9.7403,9.7711,9.798,9.7942,9.7827,9.7519,9.7134,9.6749,9.648,9.6596,9.6634,9.6365,9.6288,9.6288,9.6288,9.6288,9.6288,9.6288,9.6288,9.6288,9.6288,9.6288,9.6403,9.6519,9.7096,9.7634,9.8134,9.8481,9.875,9.8981,10.1015,10.0156,9.8515,9.7969,9.8086,9.7812,9.832,9.9179,9.9101,9.9492,9.9883,9.9375,9.8828,9.8945,9.9101,9.9648,10.0156,10.1211,10.2344,10.3086,10.3359,10.3242,10.332,10.3125,10.2851,10.289,10.289,10.289,10.2851,10.2656,10.2383,10.2055,10.14,10.0313,9.9309,9.8403,9.748,9.6749,9.6557,9.6519,9.6519,9.6519,9.6711,9.725,9.7519,9.7865,9.8634,9.9481,9.9942,10.0173,10.1212,10.202,10.1827,10.148,10.1057,10.0673,10.0096,9.9865,9.9673,9.9596,9.9481,9.9058,9.8942,9.9058,9.8711,9.7942,9.7557,9.7442,9.7057,9.6249,9.5788,9.5557,9.5903,9.5711,9.5903,9.6211,9.6172,9.6249,9.6749,9.6519,9.6673,9.7057,9.7173,9.7326,9.6826,9.7211,9.7403,9.7634,9.7634,9.7519,9.725,9.6903,9.6519,9.6326,9.6326,9.6288,9.6288,9.6288,9.6288,9.6288,9.6288,9.6288,9.6288,9.6288,9.6288,9.6288,9.6288,9.6326,9.6634,9.7365,9.8019,9.8596,9.8981,9.925,9.9596,10.0625,10.0195,9.8984,9.8789,9.9258,9.8711,9.8672,9.8867,9.8437,9.8359,9.875,9.8359,9.8203,9.8476,9.9414,9.9609,9.9844,10.164,10.2344,10.2422,10.2344,10.2656,10.2812,10.2734,10.2344,10.2734,10.289,10.289,10.289,10.2812,10.2812,10.2461,10.1953,10.137,10.0303,9.8825,9.7941,9.775,9.7365,9.7211,9.7673,9.725,9.7173,9.7442,9.8134,9.8057,9.8327,9.9904,10.025,10.0519,10.1289,10.202,10.2597,10.2211,10.1942,10.1597,10.0981,10.075,10.0212,10.0212,10.0096,10.0481,10.0327,10.0096,9.9635,9.9211,9.875,9.8442,9.8019,9.7365,9.6826,9.725,9.7596,9.7096,9.7057,9.748,9.7596,9.748,9.748,9.748,9.7788,9.8173,9.8173,9.8173,9.748,9.698,9.7134,9.725,9.725,9.725,9.7019,9.6788,9.6403,9.6288,9.6288,9.6288,9.6288,9.6288,9.6288,9.6288,9.6288,9.6288,9.6288,9.6288,9.6288,9.6288,9.6288,9.6288,9.6673,9.7403,9.8288,9.9135,9.9481,9.9673,10.0058,10.1094,10.1015,10.039,9.9883,9.9531,9.914,9.8828,9.8515,9.7969,9.789,9.8047,9.8086,9.8086,9.8515,9.9492,9.9765,9.9765,10.0898,10.1601,10.1679,10.1523,10.1797,10.2031,10.2109,10.1953,10.2461,10.25,10.2461,10.2422,10.25,10.2383,10.2383,10.2539,10.1992,10.0844,9.9206,9.821,9.8442,9.8096,9.775,9.8211,9.7827,9.7442,9.7557,9.8019,9.825,9.8481,9.9712,10.0404,10.0635,10.1212,10.2097,10.2595,10.2826,10.2671,10.2519,10.2251,10.1943,10.1173,10.0635,10.0866,10.1404,10.1212,10.0904,10.0596,10.025,9.9519,9.8865,9.8865,9.8827,9.8057,9.8481,9.8596,9.8057,9.8019,9.8327,9.8365,9.8327,9.8442,9.8481,9.8827,9.9058,9.8673,9.8519,9.798,9.7365,9.7288,9.7173,9.6749,9.6826,9.6865,9.6634,9.6326,9.6288,9.6288,9.6288,9.6288,9.6288,9.6288,9.6288,9.6288,9.6288,9.6288,9.6288,9.6288,9.6288,9.6288,9.6326,9.6749,9.7365,9.825,9.9096,9.9788,10.0019,10.0442,10.2734,10.2851,10.2695,10.082,9.832,9.8711,9.8672,9.832,9.8047,9.832,9.8906,9.8906,9.8867,9.9062,9.9765,9.9609,9.9375,10.0117,10.0937,10.1367,10.0937,10.1054,10.1484,10.1758,10.1797,10.164,10.1797,10.1875,10.1758,10.164,10.164,10.2031,10.2383,10.2328,10.1097,9.9056,9.8364,9.8634,9.8096,9.798,9.8134,9.8057,9.7942,9.798,9.7942,9.8173,9.8519,9.9558,10.0135,10.0096,10.1635,10.2481,10.2904,10.3483,10.3637,10.3711,10.2903,10.2558,10.2404,10.1712,10.1827,10.2327,10.2135,10.1635,10.1212,10.0673,10.0058,9.9596,9.9673,9.9596,9.9404,9.9442,9.9327,9.9173,9.9096,9.9288,9.9365,9.9365,9.9519,9.9596,9.975,9.9788,9.925,9.8788,9.8365,9.7942,9.7596,9.7173,9.6596,9.6442,9.6596,9.6519,9.6288,9.6288,9.6288,9.6288,9.6288,9.6288,9.6288,9.6288,9.6288,9.6288,9.6288,9.6288,9.6288,9.6288,9.6326,9.6365,9.6903,9.748,9.8057,9.8827,9.9635,10.0289,10.0596,10.2031,10.2031,10.2031,10.1015,9.9648,10.0351,10.0547,10.0195,9.9726,9.957,9.9687,9.9297,9.8984,9.914,9.9297,9.9414,9.9297,9.9883,10.0742,10.1367,10.0586,10.1406,10.1836,10.1758,10.1836,10.2148,10.2031,10.1601,10.164,10.1133,10.1211,10.164,10.2265,10.2422,10.1721,10.0465,10.0096,10.025,9.9788,9.9442,9.9827,9.9442,9.9096,9.9058,9.8557,9.8288,9.825,9.9365,9.9827,9.975,10.1289,10.2367,10.2826,10.343,10.3449,10.3406,10.2788,10.2635,10.2597,10.2327,10.2597,10.302,10.3097,10.2597,10.2212,10.1981,10.1289,10.0673,10.0673,10.0442,10.0019,10.0442,10.0481,10.0058,10.0058,10.0481,10.0673,10.0635,10.0673,10.0712,10.0827,10.075,10.0366,9.9712,9.9211,9.8557,9.8211,9.725,9.6519,9.6365,9.6403,9.6403,9.6288,9.6288,9.6288,9.6288,9.6288,9.6288,9.6288,9.6288,9.6288,9.6288,9.6288,9.6288,9.6288,9.6288,9.6403,9.6557,9.7057,9.7596,9.825,9.9135,10.0173,10.0519,10.0481,10.2226,10.2461,10.2187,10.2109,10.1992,10.1758,10.1445,10.1094,10.0547,10.0469,10.0586,10.0117,9.9961,9.9961,9.9883,9.9609,9.9531,9.9648,10.0312,10.0859,9.9844,10.0234,10.0781,10.1445,10.1289,10.1836,10.1875,10.1523,10.1054,10.0586,10.0859,10.1523,10.2069,10.2133,10.1696,10.1231,10.0827,10.0789,10.0366,10.0096,10.0327,10.025,9.9827,9.9442,9.8981,9.8557,9.8519,9.9019,9.9865,9.9865,10.075,10.2056,10.2592,10.3042,10.3172,10.3135,10.3135,10.3174,10.3443,10.3558,10.402,10.4713,10.4289,10.3674,10.3058,10.2635,10.202,10.1558,10.1597,10.1173,10.0789,10.1289,10.1366,10.0981,10.1173,10.1597,10.1943,10.1904,10.152,10.1597,10.1366,10.1366,10.1289,10.0789,10.0173,9.9481,9.8788,9.7711,9.6673,9.648,9.6403,9.6403,9.6326,9.6288,9.6288,9.6288,9.6288,9.6288,9.6288,9.6288,9.6288,9.6288,9.6288,9.6288,9.6288,9.6326,9.6519,9.6788,9.7365,9.7942,9.8596,9.9558,10.0712,10.0827,10.0712,10.3437,10.4023,10.3281,10.375,10.4726,10.2617,10.125,10.0508,10.0469,10.0976,10.1679,10.1562,10.1367,10.1523,10.1484,10.0859,10.0195,9.957,9.9961,10.0039,9.957,9.9531,9.9844,10.0508,10.1054,10.1015,10.1054,10.1328,10.0508,10.0586,10.1015,10.1406,10.1679,10.1867,10.1778,10.1445,10.1135,10.1058,10.0789,10.0519,10.0596,10.0404,10.0058,9.9673,9.9211,9.9019,9.9096,9.9596,9.9942,10.0404,10.1327,10.185,10.2455,10.3166,10.3395,10.3521,10.3597,10.4135,10.4597,10.4713,10.5213,10.5597,10.4905,10.4251,10.3674,10.3135,10.2404,10.1866,10.1673,10.1558,10.1481,10.1866,10.2212,10.2174,10.2289,10.2674,10.3097,10.2943,10.2443,10.2135,10.175,10.1558,10.1404,10.1058,10.0943,10.0058,9.9327,9.8557,9.7557,9.6749,9.6673,9.6596,9.6519,9.6326,9.6288,9.6326,9.6288,9.6288,9.6288,9.6288,9.6288,9.6288,9.6288,9.6288,9.6288,9.6403,9.6749,9.7211,9.7711,9.8327,9.8942,9.9788,10.0827,10.1096,10.1135,10.3984,10.4101,10.3242,10.3203,10.3515,10.2851,10.2383,10.2148,10.2148,10.2656,10.3398,10.2148,10.1953,10.2422,10.125,10.0703,10.0351,10.0195,10.0586,10.0508,10.0312,10.0586,10.0937,10.1328,10.1562,10.1406,10.1367,10.1445,10.1289,10.1172,10.1172,10.1562,10.1758,10.1989,10.189,10.1633,10.1443,10.125,10.0981,10.0904,10.0904,10.0943,10.0635,10.0404,9.9981,9.9865,9.9865,9.9981,10.0173,10.0366,10.1404,10.2064,10.2162,10.2624,10.285,10.3213,10.3712,10.4443,10.4982,10.5097,10.5482,10.6213,10.579,10.4982,10.4289,10.3558,10.2866,10.2251,10.1943,10.1904,10.1827,10.2058,10.2597,10.2943,10.302,10.3212,10.352,10.3289,10.2712,10.1981,10.1597,10.175,10.1558,10.1827,10.1635,10.0635,9.9827,9.9211,9.8481,9.7711,9.7211,9.7134,9.6788,9.6634,9.6442,9.6403,9.6326,9.6288,9.6326,9.6326,9.6288,9.6288,9.6288,9.6288,9.6288,9.6673,9.7173,9.7557,9.7827,9.8634,9.9327,10.0135,10.0827,10.1096,10.1327,10.4609,10.4961,10.3515,10.289,10.289,10.289,10.289,10.289,10.289,10.3242,10.3515,10.2578,10.2383,10.2656,10.1875,10.1445,10.1406,10.1015,10.1094,10.125,10.1367,10.0625,10.0976,10.1484,10.1289,10.1289,10.1445,10.1562,10.1562,10.1289,10.1133,10.1601,10.1953,10.2031,10.1974,10.1789,10.1558,10.1404,10.125,10.1289,10.1404,10.1558,10.1635,10.1327,10.0943,10.0866,10.0596,10.0558,10.0519,10.0635,10.1673,10.2064,10.2285,10.2655,10.3288,10.3734,10.4369,10.5062,10.5597,10.5674,10.5944,10.6213,10.6367,10.5636,10.4982,10.4328,10.3289,10.2481,10.2404,10.2327,10.2212,10.2212,10.2904,10.3558,10.3597,10.3635,10.352,10.3328,10.2635,10.175,10.1597,10.1827,10.2058,10.2404,10.2289,10.125,10.0673,10.0442,9.9635,9.875,9.825,9.8019,9.748,9.7019,9.6826,9.6711,9.6673,9.6596,9.6403,9.6403,9.6326,9.6288,9.6288,9.6288,9.6288,9.6788,9.7365,9.748,9.7788,9.875,9.9635,10.025,10.0827,10.1173,10.1327,10.5273,10.6445,10.4023,10.2929,10.2812,10.2929,10.3008,10.2969,10.3164,10.3086,10.3125,10.2929,10.289,10.3086,10.2656,10.2578,10.2344,10.1953,10.1719,10.1679,10.1406,10.0781,10.0351,10.0156,10.1133,10.1054,10.125,10.1953,10.1601,10.1484,10.1523,10.1679,10.1601,10.1758,10.2012,10.1827,10.1558,10.1404,10.1481,10.1558,10.1597,10.1904,10.2251,10.1712,10.175,10.1904,10.1481,10.1289,10.125,10.1404,10.1749,10.2096,10.2746,10.3421,10.4148,10.4541,10.5039,10.5409,10.5867,10.602,10.6213,10.6367,10.6367,10.5828,10.5251,10.4597,10.3558,10.2751,10.2558,10.2558,10.2443,10.2904,10.3558,10.4135,10.4405,10.4405,10.4328,10.3712,10.2558,10.1904,10.1943,10.2058,10.175,10.202,10.2251,10.152,10.1135,10.1096,10.0673,9.975,9.9288,9.8904,9.825,9.7711,9.7557,9.7403,9.7173,9.698,9.6749,9.6673,9.6749,9.6557,9.6288,9.6288,9.6326,9.6942,9.7442,9.7596,9.8134,9.9327,10.0058,10.0366,10.0789,10.1212,10.1327,10.6328,10.6523,10.4687,10.3164,10.2187,10.332,10.3476,10.3047,10.4375,10.4453,10.3867,10.3281,10.3281,10.3711,10.3008,10.2812,10.2773,10.2461,10.2578,10.25,10.2148,10.1406,10.1133,10.1367,10.164,10.1719,10.2031,10.2461,10.2383,10.2265,10.2265,10.25,10.2304,10.2304,10.2074,10.1832,10.1597,10.1366,10.1981,10.1827,10.1481,10.2058,10.2443,10.1866,10.1789,10.1673,10.1289,10.0981,10.1058,10.1212,10.1789,10.2616,10.3675,10.457,10.4873,10.4912,10.5415,10.5756,10.5828,10.6097,10.6328,10.6367,10.6251,10.579,10.5251,10.4559,10.3866,10.3135,10.2828,10.2828,10.302,10.3635,10.4289,10.4751,10.5136,10.5136,10.5097,10.3828,10.2558,10.2289,10.2251,10.2058,10.1712,10.1673,10.1866,10.1712,10.1404,10.125,10.1212,10.0673,10.025,9.9788,9.9019,9.8519,9.8404,9.8134,9.7904,9.7596,9.7365,9.725,9.7134,9.6711,9.6288,9.6288,9.6442,9.7211,9.7711,9.775,9.8481,9.9942,10.0558,10.0943,10.1058,10.1366,10.1327,10.6914,10.7031,10.5469,10.4219,10.3554,10.3984,10.4101,10.4258,10.5117,10.5234,10.4687,10.3945,10.375,10.3906,10.289,10.2656,10.2695,10.2422,10.2539,10.2734,10.2773,10.2265,10.2226,10.2226,10.1758,10.1719,10.2304,10.2695,10.2969,10.3281,10.3359,10.3086,10.2929,10.2849,10.2304,10.1928,10.1673,10.1366,10.2443,10.2366,10.1673,10.2366,10.252,10.202,10.1443,10.1366,10.1135,10.0827,10.0827,10.1398,10.2185,10.306,10.4179,10.5312,10.5625,10.5651,10.5899,10.6253,10.5944,10.5982,10.6174,10.6059,10.629,10.5867,10.4674,10.402,10.3635,10.3058,10.3866,10.402,10.3943,10.4405,10.5136,10.5713,10.5674,10.5559,10.4713,10.3443,10.2366,10.175,10.1866,10.2097,10.1904,10.202,10.2058,10.1597,10.1327,10.1289,10.1289,10.1289,10.0981,10.0635,9.9827,9.9712,9.9865,9.9365,9.8673,9.8365,9.8019,9.7326,9.6865,9.6557,9.6326,9.6596,9.7057,9.7788,9.8173,9.8404,9.9558,10.1212,10.1481,10.1558,10.1635,10.1866,10.2135,10.7304,10.7734,10.6289,10.5547,10.5429,10.4844,10.4961,10.5586,10.5781,10.5781,10.5547,10.4726,10.4375,10.3633,10.2656,10.2578,10.2461,10.2344,10.25,10.2539,10.2812,10.2539,10.2265,10.207,10.2148,10.2383,10.2851,10.3008,10.3125,10.3711,10.3945,10.3359,10.3359,10.3474,10.2499,10.2044,10.1827,10.1789,10.2251,10.252,10.2635,10.2904,10.2635,10.2058,10.125,10.1289,10.1135,10.0827,10.0712,10.1461,10.2483,10.3411,10.4179,10.5195,10.5547,10.5632,10.5841,10.6064,10.6097,10.5944,10.5713,10.5559,10.5982,10.5443,10.4174,10.3558,10.3174,10.3289,10.4097,10.4674,10.4636,10.5136,10.5867,10.629,10.6097,10.5674,10.4405,10.3251,10.2443,10.1597,10.1597,10.1943,10.2058,10.2251,10.1981,10.1481,10.1327,10.1327,10.1289,10.1289,10.1173,10.0981,10.0558,10.0673,10.0827,10.0481,9.9596,9.9096,9.8634,9.7519,9.6711,9.6711,9.6865,9.725,9.7788,9.8442,9.9096,9.9519,10.0904,10.2135,10.2135,10.2135,10.2828,10.3058,10.3405,10.7812,10.789,10.6875,10.6133,10.5625,10.5976,10.6328,10.6562,10.7187,10.7187,10.6367,10.5625,10.4922,10.4179,10.3164,10.2656,10.2226,10.2148,10.1992,10.1953,10.25,10.2656,10.2851,10.3125,10.3554,10.3763,10.3898,10.4094,10.3958,10.4453,10.4531,10.3789,10.3945,10.3569,10.2382,10.2028,10.1866,10.1827,10.1943,10.2251,10.2097,10.2404,10.3097,10.2289,10.1019,10.1481,10.1558,10.0789,10.0827,10.1431,10.2565,10.3531,10.4219,10.4765,10.5078,10.5398,10.5647,10.564,10.5713,10.5751,10.5443,10.502,10.5059,10.4328,10.3405,10.2943,10.2558,10.2212,10.2981,10.3982,10.4366,10.552,10.6328,10.6367,10.6251,10.5405,10.4366,10.3674,10.302,10.2097,10.1443,10.1635,10.175,10.1827,10.1789,10.1481,10.1481,10.1481,10.1327,10.1289,10.1289,10.1212,10.1058,10.0673,10.0442,10.1019,10.0519,9.9981,9.925,9.8211,9.748,9.7173,9.7403,9.798,9.8442,9.8981,9.9635,10.0558,10.1212,10.2212,10.2443,10.2712,10.3558,10.4174,10.4443]},{"header":{"parameterUnit":"m.s-1","parameterCategory":1,"la1":31.0,"la2":29.5877,"lo1":-88.7671,"lo2":-86.6584,"dy":0.0162,"dx":0.0185,"nx":115,"ny":88,"refTime":"2023-10-16T00:00:00:Z","depth":0,"parameterNumber":3,"parameterNumberName":"V-component_of_WINDS"},"data":[0.0,0.0,0.0,0.0,0.0,0.0,0.0,0.0,0.0,0.0,0.0,0.0,0.0,0.0,0.0,0.0,0.0,0.0,0.0,0.0,0.0,0.0,0.0,0.0,0.0,0.0,0.0,0.0,0.0,0.0,0.0,0.0,0.0,0.0,0.0,0.0,0.0,0.0,0.0,0.0,0.0,0.0,0.0,0.0,0.0,0.0,0.0,0.0,0.0,0.0,0.0,0.0,0.0,0.0,0.0,0.0,0.0,0.0,0.0,0.0,0.0,0.0,0.0,0.0,0.0,0.0,0.0,0.0,0.0,0.0,0.0,0.0,0.0,0.0,0.0,0.0,0.0,0.0,0.0,0.0,0.0,0.0,0.0,0.0,0.0,0.0,0.0,0.0,0.0,0.0,0.0,0.0,0.0,0.0,0.0,0.0,0.0,0.0,0.0,0.0,0.0,0.0,0.0,0.0,0.0,0.0,0.0,0.0,0.0,0.0,0.0,0.0,0.0,0.0,0.0,0.0,0.0,0.0,0.0,0.0,0.0,0.0,0.0,0.0,0.0,0.0,0.0,0.0,0.0,0.0,0.0,0.0,0.0,0.0,0.0,0.0,0.0,0.0,0.0,0.0,0.0,0.0,0.0,0.0,0.0,0.0,0.0,0.0,0.0,0.0,0.0,0.0,0.0,0.0,0.0,0.0,0.0,0.0,0.0,0.0,0.0,0.0,0.0,0.0,0.0,0.0,0.0,0.0,0.0,0.0,0.0,0.0,0.0,0.0,0.0,0.0,0.0,0.0,0.0,0.0,0.0,0.0,0.0,0.0,0.0,0.0,0.0,0.0,0.0,0.0,0.0,0.0,0.0,0.0,0.0,0.0,0.0,0.0,0.0,0.0,0.0,0.0,0.0,0.0,0.0,0.0,0.0,0.0,0.0,0.0,0.0,0.0,0.0,0.0,0.0,0.0,0.0,0.0,0.0,0.0,0.0,0.0,0.0,0.0,0.0,0.0,0.0,0.0,0.0,0.0,0.0,0.0,0.0,0.0,0.0,0.0,0.0,0.0,0.0,0.0,0.0,0.0,0.0,0.0,0.0,0.0,0.0,0.0,0.0,0.0,0.0,0.0,0.0,0.0,0.0,0.0,0.0,0.0,0.0,0.0,0.0,0.0,0.0,0.0,0.0,0.0,0.0,0.0,0.0,0.0,0.0,0.0,0.0,0.0,0.0,0.0,0.0,0.0,0.0,0.0,0.0,0.0,0.0,0.0,0.0,0.0,0.0,0.0,0.0,0.0,0.0,0.0,0.0,0.0,0.0,0.0,0.0,0.0,0.0,0.0,0.0,0.0,0.0,0.0,0.0,0.0,0.0,0.0,0.0,0.0,0.0,0.0,0.0,0.0,0.0,0.0,0.0,0.0,0.0,0.0,0.0,0.0,0.0,0.0,0.0,0.0,0.0,0.0,0.0,0.0,0.0,0.0,0.0,0.0,0.0,0.0,0.0,0.0,0.0,0.0,0.0,0.0,0.0,0.0,0.0,0.0,0.0,0.0,0.0,0.0,0.0,0.0,0.0,0.0,0.0,0.0,0.0,0.0,0.0,0.0,0.0,0.0,0.0,0.0,0.0,0.0,0.0,0.0,0.0,0.0,0.0,0.0,0.0,0.0,0.0,0.0,0.0,0.0,0.0,0.0,0.0,0.0,0.0,0.0,0.0,0.0,0.0,0.0,0.0,0.0,0.0,0.0,0.0,0.0,0.0,0.0,0.0,0.0,0.0,0.0,0.0,0.0,0.0,0.0,0.0,0.0,0.0,0.0,0.0,0.0,0.0,0.0,0.0,0.0,0.0,0.0,0.0,0.0,0.0,0.0,0.0,0.0,0.0,0.0,0.0,0.0,0.0,0.0,0.0,0.0,0.0,0.0,0.0,0.0,0.0,0.0,0.0,0.0,0.0,0.0,0.0,0.0,0.0,0.0,0.0,0.0,0.0,0.0,0.0,0.0,0.0,0.0,0.0,0.0,0.0,0.0,0.0,0.0,0.0,0.0,0.0,0.0,0.0,0.0,0.0,0.0,0.0,0.0,0.0,0.0,0.0,0.0,0.0,0.0,0.0,0.0,0.0,0.0,0.0,0.0,0.0,0.0,0.0,0.0,0.0,0.0,0.0,0.0,0.0,0.0,0.0,0.0,0.0,0.0,0.0,0.0,0.0,0.0,0.0,0.0,0.0,0.0,0.0,0.0,0.0,0.0,0.0,0.0,0.0,0.0,0.0,0.0,0.0,0.0,0.0,0.0,0.0,0.0,0.0,0.0,0.0,0.0,0.0,0.0,0.0,0.0,0.0,0.0,0.0,0.0,0.0,0.0,0.0,0.0,0.0,0.0,0.0,0.0,0.0,0.0,0.0,0.0,0.0,0.0,0.0,0.0,0.0,0.0,0.0,0.0,0.0,0.0,0.0,0.0,0.0,0.0,0.0,0.0,0.0,0.0,0.0,0.0,0.0,0.0,0.0,0.0,0.0,0.0,0.0,0.0,0.0,0.0,0.0,0.0,0.0,0.0,0.0,0.0,0.0,0.0,0.0,0.0,0.0,0.0,0.0,0.0,0.0,0.0,0.0,0.0,0.0,0.0,0.0,0.0,0.0,0.0,0.0,0.0,0.0,0.0,0.0,0.0,0.0,0.0,0.0,0.0,0.0,0.0,0.0,0.0,0.0,0.0,0.0,0.0,0.0,0.0,0.0,0.0,0.0,0.0,0.0,0.0,0.0,0.0,0.0,0.0,0.0,0.0,0.0,0.0,0.0,0.0,0.0,0.0,0.0,0.0,0.0,0.0,0.0,0.0,0.0,0.0,0.0,0.0,0.0,0.0,0.0,0.0,0.0,0.0,0.0,0.0,0.0,0.0,0.0,0.0,0.0,0.0,0.0,0.0,0.0,0.0,0.0,0.0,0.0,0.0,0.0,0.0,0.0,0.0,0.0,0.0,0.0,0.0,0.0,0.0,0.0,0.0,0.0,0.0,0.0,0.0,0.0,0.0,0.0,0.0,0.0,0.0,0.0,0.0,0.0,0.0,0.0,0.0,0.0,0.0,0.0,0.0,0.0,0.0,0.0,0.0,0.0,0.0,0.0,0.0,0.0,0.0,0.0,0.0,0.0,0.0,0.0,0.0,0.0,0.0,0.0,0.0,0.0,0.0,0.0,0.0,0.0,0.0,0.0,0.0,0.0,0.0,0.0,0.0,0.0,0.0,0.0,0.0,0.0,0.0,0.0,0.0,0.0,0.0,0.0,0.0,0.0,0.0,0.0,0.0,0.0,0.0,0.0,0.0,0.0,0.0,0.0,0.0,0.0,0.0,0.0,0.0,0.0,0.0,0.0,0.0,0.0,0.0,0.0,0.0,0.0,0.0,0.0,0.0,0.0,0.0,0.0,0.0,0.0,0.0,0.0,0.0,0.0,0.0,0.0,0.0,0.0,0.0,0.0,0.0,0.0,0.0,0.0,0.0,0.0,0.0,0.0,0.0,0.0,0.0,0.0,0.0,0.0,0.0,0.0,0.0,0.0,0.0,0.0,0.0,0.0,0.0,0.0,0.0,0.0,0.0,0.0,0.0,0.0,0.0,0.0,0.0,0.0,0.0,0.0,0.0,0.0,0.0,0.0,0.0,0.0,0.0,0.0,0.0,0.0,0.0,0.0,0.0,0.0,0.0,0.0,0.0,0.0,0.0,0.0,0.0,0.0,0.0,0.0,0.0,0.0,0.0,0.0,0.0,0.0,0.0,0.0,0.0,0.0,0.0,0.0,0.0,0.0,0.0,0.0,0.0,0.0,0.0,0.0,0.0,0.0,0.0,0.0,0.0,0.0,0.0,0.0,0.0,0.0,0.0,0.0,0.0,0.0,0.0,0.0,0.0,0.0,0.0,0.0,0.0,0.0,0.0,0.0,0.0,0.0,0.0,0.0,0.0,0.0,0.0,0.0,0.0,0.0,0.0,0.0,0.0,0.0,0.0,0.0,0.0,0.0,0.0,0.0,0.0,0.0,0.0,0.0,0.0,0.0,0.0,0.0,0.0,0.0,0.0,0.0,0.0,0.0,0.0,0.0,0.0,0.0,0.0,0.0,0.0,0.0,0.0,0.0,0.0,0.0,0.0,0.0,0.0,0.0,0.0,0.0,0.0,0.0,0.0,0.0,0.0,0.0,0.0,0.0,0.0,0.0,0.0,0.0,0.0,0.0,0.0,0.0,0.0,0.0,0.0,0.0,0.0,0.0,0.0,0.0,0.0,-0.9123,0.0,0.0,0.0,0.0,0.0,0.0,0.0,0.0,0.0,0.0,0.0,0.0,0.0,0.0,0.0,0.0,0.0,0.0,0.0,0.0,0.0,0.0,0.0,0.0,0.0,0.0,0.0,0.0,0.0,0.0,0.0,0.0,0.0,0.0,0.0,0.0,0.0,0.0,0.0,0.0,0.0,0.0,0.0,0.0,0.0,0.0,0.0,0.0,0.0,0.0,0.0,0.0,0.0,0.0,0.0,0.0,0.0,0.0,0.0,0.0,0.0,0.0,0.0,0.0,0.0,0.0,0.0,0.0,0.0,0.0,0.0,0.0,0.0,0.0,0.0,0.0,0.0,0.0,0.0,0.0,0.0,0.0,0.0,0.0,0.0,0.0,0.0,0.0,0.0,0.0,0.0,0.0,0.0,0.0,0.0,0.0,0.0,0.0,0.0,0.0,0.0,0.0,0.0,0.0,0.0,0.0,0.0,0.0,0.0,0.0,-0.9686,-0.9612,-0.9476,-0.9327,-0.9157,0.0,0.0,0.0,0.0,0.0,0.0,0.0,0.0,0.0,0.0,0.0,0.0,0.0,0.0,0.0,0.0,0.0,0.0,0.0,0.0,0.0,0.0,0.0,0.0,0.0,0.0,0.0,0.0,0.0,0.0,0.0,0.0,0.0,0.0,0.0,0.0,0.0,0.0,0.0,0.0,0.0,0.0,0.0,0.0,0.0,0.0,0.0,0.0,0.0,0.0,0.0,0.0,0.0,0.0,0.0,0.0,0.0,0.0,0.0,0.0,0.0,0.0,0.0,0.0,0.0,0.0,0.0,0.0,0.0,0.0,0.0,0.0,0.0,0.0,0.0,0.0,0.0,0.0,0.0,0.0,0.0,0.0,0.0,0.0,0.0,0.0,0.0,0.0,0.0,0.0,0.0,0.0,0.0,0.0,0.0,0.0,0.0,0.0,0.0,0.0,0.0,0.0,0.0,0.0,0.0,0.0,0.0,0.0,0.0,0.0,0.0,0.0,-0.9625,-0.9462,-0.9164,0.0,0.0,0.0,0.0,0.0,0.0,0.0,0.0,0.0,0.0,0.0,0.0,0.0,0.0,0.0,0.0,0.0,0.0,0.0,0.0,0.0,0.0,0.0,0.0,0.0,0.0,0.0,0.0,0.0,0.0,0.0,0.0,0.0,0.0,0.0,0.0,0.0,0.0,0.0,0.0,0.0,0.0,0.0,0.0,0.0,0.0,0.0,0.0,0.0,0.0,0.0,0.0,0.0,0.0,0.0,0.0,0.0,0.0,0.0,0.0,0.0,0.0,0.0,0.0,0.0,0.0,0.0,0.0,0.0,0.0,0.0,0.0,0.0,0.0,0.0,0.0,0.0,0.0,0.0,0.0,0.0,0.0,0.0,0.0,0.0,0.0,0.0,0.0,0.0,0.0,0.0,0.0,0.0,0.0,0.0,0.0,0.0,0.0,0.0,0.0,0.0,0.0,0.0,0.0,0.0,0.0,0.0,0.0,0.0,0.0,-0.9815,-0.9802,-0.968,0.0,-0.9171,0.0,0.0,0.0,0.0,0.0,0.0,0.0,0.0,0.0,0.0,0.0,0.0,0.0,0.0,0.0,0.0,0.0,0.0,0.0,0.0,0.0,0.0,0.0,0.0,0.0,0.0,0.0,0.0,0.0,0.0,0.0,0.0,0.0,0.0,0.0,0.0,0.0,0.0,0.0,0.0,0.0,0.0,0.0,0.0,0.0,0.0,0.0,0.0,0.0,0.0,0.0,0.0,0.0,0.0,0.0,0.0,0.0,0.0,0.0,0.0,0.0,0.0,0.0,0.0,0.0,0.0,0.0,0.0,0.0,0.0,0.0,0.0,0.0,0.0,0.0,0.0,0.0,0.0,0.0,0.0,0.0,0.0,0.0,0.0,0.0,0.0,0.0,0.0,0.0,0.0,0.0,0.0,0.0,0.0,0.0,0.0,0.0,0.0,0.0,0.0,0.0,0.0,0.0,0.0,0.0,0.0,0.0,0.0,0.0,0.0,-0.9822,-0.9822,-0.9686,-0.951,0.0,0.0,0.0,0.0,0.0,0.0,0.0,0.0,0.0,0.0,0.0,0.0,0.0,0.0,0.0,0.0,0.0,0.0,0.0,0.0,0.0,0.0,0.0,0.0,0.0,0.0,0.0,0.0,0.0,0.0,0.0,0.0,0.0,0.0,0.0,0.0,0.0,0.0,0.0,0.0,0.0,0.0,0.0,0.0,0.0,0.0,0.0,0.0,0.0,0.0,0.0,0.0,0.0,0.0,0.0,0.0,0.0,0.0,0.0,0.0,0.0,0.0,0.0,0.0,0.0,0.0,0.0,0.0,0.0,0.0,0.0,0.0,0.0,0.0,0.0,0.0,0.0,0.0,0.0,0.0,0.0,0.0,0.0,0.0,0.0,0.0,0.0,0.0,0.0,0.0,0.0,0.0,0.0,0.0,0.0,0.0,0.0,0.0,0.0,0.0,0.0,0.0,0.0,0.0,0.0,0.0,0.0,0.0,0.0,0.0,-0.9822,-0.9822,-0.9815,-0.968,-0.9537,-0.9388,0.0,0.0,0.0,0.0,0.0,0.0,0.0,0.0,0.0,0.0,0.0,0.0,0.0,0.0,0.0,0.0,0.0,0.0,0.0,0.0,0.0,0.0,0.0,0.0,0.0,0.0,0.0,0.0,0.0,0.0,0.0,0.0,0.0,0.0,0.0,0.0,0.0,0.0,0.0,0.0,0.0,0.0,0.0,0.0,0.0,0.0,0.0,0.0,0.0,0.0,0.0,0.0,0.0,0.0,0.0,0.0,0.0,0.0,0.0,0.0,0.0,0.0,0.0,0.0,0.0,0.0,0.0,0.0,0.0,0.0,0.0,0.0,0.0,0.0,0.0,0.0,0.0,0.0,0.0,0.0,0.0,0.0,0.0,0.0,0.0,0.0,0.0,0.0,0.0,0.0,0.0,0.0,0.0,0.0,0.0,0.0,0.0,0.0,0.0,0.0,0.0,0.0,0.0,0.0,0.0,0.0,0.0,0.0,-0.9822,-0.9822,-0.9822,-0.9822,-0.9686,-0.9537,0.0,0.0,0.0,0.0,0.0,0.0,0.0,0.0,0.0,0.0,0.0,0.0,0.0,0.0,0.0,0.0,0.0,0.0,0.0,0.0,0.0,0.0,0.0,0.0,0.0,0.0,0.0,0.0,0.0,0.0,0.0,0.0,0.0,0.0,0.0,0.0,0.0,0.0,0.0,0.0,0.0,0.0,0.0,0.0,0.0,0.0,0.0,0.0,0.0,0.0,0.0,0.0,0.0,0.0,0.0,0.0,0.0,0.0,0.0,0.0,0.0,0.0,0.0,0.0,0.0,0.0,0.0,0.0,0.0,0.0,0.0,0.0,0.0,0.0,0.0,0.0,0.0,0.0,0.0,0.0,0.0,0.0,0.0,0.0,0.0,0.0,0.0,0.0,0.0,0.0,0.0,0.0,0.0,0.0,0.0,0.0,0.0,0.0,0.0,0.0,0.0,0.0,0.0,0.0,0.0,0.0,0.0,0.0,0.0,-0.9822,-0.9822,-0.9822,-0.9822,-0.9774,-0.9632,0.0,0.0,0.0,0.0,0.0,0.0,0.0,0.0,0.0,0.0,0.0,0.0,0.0,0.0,0.0,0.0,0.0,0.0,0.0,0.0,0.0,0.0,0.0,0.0,0.0,0.0,0.0,0.0,0.0,0.0,0.0,0.0,0.0,0.0,0.0,0.0,0.0,0.0,0.0,0.0,0.0,0.0,0.0,0.0,0.0,0.0,0.0,0.0,0.0,0.0,0.0,0.0,0.0,0.0,0.0,0.0,0.0,0.0,0.0,0.0,0.0,0.0,0.0,0.0,0.0,0.0,0.0,0.0,0.0,0.0,0.0,0.0,0.0,0.0,0.0,0.0,0.0,0.0,0.0,0.0,0.0,0.0,0.0,0.0,0.0,0.0,0.0,0.0,0.0,0.0,0.0,0.0,0.0,0.0,0.0,0.0,0.0,0.0,0.0,0.0,0.0,0.0,0.0,0.0,0.0,0.0,0.0,0.0,0.0,-0.9822,0.0,-0.9822,-0.9822,-0.9822,-0.9707,0.0,0.0,0.0,0.0,0.0,0.0,0.0,0.0,0.0,0.0,0.0,0.0,0.0,0.0,0.0,0.0,0.0,0.0,0.0,0.0,0.0,0.0,0.0,0.0,0.0,0.0,0.0,0.0,0.0,0.0,0.0,0.0,0.0,0.0,0.0,0.0,0.0,0.0,0.0,0.0,0.0,0.0,0.0,0.0,0.0,0.0,0.0,0.0,0.0,0.0,0.0,0.0,0.0,0.0,0.0,0.0,0.0,0.0,0.0,0.0,0.0,0.0,0.0,0.0,0.0,0.0,0.0,0.0,0.0,0.0,0.0,0.0,0.0,0.0,0.0,0.0,0.0,0.0,0.0,0.0,0.0,0.0,0.0,0.0,0.0,0.0,0.0,0.0,0.0,0.0,0.0,0.0,0.0,0.0,0.0,0.0,0.0,0.0,0.0,0.0,0.0,0.0,0.0,0.0,0.0,0.0,0.0,0.0,-0.9822,-0.9822,-0.9836,-0.9842,-0.9829,-0.9836,-0.9761,0.0,0.0,0.0,0.0,0.0,0.0,0.0,0.0,0.0,0.0,0.0,0.0,0.0,0.0,0.0,0.0,0.0,0.0,0.0,0.0,0.0,0.0,0.0,0.0,0.0,0.0,0.0,0.0,0.0,0.0,0.0,0.0,0.0,0.0,0.0,0.0,0.0,0.0,0.0,0.0,0.0,0.0,0.0,0.0,0.0,0.0,0.0,0.0,0.0,0.0,0.0,0.0,0.0,0.0,0.0,0.0,0.0,0.0,0.0,0.0,0.0,0.0,0.0,0.0,0.0,0.0,0.0,0.0,0.0,0.0,0.0,0.0,0.0,0.0,0.0,0.0,0.0,0.0,0.0,0.0,0.0,0.0,0.0,0.0,0.0,0.0,0.0,0.0,0.0,0.0,0.0,0.0,0.0,0.0,0.0,0.0,0.0,0.0,0.0,0.0,0.0,0.0,0.0,0.0,0.0,0.0,0.0,0.0,0.0,-0.9985,-1.0086,-1.0141,-1.0134,-1.0032,-0.991,0.0,0.0,0.0,0.0,0.0,0.0,0.0,0.0,0.0,0.0,0.0,0.0,0.0,0.0,0.0,0.0,0.0,0.0,0.0,0.0,0.0,0.0,0.0,0.0,0.0,0.0,0.0,0.0,0.0,0.0,0.0,0.0,0.0,0.0,0.0,0.0,0.0,0.0,0.0,0.0,0.0,0.0,0.0,0.0,0.0,0.0,0.0,0.0,0.0,0.0,0.0,0.0,0.0,0.0,0.0,0.0,0.0,0.0,0.0,0.0,0.0,0.0,0.0,0.0,0.0,0.0,0.0,0.0,0.0,0.0,0.0,0.0,0.0,0.0,0.0,0.0,0.0,0.0,0.0,0.0,0.0,0.0,0.0,0.0,0.0,0.0,0.0,0.0,0.0,0.0,0.0,0.0,0.0,0.0,0.0,0.0,0.0,0.0,0.0,0.0,0.0,0.0,0.0,0.0,0.0,0.0,0.0,0.0,0.0,-1.0378,-1.0365,-1.0358,-1.0358,-1.0263,-1.0114,-0.991,0.0,0.0,0.0,0.0,0.0,0.0,0.0,0.0,0.0,0.0,0.0,0.0,0.0,0.0,0.0,0.0,0.0,0.0,0.0,0.0,0.0,0.0,0.0,0.0,0.0,0.0,0.0,0.0,0.0,0.0,0.0,0.0,0.0,0.0,0.0,0.0,0.0,0.0,0.0,0.0,0.0,0.0,0.0,0.0,0.0,0.0,0.0,0.0,0.0,0.0,0.0,0.0,0.0,0.0,0.0,0.0,0.0,0.0,0.0,0.0,0.0,0.0,0.0,0.0,0.0,0.0,0.0,0.0,0.0,0.0,0.0,0.0,0.0,0.0,0.0,0.0,0.0,0.0,0.0,0.0,0.0,0.0,0.0,0.0,0.0,0.0,0.0,0.0,0.0,0.0,0.0,0.0,0.0,0.0,0.0,0.0,0.0,0.0,0.0,0.0,0.0,0.0,0.0,0.0,0.0,0.0,0.0,0.0,-1.0968,-1.0704,-1.0561,-1.0548,-1.0527,-1.0378,0.0,0.0,0.0,0.0,0.0,0.0,0.0,0.0,0.0,0.0,0.0,0.0,0.0,0.0,0.0,0.0,0.0,0.0,0.0,0.0,0.0,0.0,0.0,0.0,0.0,0.0,0.0,0.0,0.0,0.0,0.0,0.0,0.0,0.0,0.0,0.0,0.0,0.0,0.0,0.0,0.0,0.0,0.0,0.0,0.0,0.0,0.0,0.0,0.0,0.0,0.0,0.0,0.0,0.0,0.0,0.0,0.0,0.0,0.0,0.0,0.0,0.0,0.0,0.0,0.0,0.0,0.0,0.0,0.0,0.0,0.0,0.0,0.0,0.0,0.0,0.0,0.0,0.0,0.0,0.0,0.0,0.0,0.0,0.0,0.0,0.0,0.0,0.0,0.0,0.0,0.0,0.0,0.0,0.0,0.0,0.0,0.0,0.0,0.0,0.0,0.0,0.0,0.0,0.0,0.0,0.0,0.0,0.0,0.0,-1.1399,-1.1307,-1.1267,-1.1158,-1.0941,-1.069,0.0,0.0,0.0,0.0,0.0,0.0,0.0,0.0,0.0,0.0,0.0,0.0,0.0,0.0,0.0,0.0,0.0,0.0,0.0,0.0,0.0,0.0,0.0,0.0,0.0,0.0,0.0,0.0,0.0,0.0,0.0,0.0,0.0,0.0,0.0,0.0,0.0,0.0,0.0,0.0,0.0,0.0,0.0,0.0,0.0,0.0,0.0,0.0,0.0,0.0,0.0,0.0,0.0,0.0,0.0,0.0,0.0,0.0,0.0,0.0,0.0,0.0,0.0,0.0,0.0,0.0,0.0,0.0,0.0,0.0,0.0,0.0,0.0,0.0,0.0,0.0,0.0,0.0,0.0,0.0,0.0,0.0,0.0,0.0,0.0,0.0,0.0,0.0,0.0,0.0,0.0,0.0,0.0,0.0,0.0,0.0,0.0,0.0,0.0,0.0,0.0,0.0,0.0,0.0,0.0,0.0,0.0,0.0,-1.1036,-1.1626,-1.1701,-1.1762,-1.1674,-1.1321,-1.0962,0.0,0.0,0.0,0.0,0.0,0.0,0.0,0.0,0.0,0.0,0.0,0.0,0.0,0.0,0.0,0.0,0.0,0.0,0.0,0.0,0.0,0.0,0.0,0.0,0.0,0.0,0.0,0.0,0.0,0.0,0.0,0.0,0.0,0.0,0.0,0.0,0.0,0.0,0.0,0.0,0.0,0.0,0.0,0.0,0.0,0.0,0.0,0.0,0.0,0.0,0.0,0.0,0.0,0.0,0.0,0.0,0.0,0.0,0.0,0.0,0.0,0.0,0.0,0.0,0.0,0.0,0.0,0.0,0.0,0.0,0.0,0.0,0.0,0.0,0.0,0.0,0.0,0.0,0.0,0.0,0.0,0.0,0.0,0.0,0.0,0.0,0.0,0.0,0.0,0.0,0.0,0.0,0.0,0.0,0.0,0.0,0.0,0.0,0.0,0.0,0.0,0.0,0.0,0.0,0.0,0.0,0.0,0.0,-1.1212,-1.166,-1.1938,-1.2094,-1.2094,-1.166,-1.1206,0.0,0.0,0.0,0.0,0.0,0.0,0.0,0.0,0.0,0.0,0.0,0.0,0.0,0.0,0.0,0.0,0.0,0.0,0.0,0.0,0.0,0.0,0.0,0.0,0.0,0.0,0.0,0.0,0.0,0.0,0.0,0.0,0.0,0.0,0.0,0.0,0.0,0.0,0.0,0.0,0.0,0.0,0.0,0.0,0.0,0.0,0.0,0.0,0.0,0.0,0.0,0.0,0.0,0.0,0.0,0.0,0.0,0.0,0.0,0.0,0.0,0.0,0.0,0.0,0.0,0.0,0.0,0.0,0.0,0.0,0.0,0.0,0.0,0.0,0.0,0.0,0.0,0.0,0.0,0.0,0.0,0.0,0.0,0.0,0.0,0.0,0.0,0.0,0.0,0.0,0.0,0.0,0.0,0.0,0.0,0.0,0.0,0.0,0.0,0.0,0.0,0.0,0.0,0.0,0.0,0.0,0.0,0.0,-1.166,-1.2261,-1.2299,-1.2298,-1.2406,-1.1864,-1.1362,0.0,0.0,0.0,0.0,0.0,0.0,0.0,0.0,0.0,0.0,0.0,0.0,0.0,0.0,0.0,0.0,0.0,0.0,0.0,0.0,0.0,0.0,0.0,0.0,0.0,0.0,0.0,0.0,0.0,0.0,0.0,0.0,0.0,0.0,0.0,0.0,0.0,0.0,0.0,0.0,0.0,0.0,0.0,0.0,0.0,0.0,0.0,0.0,-1.391,0.0,0.0,0.0,0.0,0.0,0.0,0.0,0.0,0.0,0.0,0.0,0.0,0.0,0.0,0.0,0.0,0.0,0.0,0.0,0.0,0.0,0.0,0.0,0.0,0.0,0.0,0.0,0.0,0.0,0.0,0.0,0.0,0.0,0.0,0.0,0.0,0.0,0.0,0.0,0.0,0.0,0.0,0.0,0.0,0.0,0.0,0.0,0.0,0.0,0.0,0.0,0.0,0.0,0.0,0.0,0.0,0.0,0.0,0.0,-1.1791,-1.2771,-1.2471,-1.2427,-1.2481,-1.206,-1.1613,0.0,0.0,0.0,0.0,0.0,0.0,0.0,0.0,0.0,0.0,0.0,0.0,0.0,0.0,0.0,0.0,0.0,0.0,0.0,0.0,0.0,0.0,0.0,0.0,0.0,0.0,0.0,0.0,0.0,0.0,0.0,0.0,0.0,0.0,0.0,0.0,0.0,0.0,0.0,0.0,0.0,0.0,0.0,0.0,0.0,0.0,0.0,0.0,0.0,0.0,0.0,0.0,0.0,0.0,0.0,0.0,0.0,0.0,0.0,0.0,0.0,0.0,0.0,0.0,0.0,0.0,0.0,0.0,0.0,0.0,0.0,0.0,0.0,0.0,0.0,0.0,0.0,0.0,0.0,0.0,0.0,0.0,0.0,0.0,0.0,0.0,0.0,0.0,0.0,0.0,0.0,0.0,0.0,0.0,0.0,0.0,0.0,0.0,0.0,0.0,0.0,0.0,0.0,0.0,0.0,0.0,0.0,-1.1188,-1.1928,-1.2963,-1.2656,-1.2576,-1.2569,-1.2264,-1.1884,-1.1436,0.0,0.0,0.0,0.0,0.0,0.0,0.0,0.0,0.0,0.0,0.0,0.0,0.0,0.0,0.0,0.0,0.0,0.0,0.0,0.0,0.0,0.0,0.0,0.0,0.0,0.0,0.0,0.0,0.0,0.0,0.0,0.0,0.0,0.0,0.0,0.0,0.0,0.0,-1.9389,-1.8922,0.0,0.0,0.0,0.0,0.0,0.0,0.0,0.0,-1.2969,0.0,0.0,0.0,0.0,0.0,0.0,0.0,0.0,0.0,0.0,0.0,0.0,0.0,0.0,0.0,0.0,0.0,0.0,0.0,0.0,0.0,0.0,0.0,0.0,0.0,0.0,0.0,0.0,0.0,0.0,0.0,0.0,0.0,0.0,0.0,0.0,0.0,0.0,0.0,0.0,0.0,0.0,0.0,0.0,0.0,0.0,0.0,0.0,0.0,0.0,0.0,0.0,0.0,0.0,0.0,0.0,-1.0595,-1.1583,-1.2333,-1.297,-1.2972,-1.2888,-1.2874,-1.2474,-1.204,-1.1592,0.0,0.0,0.0,0.0,0.0,0.0,0.0,0.0,0.0,0.0,0.0,0.0,0.0,0.0,0.0,0.0,0.0,0.0,0.0,0.0,0.0,0.0,0.0,0.0,0.0,0.0,0.0,0.0,0.0,0.0,0.0,0.0,0.0,0.0,0.0,0.0,0.0,0.0,0.0,-1.9957,-1.9699,0.0,0.0,0.0,0.0,0.0,0.0,0.0,0.0,-1.302,0.0,0.0,0.0,0.0,0.0,0.0,0.0,0.0,0.0,0.0,0.0,0.0,0.0,0.0,0.0,0.0,0.0,0.0,0.0,0.0,0.0,0.0,0.0,0.0,0.0,0.0,0.0,0.0,0.0,0.0,0.0,0.0,0.0,0.0,0.0,0.0,0.0,0.0,0.0,0.0,0.0,0.0,0.0,0.0,0.0,0.0,0.0,0.0,0.0,0.0,0.0,0.0,0.0,0.0,0.0,-1.12,-1.1724,-1.2471,-1.2999,-1.3157,-1.3037,-1.2956,-1.2596,-1.2155,0.0,0.0,0.0,0.0,0.0,0.0,0.0,0.0,0.0,0.0,0.0,0.0,0.0,0.0,0.0,0.0,0.0,0.0,0.0,0.0,0.0,0.0,0.0,0.0,0.0,0.0,0.0,0.0,0.0,0.0,0.0,0.0,0.0,0.0,0.0,0.0,0.0,0.0,0.0,0.0,-2.0558,-2.0361,-1.9711,0.0,0.0,0.0,0.0,0.0,0.0,-1.3558,-1.2708,0.0,0.0,0.0,0.0,0.0,0.0,0.0,0.0,0.0,0.0,0.0,0.0,0.0,0.0,0.0,0.0,0.0,0.0,0.0,0.0,0.0,0.0,0.0,0.0,0.0,0.0,0.0,0.0,0.0,0.0,0.0,0.0,0.0,0.0,0.0,0.0,0.0,0.0,0.0,0.0,0.0,0.0,0.0,0.0,0.0,0.0,0.0,0.0,0.0,0.0,0.0,0.0,0.0,0.0,0.0,-1.1462,-1.1999,-1.2433,-1.3061,-1.3112,-1.3119,-1.2922,-1.2651,-1.2223,0.0,0.0,0.0,0.0,0.0,0.0,0.0,0.0,0.0,0.0,0.0,0.0,0.0,0.0,0.0,0.0,0.0,0.0,0.0,0.0,0.0,0.0,0.0,0.0,0.0,0.0,0.0,0.0,0.0,0.0,0.0,0.0,0.0,0.0,0.0,0.0,0.0,0.0,0.0,0.0,0.0,-2.098,-2.0477,-1.9968,0.0,0.0,0.0,0.0,-1.4982,-1.3849,0.0,0.0,0.0,0.0,0.0,0.0,0.0,0.0,0.0,0.0,0.0,0.0,0.0,0.0,0.0,0.0,0.0,0.0,0.0,0.0,0.0,0.0,0.0,0.0,0.0,0.0,0.0,0.0,0.0,0.0,0.0,0.0,0.0,0.0,0.0,0.0,0.0,0.0,0.0,0.0,0.0,0.0,0.0,0.0,0.0,0.0,0.0,0.0,0.0,0.0,0.0,0.0,0.0,0.0,0.0,0.0,-1.1332,-1.2146,-1.2691,-1.2937,-1.3329,-1.3173,-1.2773,-1.2589,-1.2223,0.0,0.0,0.0,0.0,0.0,0.0,0.0,0.0,0.0,0.0,0.0,0.0,0.0,0.0,0.0,0.0,0.0,0.0,0.0,0.0,0.0,0.0,0.0,0.0,0.0,0.0,0.0,0.0,0.0,0.0,0.0,0.0,0.0,0.0,0.0,0.0,0.0,0.0,0.0,0.0,0.0,-2.1607,-2.1671,-2.0889,-1.9954,0.0,0.0,0.0,-1.6651,-1.5524,0.0,0.0,0.0,0.0,0.0,0.0,0.0,0.0,0.0,0.0,0.0,0.0,0.0,0.0,0.0,0.0,0.0,0.0,0.0,0.0,0.0,0.0,0.0,0.0,0.0,0.0,0.0,0.0,0.0,0.0,0.0,0.0,0.0,0.0,0.0,0.0,0.0,0.0,0.0,0.0,0.0,0.0,0.0,0.0,0.0,0.0,0.0,0.0,0.0,0.0,0.0,0.0,0.0,0.0,0.0,-1.1484,-1.1724,-1.244,-1.2813,-1.3143,-1.3254,-1.3268,-1.2983,-1.2671,-1.2305,0.0,0.0,0.0,0.0,0.0,0.0,0.0,0.0,0.0,0.0,0.0,0.0,0.0,0.0,0.0,0.0,0.0,0.0,0.0,0.0,0.0,0.0,0.0,0.0,0.0,0.0,0.0,0.0,0.0,0.0,0.0,0.0,0.0,0.0,0.0,0.0,0.0,0.0,0.0,0.0,0.0,0.0,-2.1925,-2.1546,0.0,0.0,0.0,-1.8466,-1.6945,0.0,0.0,0.0,0.0,0.0,0.0,0.0,0.0,0.0,0.0,0.0,0.0,0.0,0.0,0.0,0.0,0.0,0.0,0.0,0.0,0.0,0.0,0.0,0.0,0.0,0.0,0.0,0.0,0.0,0.0,0.0,0.0,0.0,0.0,0.0,0.0,0.0,0.0,0.0,0.0,0.0,0.0,0.0,0.0,0.0,0.0,0.0,0.0,0.0,0.0,0.0,0.0,0.0,0.0,0.0,0.0,0.0,-1.206,-1.2576,-1.2949,-1.3173,-1.3397,-1.3403,-1.318,-1.2807,0.0,0.0,0.0,0.0,0.0,0.0,0.0,0.0,0.0,0.0,0.0,0.0,0.0,0.0,0.0,0.0,0.0,0.0,0.0,0.0,0.0,0.0,0.0,0.0,0.0,0.0,0.0,0.0,0.0,0.0,0.0,0.0,0.0,0.0,0.0,0.0,0.0,0.0,0.0,0.0,0.0,0.0,-2.2873,-2.2579,-2.2225,-2.1645,0.0,0.0,-1.9404,-1.7048,-1.7739,-1.7414,0.0,0.0,0.0,0.0,0.0,0.0,0.0,0.0,0.0,0.0,0.0,0.0,0.0,0.0,0.0,0.0,0.0,0.0,0.0,0.0,0.0,0.0,0.0,0.0,0.0,0.0,0.0,0.0,0.0,0.0,0.0,0.0,0.0,0.0,0.0,0.0,0.0,0.0,0.0,0.0,0.0,0.0,0.0,0.0,0.0,0.0,0.0,0.0,0.0,0.0,0.0,0.0,0.0,0.0,0.0,-1.2223,-1.2773,-1.3315,-1.3356,-1.3593,-1.3607,-1.3186,-1.3017,-1.2657,0.0,0.0,0.0,0.0,0.0,0.0,0.0,0.0,0.0,0.0,0.0,0.0,0.0,0.0,0.0,0.0,0.0,0.0,0.0,0.0,0.0,0.0,0.0,0.0,0.0,0.0,0.0,0.0,0.0,0.0,0.0,0.0,0.0,0.0,0.0,0.0,0.0,0.0,0.0,0.0,0.0,-2.3487,-2.3981,-2.3049,-2.1886,0.0,0.0,-2.095,-1.7214,-1.7803,-1.7922,-1.5703,0.0,0.0,0.0,0.0,0.0,0.0,0.0,0.0,0.0,0.0,0.0,0.0,0.0,0.0,0.0,0.0,0.0,0.0,0.0,0.0,0.0,0.0,0.0,0.0,0.0,0.0,0.0,0.0,0.0,0.0,0.0,0.0,0.0,0.0,0.0,0.0,0.0,0.0,0.0,0.0,0.0,0.0,0.0,0.0,0.0,0.0,0.0,0.0,0.0,0.0,0.0,0.0,0.0,-1.1857,-1.2172,-1.2881,-1.3432,-1.3798,-1.3709,-1.3715,-1.3458,-1.322,-1.2854,0.0,0.0,0.0,0.0,0.0,0.0,0.0,0.0,0.0,0.0,0.0,0.0,0.0,0.0,0.0,0.0,0.0,0.0,0.0,0.0,0.0,0.0,0.0,0.0,0.0,0.0,0.0,0.0,-1.0791,-1.1921,-1.367,0.0,0.0,0.0,0.0,0.0,0.0,0.0,0.0,0.0,0.0,-2.4222,-2.4436,-2.2818,0.0,0.0,-2.0109,-1.888,-1.64,-1.7416,-1.7621,-1.4587,-1.4083,0.0,0.0,0.0,0.0,0.0,0.0,0.0,0.0,0.0,0.0,0.0,0.0,0.0,0.0,0.0,0.0,0.0,0.0,0.0,0.0,0.0,0.0,0.0,0.0,0.0,0.0,0.0,0.0,0.0,0.0,0.0,0.0,0.0,0.0,0.0,0.0,0.0,0.0,0.0,0.0,0.0,0.0,0.0,0.0,0.0,0.0,0.0,0.0,0.0,0.0,0.0,0.0,-1.1871,-1.2245,-1.2896,-1.3458,-1.3933,-1.3905,-1.3905,-1.3763,-1.3464,-1.3098,0.0,0.0,0.0,0.0,0.0,0.0,0.0,0.0,0.0,0.0,0.0,0.0,0.0,0.0,0.0,0.0,0.0,0.0,0.0,0.0,0.0,0.0,0.0,0.0,0.0,0.0,0.0,0.0,-1.0951,-1.2318,-1.4019,0.0,0.0,0.0,0.0,0.0,0.0,0.0,0.0,0.0,0.0,-2.4741,-2.4591,-2.2615,-2.1057,-2.0222,-1.8936,-1.7227,-1.4952,-1.6303,-1.6642,-1.3664,0.0,0.0,0.0,0.0,0.0,0.0,0.0,0.0,0.0,0.0,0.0,0.0,0.0,0.0,0.0,0.0,0.0,0.0,0.0,0.0,0.0,0.0,0.0,0.0,0.0,0.0,0.0,0.0,0.0,0.0,0.0,0.0,0.0,0.0,0.0,0.0,0.0,0.0,0.0,0.0,0.0,0.0,0.0,0.0,0.0,0.0,0.0,0.0,0.0,0.0,0.0,0.0,0.0,0.0,-1.2239,-1.3137,-1.3756,-1.4048,-1.4211,-1.4211,-1.4055,-1.3777,-1.341,-1.2956,0.0,0.0,0.0,0.0,0.0,0.0,0.0,0.0,0.0,0.0,0.0,0.0,0.0,0.0,0.0,0.0,0.0,0.0,0.0,0.0,0.0,0.0,0.0,0.0,0.0,0.0,-1.0322,-1.2395,-1.4099,0.0,0.0,0.0,0.0,0.0,0.0,0.0,0.0,0.0,0.0,-2.477,-2.5185,-2.4419,-2.2853,-2.088,-1.8329,-1.798,-1.6788,-1.3127,-1.4337,-1.5023,0.0,0.0,0.0,0.0,0.0,0.0,0.0,0.0,0.0,0.0,0.0,0.0,0.0,0.0,0.0,0.0,0.0,0.0,0.0,0.0,0.0,0.0,0.0,0.0,0.0,0.0,0.0,0.0,0.0,0.0,0.0,0.0,0.0,0.0,0.0,0.0,0.0,0.0,0.0,0.0,-1.1396,-1.1153,0.0,0.0,0.0,0.0,0.0,0.0,0.0,0.0,0.0,0.0,0.0,0.0,-1.2172,-1.2383,-1.3204,-1.3777,-1.4242,-1.4224,-1.4224,-1.4075,-1.3973,-1.362,-1.2976,0.0,0.0,0.0,0.0,0.0,0.0,0.0,0.0,0.0,0.0,0.0,0.0,0.0,0.0,0.0,0.0,0.0,0.0,0.0,0.0,0.0,0.0,0.0,0.0,0.0,-1.0538,0.0,0.0,0.0,0.0,0.0,0.0,0.0,0.0,0.0,0.0,0.0,-2.2921,-2.3903,-2.4355,-2.4296,-2.3696,-2.149,-1.9462,0.0,0.0,0.0,0.0,0.0,0.0,0.0,0.0,0.0,0.0,0.0,0.0,0.0,0.0,-1.1993,-1.1796,-1.1762,-1.1837,-1.2081,0.0,0.0,0.0,0.0,0.0,0.0,0.0,0.0,0.0,0.0,0.0,0.0,0.0,0.0,0.0,0.0,-1.1185,0.0,0.0,0.0,0.0,0.0,0.0,0.0,0.0,-1.1599,-1.1701,-1.185,-1.155,-1.1724,0.0,-1.1925,-1.1803,0.0,0.0,0.0,0.0,0.0,0.0,0.0,0.0,-1.238,-1.2695,-1.3305,-1.3851,-1.4318,-1.4251,-1.4251,-1.415,-1.4048,-1.3688,-1.3051,-1.2515,-1.2013,0.0,0.0,0.0,0.0,0.0,0.0,0.0,0.0,0.0,0.0,0.0,0.0,0.0,0.0,0.0,0.0,0.0,0.0,0.0,0.0,0.0,0.0,0.0,-1.0809,0.0,0.0,0.0,0.0,0.0,0.0,0.0,0.0,0.0,-2.1647,-2.2519,-2.3315,-2.3869,-2.3646,-2.2941,-2.2225,0.0,0.0,0.0,0.0,0.0,0.0,0.0,-1.3157,-1.3221,-1.3089,-1.2929,-1.2834,-1.2813,-1.2813,-1.2813,0.0,0.0,-1.2291,-1.2216,-1.2291,-1.2535,-1.2508,-1.2488,-1.263,-1.2657,-1.2657,0.0,0.0,0.0,0.0,0.0,0.0,0.0,0.0,-1.166,-1.166,0.0,-1.1653,0.0,0.0,0.0,0.0,0.0,0.0,0.0,0.0,-1.2026,-1.2169,-1.2311,-1.2172,-1.2239,-1.2522,-1.2528,-1.2461,-1.2298,-1.1894,0.0,0.0,0.0,0.0,0.0,0.0,-1.2888,-1.3023,-1.362,-1.3994,-1.4285,-1.4299,-1.4299,-1.4292,-1.4007,-1.3648,-1.322,-1.3037,-1.2617,-1.1898,-1.1708,0.0,0.0,0.0,0.0,0.0,0.0,0.0,0.0,0.0,0.0,0.0,0.0,0.0,0.0,0.0,0.0,0.0,0.0,0.0,0.0,-1.0772,0.0,0.0,0.0,0.0,0.0,0.0,0.0,0.0,0.0,0.0,-2.1209,-2.2682,-2.3661,-2.3532,0.0,0.0,0.0,0.0,-1.6664,-1.5729,-1.4418,-1.3472,-1.3157,-1.3112,-1.3193,-1.32,0.0,0.0,-1.341,-1.341,-1.3403,-1.341,-1.341,-1.3241,-1.2678,-1.2556,-1.2589,-1.2752,-1.2773,-1.28,-1.2942,-1.2996,-1.299,-1.2581,0.0,0.0,0.0,0.0,-1.2402,-1.2311,-1.2413,-1.2413,-1.2413,-1.2406,-1.2298,0.0,0.0,0.0,0.0,0.0,0.0,-1.2685,-1.2481,-1.2637,-1.2779,-1.2922,-1.2862,-1.2936,-1.3139,-1.3146,-1.3125,-1.3071,-1.2965,-1.2574,-1.1945,0.0,0.0,0.0,0.0,-1.3193,-1.3325,-1.3831,-1.4102,-1.4292,-1.4299,-1.4299,-1.4299,-1.4109,-1.3892,-1.3654,-1.3302,-1.2915,-1.2488,-1.1871,0.0,0.0,0.0,0.0,0.0,0.0,0.0,0.0,0.0,0.0,0.0,0.0,0.0,0.0,0.0,0.0,0.0,0.0,0.0,-1.0792,-1.0989,-1.1283,0.0,0.0,0.0,0.0,0.0,0.0,0.0,0.0,0.0,-1.9512,-2.088,-2.176,0.0,0.0,-1.9657,-1.8458,-1.7408,-1.63,-1.5424,0.0,0.0,0.0,-1.362,-1.3648,-1.3648,-1.3682,-1.3715,-1.3715,-1.3715,-1.3715,-1.3715,-1.3804,-1.3817,-1.3654,-1.3268,-1.3132,-1.3403,-1.3275,-1.3146,-1.3376,-1.3437,-1.3437,-1.3329,-1.3269,-1.3144,-1.3289,-1.3338,-1.2958,-1.2854,-1.2996,-1.2996,-1.2996,-1.299,-1.2735,-1.2661,-1.2759,-1.2454,0.0,0.0,0.0,-1.3179,-1.2996,-1.3091,-1.3214,-1.3356,-1.3271,-1.3345,-1.3573,-1.3748,-1.3713,-1.3318,-1.3403,-1.3267,-1.2766,0.0,0.0,-1.2779,-1.3214,-1.3559,-1.3626,-1.4041,-1.4231,-1.438,-1.4333,-1.4299,-1.4299,-1.4211,-1.4089,-1.3933,-1.3614,-1.3247,-1.2834,-1.242,-1.1932,0.0,0.0,0.0,0.0,0.0,0.0,0.0,0.0,0.0,0.0,0.0,-1.0066,0.0,0.0,0.0,0.0,-1.0785,-1.1016,-1.1199,-1.145,0.0,0.0,0.0,0.0,0.0,0.0,0.0,-1.5368,-1.6623,-1.7539,-1.7826,-1.8777,-1.9444,-1.9696,-1.8828,-1.7776,-1.7011,0.0,-1.5474,-1.513,-1.4622,-1.4277,-1.3933,-1.398,-1.4061,-1.4177,-1.4197,-1.4197,-1.4197,-1.4197,-1.4197,-1.4204,-1.4224,-1.4265,-1.4326,-1.3939,-1.3668,-1.3878,-1.3668,-1.3519,-1.3682,-1.3709,-1.3715,-1.379,-1.4337,-1.37,-1.3659,-1.3763,-1.3453,-1.3302,-1.3431,-1.3437,-1.3437,-1.3437,-1.3251,-1.3171,-1.3037,-1.2754,0.0,0.0,-1.3838,-1.3645,-1.3437,-1.3451,-1.3526,-1.3661,-1.3506,-1.3579,-1.3878,-1.4228,-1.3988,-1.3512,-1.3668,-1.3768,-1.3791,-1.3494,-1.3247,-1.3234,-1.3654,-1.3946,-1.4089,-1.4251,-1.4394,-1.4502,-1.4373,-1.4299,-1.4299,-1.4285,-1.4217,-1.4075,-1.3912,-1.3559,-1.301,-1.2972,-1.2546,-1.1681,0.0,0.0,0.0,0.0,0.0,0.0,0.0,0.0,0.0,0.0,0.0,0.0,0.0,0.0,0.0,-1.1389,0.0,-1.1701,-1.2094,0.0,0.0,0.0,-1.3268,-1.3289,-1.3864,-1.4594,-1.5066,0.0,0.0,0.0,0.0,-1.7189,-1.804,-1.6795,-1.5832,-1.5994,-1.4995,-1.4297,-1.4667,-1.4304,-1.4129,-1.4156,-1.4251,-1.4414,-1.4638,-1.474,-1.4713,-1.4726,-1.4733,-1.4746,-1.4753,-1.4658,-1.4604,-1.4746,-1.4523,-1.4312,-1.4183,-1.3994,-1.3851,-1.3858,-1.3858,-1.3858,-1.3746,-1.4312,-1.3885,-1.381,-1.3736,-1.3702,-1.3702,-1.3736,-1.3736,-1.3736,-1.3729,-1.3445,-1.3036,-1.2663,-1.3075,-1.3459,-1.381,-1.402,-1.4048,-1.3743,-1.3858,-1.3933,-1.3973,-1.4082,-1.4156,-1.419,-1.4197,-1.4177,-1.4136,-1.3847,-1.3946,-1.4098,-1.3994,-1.3858,-1.3553,-1.3966,-1.4211,-1.4245,-1.4502,-1.4597,-1.4509,-1.4373,-1.4299,-1.4299,-1.419,-1.4109,-1.4068,-1.3817,-1.3505,-1.3139,-1.3082,-1.2637,-1.1803,-1.1497,0.0,0.0,0.0,0.0,0.0,0.0,0.0,0.0,0.0,-1.0683,-1.0826,0.0,-1.1206,0.0,-1.1694,-1.2094,-1.2433,-1.2671,0.0,0.0,-1.32,-1.3494,-1.372,-1.381,-1.4203,-1.4585,-1.5148,-1.5388,-1.5301,-1.5541,-1.5687,-1.5599,-1.5661,-1.5779,-1.5476,-1.4868,-1.4577,-1.4757,-1.457,-1.4584,-1.4577,-1.4604,-1.4672,-1.4726,-1.4746,-1.478,-1.4896,-1.4916,-1.495,-1.5052,-1.5052,-1.5045,-1.5072,-1.493,-1.4814,-1.4733,-1.4367,-1.4014,-1.4014,-1.4021,-1.4014,-1.4088,-1.4625,-1.4211,-1.3995,-1.3847,-1.366,-1.3824,-1.3939,-1.3946,-1.398,-1.4034,-1.3892,-1.3646,-1.3298,-1.366,-1.3878,-1.4119,-1.4298,-1.416,-1.4048,-1.4136,-1.417,-1.4177,-1.4258,-1.4299,-1.4299,-1.4299,-1.4299,-1.4292,-1.4035,-1.3995,-1.4001,-1.4319,-1.4272,-1.4048,-1.4407,-1.4597,-1.4597,-1.476,-1.4733,-1.4516,-1.4373,-1.4299,-1.4292,-1.4089,-1.4,-1.4068,-1.379,-1.3485,-1.3186,-1.304,-1.2663,-1.206,-1.1969,-1.1763,0.0,0.0,0.0,0.0,0.0,0.0,0.0,0.0,0.0,0.0,0.0,-1.1775,0.0,0.0,0.0,-1.2996,-1.322,-1.3444,-1.3675,-1.3817,-1.396,-1.4122,-1.4197,-1.4265,-1.4694,-1.4924,-1.507,-1.5056,-1.5202,-1.5341,-1.5025,-1.5334,-1.5406,-1.5118,-1.5025,-1.4916,-1.4855,-1.4841,-1.4869,-1.4923,-1.5052,-1.514,-1.514,-1.514,-1.5174,-1.5255,-1.5269,-1.5296,-1.5371,-1.5384,-1.5384,-1.5377,-1.5262,-1.5153,-1.5031,-1.4753,-1.4475,-1.4387,-1.4312,-1.4272,-1.4572,-1.5089,-1.4592,-1.4064,-1.3905,-1.366,-1.3838,-1.4129,-1.4109,-1.4177,-1.4292,-1.4338,-1.4283,-1.427,-1.4298,-1.4298,-1.4249,-1.4228,-1.429,-1.4238,-1.4265,-1.4272,-1.4272,-1.4292,-1.4299,-1.4299,-1.4299,-1.4299,-1.4299,-1.4278,-1.4108,-1.3965,-1.4269,-1.4529,-1.4577,-1.4855,-1.4997,-1.4997,-1.4977,-1.4828,-1.455,-1.4401,-1.4319,-1.4292,-1.4021,-1.3926,-1.4027,-1.3777,-1.3485,-1.3193,-1.3037,-1.2773,-1.2372,-1.2203,-1.206,0.0,-1.1796,0.0,0.0,0.0,0.0,0.0,0.0,0.0,0.0,-1.2155,-1.2366,-1.2807,-1.2969,-1.3173,-1.3485,-1.3763,-1.4,-1.417,-1.4414,-1.457,-1.4577,-1.4672,-1.4794,-1.493,-1.4957,-1.5018,-1.5106,-1.5167,-1.5235,-1.535,-1.5398,-1.5316,-1.5126,-1.5167,-1.5201,-1.5072,-1.5059,-1.5133,-1.5235,-1.5452,-1.5601,-1.5615,-1.5594,-1.5635,-1.5608,-1.5635,-1.5662,-1.5662,-1.5655,-1.5662,-1.5662,-1.554,-1.5391,-1.5242,-1.5072,-1.4909,-1.4746,-1.4611,-1.455,-1.4665,-1.5167,-1.4536,-1.4242,-1.4272,-1.3939,-1.4041,-1.4421,-1.4306,-1.4272,-1.4299,-1.4272,-1.4258,-1.4245,-1.4277,-1.4222,-1.3887,-1.3939,-1.3899,-1.3933,-1.4055,-1.4116,-1.4122,-1.4245,-1.4299,-1.4299,-1.4299,-1.4299,-1.4299,-1.417,-1.4238,-1.4468,-1.4502,-1.4638,0.0,0.0,0.0,0.0,-1.5031,-1.4882,-1.4699,-1.455,-1.4414,-1.4306,-1.4122,0.0,-1.3885,-1.3722,-1.3492,-1.3186,-1.3037,0.0,0.0,0.0,0.0,0.0,0.0,0.0,0.0,0.0,0.0,0.0,-1.2725,-1.2596,-1.244,-1.2644,-1.2976,-1.341,-1.3485,-1.3675,-1.4089,-1.4285,-1.4496,-1.4767,-1.4848,-1.4882,-1.4882,-1.4801,-1.4753,-1.478,-1.4896,-1.4984,-1.5018,-1.5113,-1.5242,-1.5398,-1.552,-1.5567,-1.5527,-1.5527,-1.5533,-1.5513,-1.5479,-1.5513,-1.5547,-1.5608,-1.5662,-1.5635,-1.5635,-1.5642,-1.5655,-1.5744,-1.5811,-1.5811,-1.5811,-1.5811,-1.5811,-1.5696,-1.5547,-1.5398,-1.5248,-1.5059,-1.4801,-1.4719,-1.4699,-1.4869,0.0,-1.4814,-1.4719,0.0,-1.4346,-1.4455,-1.4719,-1.4428,-1.434,-1.4222,-1.4401,-1.4367,-1.4299,-1.44,-1.4183,-1.3819,-1.3746,-1.3887,-1.4075,-1.415,-1.4183,-1.419,-1.4265,-1.4299,-1.4299,-1.4373,-1.4407,-1.4407,-1.4401,-1.4482,-1.4812,-1.4774,-1.4882,-1.497,-1.5113,-1.5181,-1.5181,-1.5045,-1.4896,-1.474,-1.4523,-1.4373,-1.4299,0.0,0.0,0.0,0.0,0.0,0.0,0.0,0.0,0.0,0.0,0.0,-1.2949,-1.2942,-1.2983,-1.3051,-1.3057,-1.3152,-1.3376,-1.3397,-1.3302,-1.3071,-1.3336,-1.3634,-1.3926,-1.396,-1.4143,-1.4577,-1.4631,-1.4746,-1.5031,-1.5079,-1.5072,-1.5072,-1.5004,-1.4957,-1.4964,-1.5031,-1.5079,-1.5072,-1.5133,-1.5276,-1.5486,-1.5588,-1.5696,-1.5818,-1.5791,-1.5723,-1.5655,-1.571,-1.5744,-1.575,-1.5818,-1.5852,-1.5852,-1.5791,-1.575,-1.5744,-1.5805,-1.5852,-1.5859,-1.5913,-1.5967,-1.5954,-1.5845,-1.5703,-1.5554,-1.5404,-1.5228,-1.5004,-1.4903,-1.4855,-1.4852,-1.5222,-1.5272,-1.5025,-1.478,-1.4746,-1.4841,-1.4984,0.0,0.0,0.0,-1.4529,-1.4448,-1.4333,-1.4312,-1.4115,-1.3932,-1.3932,-1.4115,-1.4299,-1.4299,-1.4312,-1.434,-1.434,-1.4353,-1.438,-1.4496,-1.4737,-1.4744,-1.4679,-1.4767,-1.5025,-1.5065,-1.514,-1.5059,-1.5167,-1.5208,-1.5181,-1.5065,-1.493,-1.478,-1.4543,-1.4407,-1.438,-1.4136,-1.4048,-1.4143,-1.4027,-1.3892,-1.3756,-1.3552,-1.3492,-1.3566,-1.3707,-1.3693,-1.3519,-1.3519,-1.3559,-1.3661,-1.3668,-1.3743,-1.3912,-1.3946,-1.3892,-1.3722,-1.3953,-1.4177,-1.4326,-1.436,-1.4543,-1.493,-1.4882,-1.4916,-1.516,-1.5208,-1.5215,-1.5187,-1.5181,-1.5167,-1.5181,-1.5174,-1.5181,-1.5181,-1.5208,-1.5316,-1.5574,-1.5662,-1.5771,-1.5995,-1.5967,-1.5859,-1.5778,-1.5839,-1.5893,-1.5906,-1.5981,-1.6076,-1.6049,-1.5967,-1.5893,-1.5866,-1.5872,-1.5879,-1.5859,-1.5981,-1.6056,-1.6069,-1.5974,-1.5845,-1.5703,-1.5554,-1.5404,-1.5255,-1.5106,-1.5011,-1.4966,-1.5507,-1.5355,-1.5092,-1.5121,-1.4984,-1.4896,-1.5133,-1.4957,-1.4882,-1.4698,-1.4624,-1.4502,-1.4289,-1.4353,-1.4476,-1.4483,-1.4659,-1.4483,0.0,-1.4299,-1.4367,-1.4482,-1.4303,-1.437,-1.4672,-1.4699,-1.4713,-1.4895,-1.4733,-1.4869,-1.5286,-1.5355,-1.5242,-1.5343,-1.5371,-1.5309,-1.5187,-1.516,-1.5086,-1.4943,-1.4896,-1.4814,-1.4685,-1.4631,-1.4557,-1.4455,-1.4421,-1.4353,-1.4211,-1.4075,-1.4055,-1.4163,-1.4228,-1.4153,-1.398,-1.398,-1.3926,-1.3824,-1.381,-1.3933,-1.4211,-1.4346,-1.4306,-1.4041,-1.417,-1.4326,-1.4468,-1.4597,-1.4753,-1.495,-1.5059,-1.5126,-1.5194,-1.5303,-1.533,-1.5215,-1.5194,-1.5194,-1.5208,-1.5181,-1.5194,-1.5221,-1.5303,-1.5438,-1.5615,-1.5757,-1.5886,-1.6029,-1.6062,-1.6042,-1.6022,-1.6035,-1.6049,-1.6035,-1.6056,-1.6083,-1.6083,-1.6056,-1.5974,-1.5872,-1.594,-1.5974,-1.5879,-1.5995,-1.6076,-1.609,-1.6069,-1.5981,-1.5845,-1.5696,-1.556,-1.5411,-1.5262,-1.5167,-1.5255,-1.5584,-1.5276,-1.5221,-1.5265,-1.5011,-1.5106,-1.5296,-1.5242,-1.516,-1.5072,-1.493,-1.4598,-1.4262,-1.4376,-1.4489,-1.4785,-1.4868,-1.473,-1.4543,-1.4624,-1.4699,-1.4753,-1.4571,-1.4571,-1.4753,-1.4828,-1.5053,-1.5059,-1.4943,-1.5052,-1.5375,-1.5269,-1.5425,-1.5628,-1.5574,-1.5459,-1.5309,-1.5147,-1.5038,-1.5162,-1.4889,-1.4808,-1.474,-1.474,-1.4713,-1.4638,-1.4638,-1.4604,-1.4543,-1.4475,-1.4468,-1.4529,-1.4654,-1.4613,-1.4434,-1.4434,-1.4407,-1.4333,-1.4326,-1.4387,-1.4523,-1.4597,-1.4584,-1.4448,-1.4577,-1.4692,-1.4753,-1.4828,-1.4964,-1.5181,-1.5194,-1.5248,-1.5418,-1.5425,-1.5418,-1.5425,-1.535,-1.5337,-1.5411,-1.5432,-1.5432,-1.5432,-1.5493,-1.5588,-1.5737,-1.5886,-1.6001,-1.6069,-1.6083,-1.6083,-1.6083,-1.6083,-1.6083,-1.6083,-1.6083,-1.6083,-1.6083,-1.6008,-1.5934,-1.5866,-1.5927,-1.5961,-1.5988,-1.6103,-1.6191,-1.6205,-1.6205,-1.6103,-1.59,-1.5811,-1.5696,-1.5567,-1.5472,-1.5411,-1.5227,-1.5499,-1.5445,-1.5425,-1.5289,-1.5282,-1.5371,-1.5506,-1.5506,-1.5445,-1.5337,-1.5235,-1.4865,-1.4474,-1.4428,-1.4544,-1.4833,-1.4998,-1.508,-1.4903,-1.5018,-1.5086,-1.5106,-1.4865,-1.4785,-1.5094,-1.5169,-1.521,-1.5224,-1.5133,-1.5221,-1.5289,-1.5438,-1.5628,-1.5845,-1.5744,-1.5594,-1.5609,-1.5221,-1.5086,-1.521,-1.4903,-1.4855,-1.4889,-1.4896,-1.4889,-1.4889,-1.4923,-1.4909,-1.4848,-1.4841,-1.4841,-1.4841,-1.4841,-1.4828,-1.4801,-1.4821,-1.4808,-1.4746,-1.4774,-1.4808,-1.4835,-1.4841,-1.4855,-1.4896,-1.4964,-1.5004,-1.4984,-1.4991,-1.5113,-1.5296,-1.533,-1.5371,-1.556,-1.5547,-1.5554,-1.5608,-1.5533,-1.5499,-1.5615,-1.5635,-1.5628,-1.5642,-1.5669,-1.575,-1.5886,-1.6008,-1.6076,-1.6083,-1.6083,-1.6083,-1.6083,-1.6083,-1.6083,-1.6083,-1.6083,-1.6083,-1.6083,-1.5995,-1.594,-1.5927,-1.5934,-1.5995,-1.6123,-1.6252,-1.6341,-1.6354,-1.632,-1.6218,-1.6022,-1.5913,-1.5798,-1.5662,-1.5662,-1.5649,-1.5126,-1.5228,-1.5737,-1.5932,-1.5787,-1.5588,-1.5662,-1.5791,-1.5811,-1.6007,-1.5932,-1.5364,-1.5181,-1.5126,-1.4819,-1.4758,-1.5142,-1.5221,-1.5337,-1.5337,-1.5364,-1.5445,-1.5533,-1.4911,-1.5033,-1.5303,-1.5215,-1.5147,-1.5153,-1.5174,-1.5323,-1.5581,-1.5744,-1.5818,-1.5852,-1.5839,-1.5696,-1.5616,-1.5527,-1.5445,-1.5181,-1.5147,-1.5208,-1.535,-1.5343,-1.535,-1.533,-1.5486,-1.5425,-1.5174,-1.514,-1.514,-1.514,-1.514,-1.5086,-1.4977,-1.5072,-1.5031,-1.4794,-1.4869,-1.5011,-1.5126,-1.5133,-1.5187,-1.5303,-1.5221,-1.5106,-1.5025,-1.5092,-1.5174,-1.5221,-1.5425,-1.554,-1.5499,-1.5655,-1.5771,-1.5669,-1.5628,-1.5628,-1.5635,-1.5662,-1.5642,-1.5683,-1.5764,-1.5893,-1.6015,-1.6056,-1.6083,-1.6083,-1.6083,-1.6083,-1.6083,-1.6083,-1.609,-1.6096,-1.6083,-1.609,-1.609,-1.6076,-1.6042,-1.6049,-1.6144,-1.6273,-1.6239,-1.6388,-1.6476,-1.6442,-1.6408,-1.63,-1.6178,-1.6015,-1.5825,-1.5703,-1.575,-1.5805,-1.5495,-1.5448,-1.5904,-1.5897,-1.5842,-1.5635,-1.5669,-1.573,-1.5818,-1.5852,-1.5832,-1.5655,-1.5527,-1.5247,-1.51,-1.5228,-1.5437,-1.5643,-1.5739,-1.5567,-1.5723,-1.5798,-1.5744,-1.5554,-1.5445,-1.5398,-1.5255,-1.5181,-1.5194,-1.5276,-1.5432,-1.5635,-1.5784,-1.5893,-1.5981,-1.5988,-1.5886,-1.5883,-1.5737,-1.5669,-1.5671,-1.5561,-1.5343,-1.5404,-1.5411,-1.5459,-1.5527,-1.5527,-1.5445,-1.533,-1.5316,-1.5316,-1.5316,-1.5398,-1.5432,-1.5371,-1.5418,-1.5404,-1.5282,-1.533,-1.5391,-1.5452,-1.5371,-1.535,-1.5391,-1.5194,-1.5059,-1.5106,-1.5147,-1.5181,-1.5208,-1.5459,-1.5642,-1.5662,-1.5716,-1.5737,-1.5771,-1.5689,-1.5669,-1.575,-1.5845,-1.59,-1.5906,-1.5947,-1.6015,-1.6069,-1.6083,-1.6083,-1.6083,-1.6083,-1.6083,-1.6096,-1.6151,-1.6212,-1.6205,-1.613,-1.6137,-1.6178,-1.6137,-1.6083,-1.6103,-1.6212,-1.6307,-1.6313,-1.6429,-1.6476,-1.6395,-1.6361,-1.6293,-1.6205,-1.6137,-1.5967,-1.5913,-1.5947,-1.5981,-1.5757,-1.5764,-1.5966,-1.5966,-1.5959,-1.5764,-1.5764,-1.5771,-1.5872,-1.5913,-1.5716,-1.5913,-1.5859,-1.5535,-1.5321,-1.5432,-1.5684,-1.5987,-1.587,-1.5723,-1.5961,-1.6022,-1.5906,-1.5973,-1.5822,-1.5472,-1.5316,-1.5242,-1.5262,-1.5398,-1.5547,-1.5696,-1.5805,-1.5927,-1.6062,-1.6083,-1.6227,-1.6138,-1.6151,-1.6089,-1.6112,-1.5828,-1.5574,-1.5533,-1.5533,-1.5588,-1.5689,-1.5635,-1.5554,-1.5479,-1.5506,-1.5513,-1.5486,-1.5615,-1.5696,-1.5696,-1.5655,-1.5635,-1.5635,-1.5676,-1.5696,-1.5689,-1.5588,-1.5533,-1.5486,-1.5262,-1.5126,-1.516,-1.5181,-1.5194,-1.5269,-1.5445,-1.5642,-1.5811,-1.575,-1.5757,-1.5886,-1.5818,-1.5811,-1.5906,-1.5995,-1.6083,-1.6076,-1.6076,-1.6076,-1.6076,-1.6083,-1.6083,-1.609,-1.6117,-1.6151,-1.6151,-1.6273,-1.6341,-1.632,-1.6279,-1.6252,-1.6239,-1.6212,-1.6144,-1.611,-1.6218,-1.6307,-1.632,-1.6442,-1.649,-1.6435,-1.6374,-1.6259,-1.6137,-1.6083,-1.6083,-1.6042,-1.6076,-1.6076,-1.6062,-1.6056,-1.6056,-1.6049,-1.6056,-1.6049,-1.6056,-1.6035,-1.6062,-1.6062,-1.6056,-1.6062,-1.6062,-1.6015,-1.5622,-1.5499,-1.5622,-1.5856,-1.5938,-1.5852,-1.6015,-1.6083,-1.6062,-1.6117,-1.5966,-1.5622,-1.5281,-1.5207,-1.5411,-1.5554,-1.5703,-1.5832,-1.5859,-1.5934,-1.6062,-1.6083,-1.6282,-1.6289,-1.6198,-1.6151,-1.6117,-1.6186,-1.5974,-1.5859,-1.5832,-1.5832,-1.5852,-1.5974,-1.5913,-1.5635,-1.5744,-1.5764,-1.5662,-1.5764,-1.5845,-1.5832,-1.5723,-1.5649,-1.5676,-1.5778,-1.5845,-1.5839,-1.5805,-1.5818,-1.5771,-1.5506,-1.5303,-1.5208,-1.5208,-1.5248,-1.5391,-1.5452,-1.5574,-1.5811,-1.5845,-1.5906,-1.6035,-1.6008,-1.6056,-1.6049,-1.6062,-1.6076,-1.6083,-1.6083,-1.6083,-1.6083,-1.6083,-1.6083,-1.6103,-1.6198,-1.6273,-1.6313,-1.6395,-1.6469,-1.6361,-1.6368,-1.6395,-1.6388,-1.6341,-1.6246,-1.6205,-1.6191,-1.6259,-1.6327,-1.6415,-1.6463,-1.6469,-1.6395,-1.6246,-1.6151,-1.6123,-1.611,-1.6137,-1.6096,-1.6103,-1.6038,-1.6045,-1.613,-1.611,-1.6151,-1.6103,-1.6096,-1.611,-1.609,-1.6083,-1.6083,-1.6083,-1.6083,-1.6069,-1.6014,-1.5778,-1.571,-1.5927,-1.6151,-1.6015,-1.6157,-1.6178,-1.6069,-1.6124,-1.6035,-1.5764,-1.5628,-1.556,-1.5574,-1.571,-1.6,-1.5866,-1.5954,-1.6035,-1.6076,-1.6083,-1.6123,-1.6225,-1.6286,-1.6501,-1.6696,-1.6543,-1.6334,-1.6273,-1.6096,-1.6001,-1.6001,-1.6056,-1.5988,-1.5784,-1.5825,-1.5832,-1.5798,-1.592,-1.6001,-1.5995,-1.5947,-1.592,-1.5927,-1.5967,-1.6001,-1.5988,-1.5818,-1.5771,-1.5764,-1.5513,-1.5316,-1.5418,-1.5377,-1.5432,-1.5615,-1.5615,-1.5635,-1.5805,-1.5859,-1.5879,-1.592,-1.5934,-1.5934,-1.5947,-1.6008,-1.6083,-1.6083,-1.6083,-1.6083,-1.6083,-1.6083,-1.609,-1.611,-1.6218,-1.6327,-1.6354,-1.6503,-1.6653,-1.6612,-1.653,-1.6503,-1.6517,-1.6476,-1.6347,-1.6266,-1.6266,-1.6327,-1.6279,-1.6354,-1.6388,-1.6381,-1.6327,-1.6191,-1.6185,-1.6157,-1.6218,-1.6225,-1.6225,-1.6225,-1.6341,-1.5518,-1.2372,-1.2971,-1.585,-1.4143,-1.4513,-1.5931,-1.6096,-1.6083,-1.6083,-1.6083,-1.6083,-1.6069,-1.6172,-1.6008,-1.5924,-1.6056,-1.6035,-1.609,-1.6191,-1.6178,-1.6083,-1.6179,-1.6131,-1.5913,-1.5832,-1.5784,-1.5805,-1.6131,-1.622,-1.6083,-1.6137,-1.6157,-1.6157,-1.6157,-1.6232,-1.6145,-1.6422,-1.651,-1.6797,-1.6598,-1.6564,-1.651,-1.6374,-1.6246,-1.6164,-1.611,-1.6069,-1.6001,-1.5954,-1.5927,-1.5934,-1.6022,-1.6083,-1.6083,-1.6076,-1.6083,-1.6083,-1.6083,-1.6076,-1.6076,-1.5913,-1.5832,-1.5886,-1.5601,-1.554,-1.5628,-1.5581,-1.5594,-1.5764,-1.5764,-1.5771,-1.5886,-1.5886,-1.5879,-1.592,-1.5934,-1.5934,-1.5954,-1.6022,-1.6076,-1.609,-1.613,-1.6157,-1.6157,-1.6185,-1.6225,-1.6239,-1.6347,-1.6449,-1.6476,-1.6673,-1.6802,-1.6802,-1.6748,-1.6659,-1.6653,-1.6619,-1.6476,-1.6374,-1.6374,-1.6347,-1.6273,-1.6259,-1.6286,-1.6273,-1.6232,-1.6218,-1.6218,-1.6286,-1.6374,-1.6374,-1.6374,-1.6374,-1.6361,-1.3903,-0.4515,-0.6357,-1.3316,-0.9771,-1.1129,-1.5551,-1.6117,-1.6103,-1.6083,-1.6083,-1.6083,-1.6076,-1.6062,-1.6157,-1.6433,-1.6247,-1.6192,-1.6103,-1.6117,-1.611,-1.6083,-1.609,-1.6096,-1.6103,-1.5884,-1.5877,-1.6096,-1.6218,-1.6347,-1.6449,-1.6354,-1.6307,-1.6307,-1.6313,-1.6381,-1.6517,-1.6646,-1.6727,-1.6748,-1.6748,-1.6693,-1.6585,-1.6646,-1.6578,-1.6334,-1.6198,-1.6191,-1.6266,-1.6157,-1.609,-1.6062,-1.6076,-1.6083,-1.6083,-1.6083,-1.6083,-1.6083,-1.6083,-1.6083,-1.6076,-1.6062,-1.6022,-1.6015,-1.5893,-1.5811,-1.5825,-1.575,-1.5723,-1.5839,-1.5859,-1.5906,-1.6035,-1.5954,-1.594,-1.6029,-1.6069,-1.6076,-1.6069,-1.6076,-1.6083,-1.6117,-1.6198,-1.6273,-1.632,-1.6395,-1.6463,-1.6463,-1.6578,-1.6707,-1.6748,-1.6822,-1.691,-1.6951,-1.6965,-1.687,-1.6795,-1.6741,-1.6646,-1.6544,-1.6503,-1.6463,-1.6402,-1.6395,-1.6422,-1.6415,-1.6381,-1.6408,-1.6422,-1.649,-1.6517,-1.6524,-1.653,-1.6524,-1.2009,-0.4929,-0.1432,-0.1846,-0.4743,-0.3083,-0.7563,-1.5714,-1.6085,-1.6198,-1.6096,-1.6083,-1.6083,-1.6083,-1.6083,-1.6171,-1.6501,-1.662,-1.6606,-1.6239,-1.6239,-1.6178,-1.6117,-1.6191,-1.6293,-1.6368,-1.6179,-1.6179,-1.6388,-1.6435,-1.649,-1.6503,-1.6483,-1.6456,-1.6456,-1.6463,-1.653,-1.6666,-1.6727,-1.6795,-1.6897,-1.691,-1.6883,-1.6836,-1.6781,-1.67,-1.6612,-1.6564,-1.651,-1.6463,-1.632,-1.6191,-1.611,-1.6083,-1.6083,-1.6083,-1.6083,-1.6083,-1.6083,-1.6083,-1.6083,-1.6062,-1.5988,-1.5988,-1.6049,-1.5947,-1.5906,-1.5988,-1.5967,-1.5967,-1.6001,-1.6008,-1.6029,-1.6076,-1.6035,-1.6015,-1.6069,-1.6083,-1.6083,-1.6083,-1.6083,-1.6123,-1.6212,-1.6307,-1.6368,-1.6442,-1.651,-1.6537,-1.6558,-1.6673,-1.6741,-1.6761,-1.6883,-1.6978,-1.6978,-1.6978,-1.6937,-1.687,-1.6829,-1.6795,-1.67,-1.6632,-1.6592,-1.6571,-1.6564,-1.6558,-1.6551,-1.6558,-1.6585,-1.6592,-1.6612,-1.6646,-1.6673,-1.668,-1.668,-0.6162,0.0,0.0,0.0,0.0,0.0,-0.3705,-1.027,-1.4548,-1.6138,-1.6273,-1.6212,-1.6178,-1.6171,-1.6164,-1.6246,-1.6381,-1.6863,-1.6891,-1.6653,-1.6341,-1.6259,-1.6191,-1.6313,-1.6429,-1.6517,-1.6578,-1.6605,-1.6605,-1.6612,-1.6639,-1.668,-1.6639,-1.6605,-1.6605,-1.6612,-1.6659,-1.6741,-1.6809,-1.6883,-1.6958,-1.6978,-1.6978,-1.6965,-1.6883,-1.6842,-1.6836,-1.6836,-1.6761,-1.6625,-1.6517,-1.6381,-1.6198,-1.6171,-1.6144,-1.609,-1.6083,-1.6083,-1.6083,-1.6083,-1.6083,-1.6062,-1.5988,-1.5974,-1.6049,-1.5981,-1.5995,-1.6062,-1.6069,-1.6083,-1.6076,-1.6076,-1.6083,-1.6083,-1.6076,-1.6083,-1.609,-1.6137,-1.6164,-1.6185,-1.6218,-1.6286,-1.6361,-1.6456,-1.6497,-1.6592,-1.6653,-1.6693,-1.6707,-1.6781,-1.6809,-1.6842,-1.6917,-1.6971,-1.6978,-1.6978,-1.6978,-1.6944,-1.6904,-1.6883,-1.6836,-1.6802,-1.6761,-1.6768,-1.6768,-1.6775,-1.6768,-1.6748,-1.6761,-1.6754,-1.6754,-1.6795,-1.6836,-1.6836,-1.6836,0.0,0.0,0.0,0.0,0.0,0.0,0.0,-0.2066,-1.0078,-1.4626,-1.5271,-1.6009,-1.6138,-1.6112,-1.6105,-1.6185,-1.6312,-1.6653,-1.6941,-1.6879,-1.651,-1.6368,-1.6381,-1.6483,-1.6551,-1.6605,-1.692,-1.6968,-1.6761,-1.6761,-1.6836,-1.6917,-1.6815,-1.6761,-1.6761,-1.6761,-1.6768,-1.6802,-1.6904,-1.6971,-1.6978,-1.6978,-1.6978,-1.6978,-1.6971,-1.6958,-1.6958,-1.6951,-1.6897,-1.6768,-1.6714,-1.6585,-1.6374,-1.632,-1.6259,-1.6151,-1.611,-1.611,-1.6103,-1.609,-1.6083,-1.6076,-1.6069,-1.6083,-1.6069,-1.6062,-1.6056,-1.6076,-1.6083,-1.6083,-1.6083,-1.6083,-1.6083,-1.6083,-1.6083,-1.6083,-1.609,-1.6198,-1.6246,-1.63,-1.6422,-1.6517,-1.6517,-1.6646,-1.6707,-1.6775,-1.6863,-1.6904,-1.6924,-1.6924,-1.6958,-1.6971,-1.6965,-1.6971,-1.6978,-1.6978,-1.6978,-1.6971,-1.6944,-1.6937,-1.6931,-1.691,-1.6897,-1.691,-1.6917,-1.6944,-1.6944,-1.6897,-1.689,-1.689,-1.6917,-1.6971,-1.6965,-1.6937,-1.6931,0.0,0.0,0.0,0.0,0.0,0.0,0.0,0.0,0.0,-0.7055,-1.014,-1.4705,-1.5871,-1.6158,-1.6055,-1.6312,-1.6776,-1.69,-1.7037,-1.6883,-1.6727,-1.6639,-1.6632,-1.6666,-1.6741,-1.6842,-1.6876,-1.6924,-1.6917,-1.6904,-1.6937,-1.6978,-1.6937,-1.691,-1.6924,-1.691,-1.6924,-1.6924,-1.6951,-1.6978,-1.6978,-1.6978,-1.6978,-1.6978,-1.6978,-1.6978,-1.6978,-1.6978,-1.691,-1.6768,-1.6748,-1.6666,-1.649,-1.6463,-1.6435,-1.6381,-1.63,-1.6252,-1.6232,-1.6151,-1.6096,-1.6083,-1.611,-1.6083,-1.6083,-1.6083,-1.6083,-1.6083,-1.6083,-1.6083,-1.6083,-1.6083,-1.6083,-1.6083,-1.6103,-1.6096,-1.609,-1.6117,-1.6178,-1.6293,-1.6361,-1.649,-1.6646,-1.6734,-1.6802,-1.689,-1.6944,-1.6978,-1.6978,-1.6978,-1.6978,-1.6978,-1.6978,-1.6978,-1.6978,-1.6978,-1.6978,-1.6978,-1.6971,-1.6965,-1.6965,-1.6951,-1.6951,-1.6965,-1.6951,-1.6965,-1.6971,-1.6951,-1.6971,-1.6978,-1.6978,-1.6978,-1.6978,-1.6965,-1.6958,0.0,0.0,0.0,0.0,0.0,0.0,0.0,0.0,0.0,-0.1468,-0.5015,-0.7919,-1.226,-1.6174,-1.6234,-1.646,-1.6879,-1.7003,-1.6897,-1.6951,-1.6883,-1.6809,-1.6761,-1.6748,-1.6829,-1.6965,-1.6978,-1.6978,-1.6978,-1.6978,-1.6978,-1.6978,-1.6978,-1.6978,-1.6971,-1.6978,-1.6978,-1.6978,-1.6978,-1.6978,-1.6978,-1.6978,-1.6978,-1.6978,-1.6978,-1.6978,-1.6978,-1.6978,-1.6937,-1.6863,-1.6842,-1.6775,-1.6639,-1.6619,-1.6592,-1.653,-1.6442,-1.6402,-1.6388,-1.6313,-1.6273,-1.6273,-1.6266,-1.6266,-1.6259,-1.6218,-1.6178,-1.6185,-1.6123,-1.6083,-1.6096,-1.6137,-1.6171,-1.6191,-1.6225,-1.6212,-1.611,-1.6205,-1.6293,-1.6395,-1.6517,-1.6639,-1.6829,-1.6842,-1.689,-1.6951,-1.6965,-1.6978,-1.6978,-1.6978,-1.6978,-1.6978,-1.6978,-1.6978,-1.6978,-1.6978,-1.6978,-1.6978,-1.6978,-1.6978,-1.6978,-1.6978,-1.6978,-1.6978,-1.6978,-1.6978,-1.6978,-1.6978,-1.6978,-1.6978,-1.6978,-1.6978,-1.6978,-1.6978,-1.6978,0.0,0.0,0.0,0.0,0.0,0.0,0.0,0.0,0.0,0.0,0.0,0.0,0.0,-1.5167,-1.5173,-1.6439,-1.7037,-1.6985,-1.7039,-1.7053,-1.7012,-1.6944,-1.6849,-1.6601,-1.6863,-1.6965,-1.6978,-1.6978,-1.6978,-1.6978,-1.6978,-1.6978,-1.6978,-1.6978,-1.6978,-1.6978,-1.6978,-1.6978,-1.6978,-1.6978,-1.6978,-1.6978,-1.6978,-1.6978,-1.6978,-1.6978,-1.6978,-1.6978,-1.6971,-1.6978,-1.6978,-1.6897,-1.6781,-1.6989,-1.6934,-1.6619,-1.6578,-1.6544,-1.6544,-1.6537,-1.6517,-1.6497,-1.651,-1.653,-1.6476,-1.6381,-1.632,-1.6279,-1.6178,-1.6123,-1.6103,-1.6212,-1.6279,-1.63,-1.6415,-1.6374,-1.6252,-1.6361,-1.6524,-1.6551,-1.6795,-1.6924,-1.6978,-1.6978,-1.6978,-1.6965,-1.6978,-1.6978,-1.6978,-1.6978,-1.6978,-1.6978,-1.6978,-1.6978,-1.6978,-1.6978,-1.6978,-1.6978,-1.6978,-1.6978,-1.6978,-1.6978,-1.6978,-1.6978,-1.6978,-1.6978,-1.6978,-1.6978,-1.6978,-1.6978,-1.6978,-1.6978,-1.6978,-1.6978,-1.6978,0.0,0.0,0.0,0.0,0.0,0.0,0.0,0.0,0.0,0.0,0.0,0.0,0.0,0.0,-1.2151,-1.6902,-1.6924,-1.7182,-1.7358,-1.7311,-1.7195,-1.7141,-1.7066,-1.6985,-1.6951,-1.6978,-1.6978,-1.6978,-1.6978,-1.6978,-1.6978,-1.6978,-1.6978,-1.6978,-1.6978,-1.6978,-1.6978,-1.6978,-1.6978,-1.6978,-1.6978,-1.6978,-1.6978,-1.6978,-1.6978,-1.6978,-1.6978,-1.6978,-1.6978,-1.6978,-1.6978,-1.6951,-1.6924,-1.6917,-1.6897,-1.6842,-1.6748,-1.67,-1.67,-1.6693,-1.6653,-1.6571,-1.6639,-1.6646,-1.653,-1.6503,-1.6422,-1.6341,-1.6273,-1.6198,-1.613,-1.6225,-1.632,-1.6368,-1.6463,-1.6524,-1.6456,-1.6483,-1.6571,-1.668,-1.6761,-1.6849,-1.6965,-1.6978,-1.6978,-1.6978,-1.6978,-1.6978,-1.6978,-1.6978,-1.6978,-1.6978,-1.6978,-1.6978,-1.6978,-1.6985,-1.6998,-1.6998,-1.6998,-1.6978,-1.6978,-1.6978,-1.6978,-1.6978,-1.6978,-1.6978,-1.6978,-1.6978,-1.6978,-1.6978,-1.6978,-1.6978,-1.6978,-1.6978,-1.6978,0.0,0.0,0.0,0.0,0.0,0.0,0.0,0.0,0.0,0.0,0.0,0.0,0.0,0.0,-0.6448,-1.1415,-1.6517,-1.7538,-1.7446,-1.7399,-1.7331,-1.7304,-1.727,-1.7148,-1.7053,-1.6998,-1.6998,-1.6998,-1.6985,-1.6992,-1.6998,-1.6978,-1.6978,-1.6978,-1.6978,-1.6978,-1.6978,-1.6978,-1.6978,-1.6978,-1.6978,-1.6978,-1.6978,-1.6978,-1.6978,-1.6978,-1.6978,-1.6978,-1.6978,-1.6978,-1.6978,-1.6978,-1.6978,-1.6978,-1.6978,-1.6958,-1.6917,-1.6856,-1.6856,-1.6849,-1.6829,-1.6741,-1.6815,-1.6802,-1.6727,-1.668,-1.6598,-1.6503,-1.6402,-1.6273,-1.6205,-1.632,-1.6415,-1.6537,-1.6646,-1.6727,-1.6727,-1.6673,-1.6653,-1.6748,-1.6822,-1.6897,-1.6951,-1.6971,-1.6978,-1.6978,-1.6992,-1.6992,-1.6978,-1.6978,-1.6978,-1.6978,-1.6978,-1.6978,-1.6978,-1.6998,-1.7032,-1.7032,-1.7032,-1.6998,-1.6978,-1.6978,-1.6978,-1.6978,-1.6978,-1.6978,-1.6978,-1.6978,-1.6978,-1.6978,-1.6978,-1.6978,-1.6978,-1.6978,-1.6978,0.0,0.0,0.0,0.0,0.0,0.0,0.0,0.0,0.0,0.0,0.0,0.0,0.0,0.0,0.0,0.0,-1.4804,-1.7676,-1.7744,-1.7568,-1.75,-1.748,-1.7426,-1.7277,-1.7134,-1.7032,-1.7026,-1.6808,-1.6169,-1.6808,-1.7032,-1.7012,-1.6985,-1.6978,-1.6978,-1.6978,-1.6978,-1.6978,-1.6978,-1.6978,-1.6978,-1.6978,-1.6978,-1.6978,-1.6978,-1.6978,-1.6978,-1.6978,-1.6978,-1.6978,-1.6978,-1.6978,-1.6978,-1.6978,-1.7005,-1.7005,-1.6992,-1.6978,-1.7005,-1.7005,-1.7005,-1.6998,-1.7012,-1.6992,-1.6944,-1.6849,-1.6768,-1.6653,-1.6524,-1.6361,-1.6354,-1.6476,-1.6605,-1.672,-1.6876,-1.6965,-1.6958,-1.6856,-1.6809,-1.6809,-1.6876,-1.6951,-1.6965,-1.6978,-1.6978,-1.6985,-1.6998,-1.7005,-1.7005,-1.7005,-1.7019,-1.6985,-1.6978,-1.7039,-1.7053,-1.6992,-1.7026,-1.7066,-1.7066,-1.7012,-1.6978,-1.6978,-1.6978,-1.6978,-1.6978,-1.6978,-1.6978,-1.6978,-1.6978,-1.6978,-1.6978,-1.6978,-1.6978,-1.6978,-1.6978,0.0,0.0,0.0,0.0,0.0,0.0,0.0,0.0,0.0,0.0,0.0,0.0,0.0,0.0,0.0,0.0,-1.4315,-1.5681,-1.6633,-1.6904,-1.7059,-1.6988,-1.7609,-1.7399,-1.7243,-1.7182,-1.626,-1.4303,-1.4103,-1.5362,-1.6889,-1.7121,-1.7046,-1.6992,-1.6998,-1.6978,-1.6978,-1.6978,-1.6978,-1.6978,-1.6978,-1.6978,-1.6978,-1.6978,-1.6978,-1.6978,-1.6978,-1.6978,-1.6978,-1.6978,-1.6978,-1.6985,-1.6992,-1.6992,-1.7046,-1.7093,-1.7053,-1.7039,-1.7114,-1.7134,-1.7087,-1.7046,-1.7066,-1.7073,-1.7005,-1.6944,-1.6863,-1.6741,-1.6612,-1.649,-1.649,-1.6585,-1.6686,-1.6775,-1.6856,-1.6951,-1.6944,-1.6937,-1.6904,-1.6883,-1.6937,-1.6978,-1.6978,-1.6985,-1.7005,-1.7032,-1.708,-1.7087,-1.7087,-1.7087,-1.71,-1.7046,-1.6978,-1.7066,-1.7141,-1.7046,-1.7019,-1.7087,-1.7087,-1.7005,-1.6978,-1.6978,-1.6978,-1.6978,-1.6978,-1.6978,-1.6978,-1.6978,-1.6978,-1.6978,-1.6978,-1.6978,-1.6978,-1.6978,-1.6978,0.0,0.0,0.0,0.0,0.0,0.0,0.0,0.0,0.0,0.0,0.0,0.0,0.0,0.0,0.0,0.0,0.0,-0.8654,-1.0242,-1.2284,-1.3364,-1.536,-1.7157,-1.7589,-1.7555,-1.5729,-1.1914,-1.0088,-1.1807,-1.5685,-1.7229,-1.7256,-1.7161,-1.7093,-1.7066,-1.7019,-1.6985,-1.6978,-1.6978,-1.6978,-1.6978,-1.6978,-1.6978,-1.6978,-1.6978,-1.6978,-1.6978,-1.6978,-1.7019,-1.7073,-1.7087,-1.7087,-1.7087,-1.7093,-1.7121,-1.7168,-1.7127,-1.7114,-1.7161,-1.7134,-1.7039,-1.7005,-1.7053,-1.7053,-1.7005,-1.6965,-1.691,-1.6788,-1.6707,-1.6605,-1.653,-1.6605,-1.6619,-1.6653,-1.6775,-1.6822,-1.6815,-1.6904,-1.6924,-1.6917,-1.6944,-1.6965,-1.6978,-1.6992,-1.7026,-1.708,-1.7154,-1.7175,-1.7182,-1.7175,-1.7182,-1.7087,-1.7019,-1.7093,-1.7154,-1.7073,-1.7039,-1.7107,-1.7087,-1.7012,-1.6978,-1.6978,-1.6978,-1.6978,-1.6978,-1.6978,-1.6978,-1.6978,-1.6978,-1.6978,-1.6992,-1.6998,-1.6985,-1.6978,-1.7005,0.0,0.0,0.0,0.0,0.0,0.0,0.0,0.0,0.0,0.0,0.0,0.0,0.0,0.0,0.0,0.0,0.0,0.0,-0.3343,-0.6272,-0.715,-0.9839,-1.3222,-1.7197,-1.7765,-1.6162,-0.6774,-0.3254,-0.8647,-1.495,-1.7412,-1.7614,-1.7297,-1.7195,-1.7161,-1.7046,-1.6998,-1.6978,-1.6978,-1.6978,-1.6978,-1.6978,-1.6978,-1.6978,-1.6978,-1.6978,-1.6978,-1.7026,-1.7087,-1.7161,-1.7209,-1.7236,-1.7236,-1.7023,-1.7016,-1.7229,-1.7216,-1.7209,-1.7209,-1.7121,-1.7046,-1.6992,-1.6978,-1.6978,-1.6978,-1.6971,-1.6944,-1.6849,-1.6802,-1.6734,-1.6625,-1.6612,-1.6612,-1.6619,-1.6714,-1.6781,-1.6781,-1.6836,-1.6917,-1.6924,-1.6944,-1.6958,-1.6978,-1.706,-1.7093,-1.7188,-1.7263,-1.7324,-1.7324,-1.7277,-1.7243,-1.7127,-1.708,-1.7134,-1.7141,-1.708,-1.708,-1.7148,-1.7087,-1.6992,-1.6978,-1.6978,-1.6978,-1.6978,-1.6978,-1.6978,-1.6978,-1.6978,-1.6978,-1.6985,-1.7005,-1.7032,-1.706,-1.71,-1.7141,0.0,0.0,0.0,0.0,0.0,0.0,0.0,0.0,0.0,0.0,0.0,0.0,0.0,0.0,0.0,0.0,0.0,0.0,0.0,0.0,0.0,0.0,-0.4277,-1.3822,-1.6495,-1.5366,-0.5709,-0.1093,-0.4807,-1.2911,-1.7792,-1.7792,-1.7392,-1.7202,-1.7222,-1.7087,-1.6985,-1.6978,-1.6978,-1.6978,-1.6978,-1.6978,-1.6978,-1.6978,-1.6992,-1.6998,-1.7026,-1.71,-1.7195,-1.7229,-1.7338,-1.7385,-1.7392,-1.717,-1.7177,-1.7351,-1.7297,-1.7249,-1.7331,-1.7229,-1.7121,-1.7053,-1.7019,-1.6985,-1.6998,-1.7012,-1.7032,-1.7141,-1.7019,-1.6863,-1.6754,-1.6829,-1.6822,-1.6788,-1.6788,-1.687,-1.6883,-1.6856,-1.6924,-1.6917,-1.6931,-1.6958,-1.6978,-1.7087,-1.7182,-1.7283,-1.7372,-1.7419,-1.7426,-1.7351,-1.7277,-1.7154,-1.7066,-1.7107,-1.7141,-1.708,-1.7073,-1.7148,-1.708,-1.6978,-1.6978,-1.6978,-1.6978,-1.6978,-1.6978,-1.6978,-1.6978,-1.6978,-1.6978,-1.7019,-1.7066,-1.7121,-1.7168,-1.7216,-1.7263,0.0,0.0,0.0,0.0,0.0,0.0,0.0,0.0,0.0,0.0,0.0,0.0,0.0,0.0,0.0,0.0,0.0,0.0,0.0,0.0,0.0,0.0,0.0,-0.5594,-0.9828,-1.342,0.0,0.0,0.0,-1.0841,-1.7985,-1.7338,-1.7602,-1.7446,-1.7331,-1.7182,-1.7066,-1.7005,-1.6978,-1.6978,-1.6978,-1.6978,-1.6978,-1.6985,-1.706,-1.7087,-1.7134,-1.7243,-1.7372,-1.7433,-1.7528,-1.7541,-1.7548,-1.7541,-1.7521,-1.7419,-1.7453,-1.7446,-1.7405,-1.7283,-1.7222,-1.7236,-1.7216,-1.7202,-1.7134,-1.71,-1.7066,-1.706,-1.7019,-1.691,-1.6788,-1.6809,-1.6741,-1.6727,-1.6809,-1.6795,-1.6849,-1.6951,-1.6958,-1.6937,-1.6924,-1.6965,-1.6998,-1.7053,-1.7141,-1.7229,-1.7297,-1.7344,-1.7351,-1.7304,-1.7236,-1.7154,-1.7087,-1.7046,-1.7087,-1.708,-1.7019,-1.7053,-1.7053,-1.6978,-1.6978,-1.6978,-1.6978,-1.6978,-1.6978,-1.6978,-1.6978,-1.6985,-1.6992,-1.7066,-1.7148,-1.7209,-1.727,-1.7317,-1.7351,0.0,0.0,0.0,0.0,0.0,0.0,0.0,0.0,0.0,0.0,0.0,0.0,0.0,0.0,0.0,0.0,0.0,0.0,0.0,0.0,0.0,0.0,0.0,0.0,-0.5163,0.0,-0.4483,0.0,0.0,-0.7582,-1.2048,-1.3663,-1.3942,-1.5833,-1.7244,-1.729,-1.7134,-1.6992,-1.6978,-1.6978,-1.6978,-1.6978,-1.7005,-1.7053,-1.7127,-1.7209,-1.7263,-1.7399,-1.7541,-1.7602,-1.7512,-1.7552,-1.7772,-1.7731,-1.7677,-1.7582,-1.7568,-1.7528,-1.748,-1.7412,-1.7365,-1.7385,-1.7412,-1.7338,-1.7263,-1.7229,-1.7168,-1.7073,-1.7005,-1.691,-1.6809,-1.6781,-1.6761,-1.6741,-1.6754,-1.67,-1.6707,-1.6897,-1.7005,-1.6978,-1.6971,-1.6998,-1.7026,-1.7032,-1.7093,-1.7175,-1.7229,-1.7277,-1.727,-1.7249,-1.7195,-1.7127,-1.706,-1.7012,-1.7032,-1.7039,-1.6992,-1.6978,-1.6978,-1.6978,-1.6978,-1.6978,-1.6978,-1.6978,-1.6978,-1.6978,-1.6978,-1.6998,-1.7019,-1.7121,-1.7216,-1.7304,-1.7365,-1.7412,-1.7453,0.0,0.0,0.0,0.0,0.0,0.0,0.0,0.0,0.0,0.0,0.0,0.0,0.0,0.0,0.0,0.0,0.0,0.0,0.0,0.0,0.0,0.0,0.0,0.0,0.0,0.0,0.0,0.0,0.0,0.0,0.0,-0.1781,-0.7535,-1.2539,-1.5729,-1.713,-1.7188,-1.706,-1.7026,-1.7019,-1.7019,-1.7019,-1.7053,-1.7148,-1.7195,-1.7256,-1.7392,-1.7541,-1.7623,-1.7663,-1.7619,-1.776,-1.7955,-1.8122,-1.8047,-1.7751,-1.765,-1.7609,-1.7575,-1.7561,-1.7541,-1.7467,-1.7446,-1.7467,-1.7405,-1.727,-1.7202,-1.7182,-1.7114,-1.6971,-1.689,-1.6849,-1.691,-1.6876,-1.691,-1.6965,-1.6958,-1.6971,-1.706,-1.7019,-1.7046,-1.7114,-1.7134,-1.7161,-1.7073,-1.7141,-1.7175,-1.7216,-1.7216,-1.7195,-1.7148,-1.7087,-1.7019,-1.6985,-1.6985,-1.6978,-1.6978,-1.6978,-1.6978,-1.6978,-1.6978,-1.6978,-1.6978,-1.6978,-1.6978,-1.6978,-1.6978,-1.6985,-1.7039,-1.7168,-1.7283,-1.7385,-1.7453,-1.75,-1.7561,0.0,0.0,0.0,0.0,0.0,0.0,0.0,0.0,0.0,0.0,0.0,0.0,0.0,0.0,0.0,0.0,0.0,0.0,0.0,0.0,0.0,0.0,0.0,0.0,0.0,0.0,0.0,0.0,0.0,0.0,0.0,0.0,0.0,-0.9315,-1.4097,-1.6981,-1.7049,-1.7236,-1.7168,-1.7141,-1.7222,-1.7148,-1.7134,-1.7182,-1.7304,-1.729,-1.7338,-1.7616,-1.7677,-1.7724,-1.786,-1.7989,-1.8091,-1.8253,-1.8204,-1.7914,-1.7806,-1.7765,-1.767,-1.767,-1.765,-1.7717,-1.769,-1.765,-1.7568,-1.7494,-1.7412,-1.7358,-1.7283,-1.7168,-1.7073,-1.7148,-1.7209,-1.7121,-1.7114,-1.7188,-1.7209,-1.7188,-1.7188,-1.7188,-1.7243,-1.7311,-1.7311,-1.7311,-1.7188,-1.71,-1.7127,-1.7148,-1.7148,-1.7148,-1.7107,-1.7066,-1.6998,-1.6978,-1.6978,-1.6978,-1.6978,-1.6978,-1.6978,-1.6978,-1.6978,-1.6978,-1.6978,-1.6978,-1.6978,-1.6978,-1.6978,-1.6978,-1.7046,-1.7175,-1.7331,-1.748,-1.7541,-1.7575,-1.7643,0.0,0.0,0.0,0.0,0.0,0.0,0.0,0.0,0.0,0.0,0.0,0.0,0.0,0.0,0.0,0.0,0.0,0.0,0.0,0.0,0.0,0.0,0.0,0.0,0.0,0.0,0.0,0.0,0.0,0.0,0.0,0.0,0.0,0.0,-1.2382,-1.6601,-1.7096,-1.7358,-1.7297,-1.7236,-1.7317,-1.7249,-1.7182,-1.7202,-1.7283,-1.7324,-1.7365,-1.7582,-1.7704,-1.7745,-1.7846,-1.8002,-1.8321,-1.8362,-1.8566,-1.8307,-1.803,-1.7975,-1.784,-1.7745,-1.7785,-1.788,-1.7846,-1.7792,-1.7738,-1.7677,-1.7548,-1.7433,-1.7433,-1.7426,-1.729,-1.7365,-1.7385,-1.729,-1.7283,-1.7338,-1.7344,-1.7338,-1.7358,-1.7365,-1.7426,-1.7467,-1.7399,-1.7372,-1.7277,-1.7168,-1.7154,-1.7134,-1.706,-1.7073,-1.708,-1.7039,-1.6985,-1.6978,-1.6978,-1.6978,-1.6978,-1.6978,-1.6978,-1.6978,-1.6978,-1.6978,-1.6978,-1.6978,-1.6978,-1.6978,-1.6978,-1.6985,-1.706,-1.7168,-1.7324,-1.7473,-1.7595,-1.7636,-1.7711,0.0,0.0,0.0,0.0,0.0,0.0,0.0,0.0,0.0,0.0,0.0,0.0,0.0,0.0,0.0,0.0,0.0,0.0,0.0,0.0,0.0,0.0,0.0,0.0,0.0,0.0,0.0,0.0,0.0,0.0,0.0,0.0,0.0,-0.335,-0.929,-1.4804,-1.7123,-1.7392,-1.7297,-1.7277,-1.7304,-1.729,-1.727,-1.7277,-1.727,-1.7311,-1.7372,-1.7555,-1.7656,-1.765,-1.7693,-1.807,-1.8145,-1.7549,-1.7808,-1.852,-1.8376,-1.8084,-1.8057,-1.7935,-1.7955,-1.8043,-1.8009,-1.7921,-1.7846,-1.7751,-1.7643,-1.7561,-1.7575,-1.7561,-1.7528,-1.7534,-1.7514,-1.7487,-1.7473,-1.7507,-1.7521,-1.7521,-1.7548,-1.7561,-1.7589,-1.7595,-1.75,-1.7419,-1.7344,-1.727,-1.7209,-1.7134,-1.7032,-1.7005,-1.7032,-1.7019,-1.6978,-1.6978,-1.6978,-1.6978,-1.6978,-1.6978,-1.6978,-1.6978,-1.6978,-1.6978,-1.6978,-1.6978,-1.6978,-1.6978,-1.6985,-1.6992,-1.7087,-1.7188,-1.729,-1.7426,-1.7568,-1.7684,-1.7738,0.0,0.0,0.0,0.0,0.0,0.0,0.0,0.0,0.0,0.0,0.0,0.0,0.0,0.0,0.0,0.0,0.0,0.0,0.0,0.0,0.0,0.0,0.0,0.0,0.0,0.0,0.0,0.0,0.0,0.0,0.0,0.0,0.0,0.0,-0.8899,-1.4343,-1.765,-1.7677,-1.7595,-1.7534,-1.7602,-1.7534,-1.7473,-1.7467,-1.7378,-1.7331,-1.7324,-1.7521,-1.7602,-1.7589,-1.786,-1.782,-1.6977,-1.5919,-1.4999,-1.7304,-1.8356,-1.8097,-1.8091,-1.8043,-1.8091,-1.8165,-1.8179,-1.8091,-1.8023,-1.7982,-1.786,-1.7751,-1.7751,-1.7711,-1.7636,-1.7711,-1.7717,-1.7643,-1.7643,-1.7717,-1.7751,-1.7745,-1.7751,-1.7758,-1.7779,-1.7765,-1.7697,-1.7582,-1.7494,-1.7378,-1.7317,-1.7148,-1.7019,-1.6992,-1.6998,-1.6998,-1.6978,-1.6978,-1.6978,-1.6978,-1.6978,-1.6978,-1.6978,-1.6978,-1.6978,-1.6978,-1.6978,-1.6978,-1.6978,-1.6978,-1.6998,-1.7026,-1.7114,-1.7209,-1.7324,-1.748,-1.7663,-1.7724,-1.7717,0.0,0.0,0.0,0.0,0.0,0.0,0.0,0.0,0.0,0.0,0.0,0.0,0.0,0.0,0.0,0.0,0.0,0.0,0.0,0.0,0.0,0.0,0.0,0.0,0.0,0.0,0.0,0.0,0.0,0.0,0.0,0.0,-0.401,-0.7142,-1.1138,-1.4227,-1.7779,-1.7772,-1.7697,-1.765,-1.769,-1.7677,-1.7602,-1.7534,-1.7453,-1.7378,-1.7372,-1.746,-1.7609,-1.7609,-1.7538,-1.6849,-1.4647,-1.4252,-1.3583,-1.7028,-1.8186,-1.8192,-1.824,-1.826,-1.8342,-1.8464,-1.8389,-1.828,-1.8172,-1.8097,-1.7989,-1.7907,-1.7914,-1.784,-1.7772,-1.786,-1.7874,-1.7806,-1.784,-1.7914,-1.7975,-1.7968,-1.7901,-1.7914,-1.7874,-1.7874,-1.786,-1.7772,-1.7663,-1.7541,-1.7419,-1.7229,-1.7046,-1.7012,-1.6998,-1.6998,-1.6985,-1.6978,-1.6978,-1.6978,-1.6978,-1.6978,-1.6978,-1.6978,-1.6978,-1.6978,-1.6978,-1.6978,-1.6978,-1.6985,-1.7019,-1.7066,-1.7168,-1.727,-1.7385,-1.7555,-1.7758,-1.7779,-1.7758,0.0,0.0,0.0,0.0,0.0,0.0,0.0,0.0,0.0,0.0,0.0,0.0,0.0,0.0,0.0,0.0,0.0,0.0,0.0,0.0,0.0,0.0,0.0,0.0,0.0,0.0,0.0,0.0,0.0,0.0,0.0,0.0,0.0,-1.2057,-1.3399,-1.4935,-1.7833,-1.7819,-1.7772,-1.7724,-1.7738,-1.7704,-1.7643,-1.7575,-1.7494,-1.746,-1.7473,-1.7561,-1.7623,-1.7704,-1.7867,-1.4314,-1.3034,-1.4499,-1.6145,-1.8021,-1.8267,-1.8362,-1.8443,-1.8464,-1.8552,-1.862,-1.8498,-1.8382,-1.828,-1.8186,-1.8057,-1.7962,-1.7928,-1.7907,-1.7894,-1.7962,-1.8023,-1.8016,-1.8036,-1.8104,-1.8179,-1.8152,-1.8063,-1.8009,-1.7941,-1.7907,-1.788,-1.7819,-1.7799,-1.7643,-1.7514,-1.7378,-1.7202,-1.706,-1.7046,-1.7032,-1.7019,-1.6985,-1.6978,-1.6985,-1.6978,-1.6978,-1.6978,-1.6978,-1.6978,-1.6978,-1.6978,-1.6978,-1.6978,-1.6998,-1.706,-1.7141,-1.7229,-1.7338,-1.7446,-1.7595,-1.7779,-1.7826,-1.7833,0.0,0.0,0.0,0.0,0.0,0.0,0.0,0.0,0.0,0.0,0.0,0.0,0.0,0.0,0.0,0.0,0.0,0.0,0.0,0.0,0.0,0.0,0.0,0.0,0.0,0.0,0.0,0.0,0.0,0.0,0.0,0.0,0.0,-1.388,-1.591,-1.7008,-1.7659,-1.7853,-1.7806,-1.7792,-1.7792,-1.7799,-1.7745,-1.7704,-1.7629,-1.7609,-1.7609,-1.7629,-1.7663,-1.7697,-1.788,-1.5026,-1.0062,-0.7401,-0.6967,-1.7272,-1.8287,-1.8416,-1.8511,-1.8531,-1.8599,-1.8728,-1.8654,-1.8511,-1.8389,-1.826,-1.8138,-1.803,-1.7975,-1.7968,-1.7955,-1.7996,-1.8091,-1.8152,-1.8165,-1.8199,-1.8253,-1.8213,-1.8111,-1.7982,-1.7914,-1.7941,-1.7907,-1.7955,-1.7921,-1.7745,-1.7602,-1.7494,-1.7365,-1.7229,-1.7141,-1.7127,-1.7066,-1.7039,-1.7005,-1.6998,-1.6985,-1.6978,-1.6985,-1.6985,-1.6978,-1.6978,-1.6978,-1.6978,-1.6978,-1.7046,-1.7134,-1.7202,-1.7249,-1.7392,-1.7514,-1.7656,-1.7779,-1.7826,-1.7867,0.0,0.0,0.0,0.0,0.0,0.0,0.0,0.0,0.0,0.0,0.0,0.0,0.0,0.0,0.0,0.0,0.0,0.0,0.0,0.0,0.0,0.0,0.0,0.0,0.0,0.0,0.0,0.0,0.0,0.0,0.0,0.0,0.0,0.0,-1.6379,-1.7719,-1.7679,-1.788,-1.7853,-1.786,-1.788,-1.7907,-1.7921,-1.7867,-1.7799,-1.7785,-1.7738,-1.7731,-1.7724,-1.7745,-1.7928,-1.5026,-0.9174,-0.4033,-0.3833,-1.3197,-1.7465,-1.8053,-1.862,-1.8633,-1.8681,-1.8728,-1.8755,-1.8626,-1.8511,-1.8396,-1.8213,-1.807,-1.8057,-1.8043,-1.8023,-1.8023,-1.8145,-1.826,-1.8267,-1.8274,-1.8253,-1.8219,-1.8097,-1.7941,-1.7914,-1.7955,-1.7996,-1.8057,-1.8036,-1.7853,-1.7751,-1.7711,-1.7568,-1.7412,-1.7324,-1.7283,-1.7188,-1.7107,-1.7073,-1.7053,-1.7046,-1.7032,-1.6998,-1.6998,-1.6985,-1.6978,-1.6978,-1.6978,-1.6978,-1.7066,-1.7168,-1.7188,-1.7243,-1.7412,-1.7568,-1.7677,-1.7779,-1.784,-1.7867,0.0,0.0,0.0,0.0,0.0,0.0,0.0,0.0,0.0,0.0,0.0,0.0,0.0,0.0,0.0,0.0,0.0,0.0,0.0,0.0,0.0,0.0,0.0,0.0,0.0,0.0,0.0,0.0,0.0,0.0,0.0,0.0,0.0,0.0,-1.4564,-1.7268,-1.7907,-1.788,-1.7894,-1.7907,-1.7914,-1.7968,-1.803,-1.7935,-1.7941,-1.7968,-1.7894,-1.786,-1.7853,-1.788,-1.7027,-1.4803,-0.7861,-0.3386,-0.4775,-0.9376,-1.5464,-1.7876,-1.8667,-1.8694,-1.8728,-1.8755,-1.8755,-1.866,-1.8559,-1.8443,-1.826,-1.8118,-1.8084,-1.8084,-1.8063,-1.8145,-1.826,-1.8362,-1.8409,-1.8409,-1.8396,-1.8287,-1.8084,-1.7968,-1.7975,-1.7996,-1.7941,-1.7989,-1.803,-1.7901,-1.7833,-1.7826,-1.7751,-1.7589,-1.7507,-1.7439,-1.7324,-1.7229,-1.7202,-1.7175,-1.7134,-1.71,-1.706,-1.7046,-1.706,-1.7026,-1.6978,-1.6978,-1.6985,-1.7093,-1.7182,-1.7209,-1.7304,-1.7514,-1.7643,-1.7697,-1.7772,-1.7846,-1.7867,0.0,0.0,0.0,0.0,0.0,0.0,0.0,0.0,0.0,0.0,0.0,0.0,0.0,0.0,0.0,0.0,0.0,0.0,0.0,0.0,0.0,0.0,0.0,0.0,0.0,0.0,0.0,0.0,0.0,0.0,0.0,0.0,0.0,0.0,-1.163,-1.4992,-1.7914,-1.7874,-1.7982,-1.7955,-1.7894,-1.7996,-1.8063,-1.7962,-1.7948,-1.7928,-1.786,-1.7806,-1.7819,-1.7846,-1.7948,-1.2372,-0.2715,0.0,-0.3204,-0.8717,-1.505,-1.7697,-1.866,-1.8708,-1.8749,-1.8755,-1.8735,-1.8654,-1.8559,-1.8437,-1.8314,-1.8186,-1.8131,-1.8131,-1.8165,-1.8274,-1.8389,-1.847,-1.8538,-1.8538,-1.8531,-1.8308,-1.8084,-1.8036,-1.803,-1.7996,-1.7935,-1.7928,-1.7962,-1.7935,-1.788,-1.7853,-1.7846,-1.7751,-1.7677,-1.7595,-1.746,-1.7372,-1.7351,-1.7304,-1.7263,-1.7209,-1.7168,-1.7148,-1.7127,-1.7053,-1.6978,-1.6978,-1.7005,-1.7141,-1.7229,-1.7236,-1.7365,-1.7623,-1.7731,-1.7799,-1.7819,-1.7874,-1.7867,0.0,0.0,0.0,0.0,0.0,0.0,0.0,0.0,0.0,0.0,0.0,0.0,0.0,0.0,0.0,0.0,0.0,0.0,0.0,0.0,0.0,0.0,0.0,0.0,0.0,0.0,0.0,0.0,0.0,0.0,0.0,0.0,0.0,-0.2918,-0.895,-1.4325,-1.7928,-1.7874,-1.8063,-1.805,-1.7928,-1.805,-1.8077,-1.7989,-1.7887,-1.7874,-1.7833,-1.7779,-1.7779,-1.6514,-1.5272,-0.9697,0.0,0.0,0.0,-0.8779,-1.4412,-1.8496,-1.8681,-1.8687,-1.8721,-1.8701,-1.8742,-1.8667,-1.8457,-1.8342,-1.8274,-1.8172,-1.8314,-1.8342,-1.8328,-1.8409,-1.8538,-1.864,-1.8633,-1.8613,-1.8464,-1.824,-1.805,-1.7941,-1.7962,-1.8002,-1.7968,-1.7989,-1.7996,-1.7914,-1.7867,-1.786,-1.786,-1.786,-1.7806,-1.7745,-1.7602,-1.7582,-1.7609,-1.7521,-1.7399,-1.7344,-1.7283,-1.7161,-1.708,-1.7026,-1.6985,-1.7032,-1.7114,-1.7243,-1.7311,-1.7351,-1.7555,-1.7846,-1.7894,-1.7907,-1.7921,-1.7962,-1.8009,0.0,0.0,0.0,0.0,0.0,0.0,0.0,0.0,0.0,0.0,0.0,0.0,0.0,0.0,0.0,0.0,0.0,0.0,0.0,0.0,0.0,0.0,0.0,0.0,0.0,0.0,0.0,0.0,0.0,0.0,0.0,0.0,0.0,-0.2935,-0.8967,-1.4341,-1.7955,-1.7948,-1.803,-1.8077,-1.8097,-1.8145,-1.8097,-1.7996,-1.7853,-1.786,-1.7833,-1.7779,-1.7758,-1.5616,-1.281,-0.6778,0.0,0.0,0.0,-0.9009,-1.511,-1.7987,-1.8708,-1.8681,-1.864,-1.8613,-1.8687,-1.8593,-1.8369,-1.826,-1.8192,-1.8213,-1.8355,-1.8457,-1.845,-1.8538,-1.8667,-1.8742,-1.8708,-1.8633,-1.8409,-1.8206,-1.8063,-1.7914,-1.7914,-1.7975,-1.7996,-1.803,-1.7982,-1.7894,-1.7867,-1.7867,-1.786,-1.786,-1.784,-1.7806,-1.7731,-1.7751,-1.7779,-1.7717,-1.7561,-1.7473,-1.7392,-1.7195,-1.7053,-1.7053,-1.708,-1.7148,-1.7243,-1.7358,-1.7473,-1.7548,-1.7792,-1.8009,-1.8009,-1.8009,-1.8131,-1.8172,-1.8233,0.0,0.0,0.0,0.0,0.0,0.0,0.0,0.0,0.0,0.0,0.0,0.0,0.0,0.0,0.0,0.0,0.0,0.0,0.0,0.0,0.0,0.0,0.0,0.0,0.0,-0.9306,-1.1838,-1.4629,-1.0926,0.0,0.0,0.0,0.0,-0.3617,-0.8957,-1.3885,-1.7962,-1.7955,-1.7975,-1.803,-1.8002,-1.8057,-1.8179,-1.8036,-1.7812,-1.7894,-1.7907,-1.7772,-1.7779,-1.6065,-1.2139,-0.6106,0.0,0.0,0.0,-0.899,-1.5083,-1.7915,-1.864,-1.8647,-1.8593,-1.8518,-1.8525,-1.8396,-1.8233,-1.8152,-1.8084,-1.8023,-1.8158,-1.8335,-1.8403,-1.8606,-1.8749,-1.8755,-1.8735,-1.8586,-1.8403,-1.828,-1.8165,-1.8002,-1.7887,-1.7921,-1.7941,-1.7955,-1.7948,-1.7894,-1.7894,-1.7894,-1.7867,-1.786,-1.786,-1.7846,-1.7819,-1.7751,-1.7711,-1.7812,-1.7724,-1.7629,-1.75,-1.7317,-1.7188,-1.7134,-1.7175,-1.7277,-1.7358,-1.7453,-1.7568,-1.7731,-1.7846,-1.8023,-1.8063,-1.8111,-1.826,-1.8369,-1.8416]}]]